Time,TemperatureF,DewpointF,PressureIn,WindDirection,WindDirectionDegrees,WindSpeedMPH,WindSpeedGustMPH,Humidity,HourlyPrecipIn,Conditions,Clouds,dailyrainin,SoftwareType,DateUTC
2013-04-02 00:00:00,25.8,17.0,30.04,WSW,243,2.0,2.0,69,0.00,,OVC003,0.00,VWS V14.01,2013-04-02 04:00:00,
2013-04-02 00:01:00,25.8,17.0,30.04,WSW,244,3.0,3.0,69,0.00,,OVC003,0.00,VWS V14.01,2013-04-02 04:01:00,
2013-04-02 00:02:00,25.8,17.0,30.04,WSW,244,2.0,3.0,69,0.00,,OVC003,0.00,VWS V14.01,2013-04-02 04:02:00,
2013-04-02 00:03:00,25.8,17.0,30.04,South,184,3.0,3.0,69,0.00,,OVC003,0.00,VWS V14.01,2013-04-02 04:03:00,
2013-04-02 00:04:00,25.8,17.0,30.04,South,184,2.0,3.0,69,0.00,,OVC003,0.00,VWS V14.01,2013-04-02 04:04:00,
2013-04-02 00:05:00,25.7,17.0,30.04,South,184,2.0,3.0,69,0.00,,OVC003,0.00,VWS V14.01,2013-04-02 04:05:00,
2013-04-02 00:06:00,25.7,17.0,30.04,SW,225,4.0,4.0,69,0.00,,OVC003,0.00,VWS V14.01,2013-04-02 04:06:00,
2013-04-02 00:07:00,25.7,17.0,30.04,SW,225,2.0,2.0,69,0.00,,OVC003,0.00,VWS V14.01,2013-04-02 04:07:00,
2013-04-02 00:08:00,25.7,17.0,30.04,SW,225,2.0,2.0,69,0.00,,OVC003,0.00,VWS V14.01,2013-04-02 04:08:00,
2013-04-02 00:09:00,25.6,16.9,30.04,SW,225,2.0,2.0,69,0.00,,OVC003,0.00,VWS V14.01,2013-04-02 04:09:00,
2013-04-02 00:10:00,25.6,16.9,30.04,SW,225,2.0,2.0,69,0.00,,OVC003,0.00,VWS V14.01,2013-04-02 04:10:00,
2013-04-02 00:11:00,25.6,16.9,30.04,SW,225,2.0,3.0,69,0.00,,OVC003,0.00,VWS V14.01,2013-04-02 04:11:00,
2013-04-02 00:12:00,25.6,16.9,30.04,SW,225,2.0,3.0,69,0.00,,OVC003,0.00,VWS V14.01,2013-04-02 04:12:00,
2013-04-02 00:13:00,25.5,16.8,30.04,SW,225,2.0,3.0,69,0.00,,OVC003,0.00,VWS V14.01,2013-04-02 04:13:00,
2013-04-02 00:14:00,25.5,16.8,30.05,SW,225,2.0,3.0,69,0.00,,OVC003,0.00,VWS V14.01,2013-04-02 04:14:00,
2013-04-02 00:15:00,25.5,17.1,30.05,SW,225,2.0,3.0,70,0.00,,OVC003,0.00,VWS V14.01,2013-04-02 04:15:00,
2013-04-02 00:16:00,25.5,16.8,30.05,SW,225,3.0,3.0,69,0.00,,OVC003,0.00,VWS V14.01,2013-04-02 04:16:00,
2013-04-02 00:18:00,25.4,17.0,30.05,SW,225,2.0,2.0,70,0.00,,OVC003,0.00,VWS V14.01,2013-04-02 04:18:00,
2013-04-02 00:20:00,25.4,17.0,30.05,SW,225,2.0,2.0,70,0.00,,OVC003,0.00,VWS V14.01,2013-04-02 04:20:00,
2013-04-02 00:21:00,25.3,16.9,30.05,SW,225,2.0,0.0,70,0.00,,OVC003,0.00,VWS V14.01,2013-04-02 04:21:00,
2013-04-02 00:22:00,25.3,16.9,30.05,SW,225,2.0,0.0,70,0.00,,OVC003,0.00,VWS V14.01,2013-04-02 04:22:00,
2013-04-02 00:23:00,25.3,16.9,30.05,SW,225,2.0,2.0,70,0.00,,OVC003,0.00,VWS V14.01,2013-04-02 04:23:00,
2013-04-02 00:24:00,25.2,16.8,30.05,SW,225,2.0,2.0,70,0.00,,OVC003,0.00,VWS V14.01,2013-04-02 04:24:00,
2013-04-02 00:25:00,25.2,16.8,30.05,SW,225,2.0,0.0,70,0.00,,OVC003,0.00,VWS V14.01,2013-04-02 04:25:00,
2013-04-02 00:26:00,25.2,16.8,30.05,SW,225,2.0,0.0,70,0.00,,OVC003,0.00,VWS V14.01,2013-04-02 04:26:00,
2013-04-02 00:27:00,25.2,16.8,30.05,SW,225,2.0,2.0,70,0.00,,OVC003,0.00,VWS V14.01,2013-04-02 04:27:00,
2013-04-02 00:28:00,25.2,16.8,30.05,SW,225,2.0,2.0,70,0.00,,OVC003,0.00,VWS V14.01,2013-04-02 04:28:00,
2013-04-02 00:29:00,25.1,17.0,30.05,SW,225,2.0,2.0,71,0.00,,OVC003,0.00,VWS V14.01,2013-04-02 04:29:00,
2013-04-02 00:30:00,25.1,17.0,30.05,SW,225,2.0,2.0,71,0.00,,OVC003,0.00,VWS V14.01,2013-04-02 04:30:00,
2013-04-02 00:31:00,25.1,17.0,30.05,SW,225,3.0,3.0,71,0.00,,OVC003,0.00,VWS V14.01,2013-04-02 04:31:00,
2013-04-02 00:32:00,25.1,17.0,30.05,SW,225,2.0,2.0,71,0.00,,OVC003,0.00,VWS V14.01,2013-04-02 04:32:00,
2013-04-02 00:33:00,25.1,17.0,30.05,SW,225,2.0,2.0,71,0.00,,OVC003,0.00,VWS V14.01,2013-04-02 04:33:00,
2013-04-02 00:34:00,25.0,16.9,30.05,SW,225,2.0,2.0,71,0.00,,OVC003,0.00,VWS V14.01,2013-04-02 04:34:00,
2013-04-02 00:35:00,25.0,16.9,30.05,SW,225,2.0,0.0,71,0.00,,OVC003,0.00,VWS V14.01,2013-04-02 04:35:00,
2013-04-02 00:36:00,25.0,16.9,30.05,SW,225,2.0,0.0,71,0.00,,OVC003,0.00,VWS V14.01,2013-04-02 04:36:00,
2013-04-02 00:37:00,25.0,16.9,30.05,SW,225,2.0,0.0,71,0.00,,OVC003,0.00,VWS V14.01,2013-04-02 04:37:00,
2013-04-02 00:38:00,25.0,16.9,30.05,SW,225,2.0,0.0,71,0.00,,OVC003,0.00,VWS V14.01,2013-04-02 04:38:00,
2013-04-02 00:39:00,25.0,16.9,30.05,SW,225,2.0,0.0,71,0.00,,OVC003,0.00,VWS V14.01,2013-04-02 04:39:00,
2013-04-02 00:40:00,25.0,16.9,30.05,SW,225,2.0,0.0,71,0.00,,OVC003,0.00,VWS V14.01,2013-04-02 04:40:00,
2013-04-02 00:41:00,25.0,17.3,30.05,SW,225,2.0,0.0,72,0.00,,OVC003,0.00,VWS V14.01,2013-04-02 04:41:00,
2013-04-02 00:42:00,25.0,17.3,30.05,SW,225,2.0,0.0,72,0.00,,OVC003,0.00,VWS V14.01,2013-04-02 04:42:00,
2013-04-02 00:43:00,25.0,17.3,30.05,SW,225,3.0,3.0,72,0.00,,OVC003,0.00,VWS V14.01,2013-04-02 04:43:00,
2013-04-02 00:45:00,25.0,17.3,30.06,SW,225,2.0,2.0,72,0.00,,OVC003,0.00,VWS V14.01,2013-04-02 04:45:00,
2013-04-02 00:46:00,25.0,17.3,30.06,SW,225,2.0,0.0,72,0.00,,OVC003,0.00,VWS V14.01,2013-04-02 04:46:00,
2013-04-02 00:47:00,25.0,17.3,30.06,SW,225,2.0,0.0,72,0.00,,OVC003,0.00,VWS V14.01,2013-04-02 04:47:00,
2013-04-02 00:48:00,25.0,17.3,30.06,SW,225,2.0,0.0,72,0.00,,OVC003,0.00,VWS V14.01,2013-04-02 04:48:00,
2013-04-02 00:49:00,25.0,17.3,30.06,SW,225,2.0,0.0,72,0.00,,OVC003,0.00,VWS V14.01,2013-04-02 04:49:00,
2013-04-02 00:50:00,25.0,17.3,30.06,SW,225,2.0,0.0,72,0.00,,OVC003,0.00,VWS V14.01,2013-04-02 04:50:00,
2013-04-02 00:51:00,25.0,17.3,30.06,SW,225,2.0,0.0,72,0.00,,OVC003,0.00,VWS V14.01,2013-04-02 04:51:00,
2013-04-02 00:52:00,25.0,17.3,30.06,SW,225,2.0,0.0,72,0.00,,OVC003,0.00,VWS V14.01,2013-04-02 04:52:00,
2013-04-02 00:53:00,25.0,17.3,30.06,SW,225,2.0,0.0,72,0.00,,OVC003,0.00,VWS V14.01,2013-04-02 04:53:00,
2013-04-02 00:54:00,25.0,17.3,30.06,SW,225,2.0,0.0,72,0.00,,OVC003,0.00,VWS V14.01,2013-04-02 04:54:00,
2013-04-02 00:55:00,25.0,17.3,30.06,SW,225,2.0,0.0,72,0.00,,OVC003,0.00,VWS V14.01,2013-04-02 04:55:00,
2013-04-02 00:56:00,25.0,17.3,30.06,SW,225,2.0,0.0,72,0.00,,OVC003,0.00,VWS V14.01,2013-04-02 04:56:00,
2013-04-02 00:57:00,25.0,17.3,30.06,SW,225,2.0,0.0,72,0.00,,OVC003,0.00,VWS V14.01,2013-04-02 04:57:00,
2013-04-02 00:58:00,25.0,17.3,30.06,SW,225,2.0,0.0,72,0.00,,OVC003,0.00,VWS V14.01,2013-04-02 04:58:00,
2013-04-02 00:59:00,25.0,17.3,30.06,SW,225,2.0,0.0,72,0.00,,OVC003,0.00,VWS V14.01,2013-04-02 04:59:00,
2013-04-02 01:00:00,25.0,17.3,30.06,SW,225,2.0,0.0,72,0.00,,OVC003,0.00,VWS V14.01,2013-04-02 05:00:00,
2013-04-02 01:01:00,25.0,17.3,30.06,SW,225,2.0,0.0,72,0.00,,OVC003,0.00,VWS V14.01,2013-04-02 05:01:00,
2013-04-02 01:02:00,25.0,17.3,30.06,SW,225,2.0,0.0,72,0.00,,OVC003,0.00,VWS V14.01,2013-04-02 05:02:00,
2013-04-02 01:03:00,25.0,17.3,30.06,SW,225,2.0,0.0,72,0.00,,OVC003,0.00,VWS V14.01,2013-04-02 05:03:00,
2013-04-02 01:04:00,25.0,17.3,30.06,SW,225,2.0,0.0,72,0.00,,OVC003,0.00,VWS V14.01,2013-04-02 05:04:00,
2013-04-02 01:05:00,25.0,17.3,30.06,SW,225,2.0,0.0,72,0.00,,OVC003,0.00,VWS V14.01,2013-04-02 05:05:00,
2013-04-02 01:06:00,25.1,17.4,30.06,SW,225,2.0,0.0,72,0.00,,OVC003,0.00,VWS V14.01,2013-04-02 05:06:00,
2013-04-02 01:07:00,25.0,17.3,30.06,SW,225,2.0,0.0,72,0.00,,OVC003,0.00,VWS V14.01,2013-04-02 05:07:00,
2013-04-02 01:08:00,25.0,17.3,30.06,SW,225,2.0,0.0,72,0.00,,OVC003,0.00,VWS V14.01,2013-04-02 05:08:00,
2013-04-02 01:09:00,25.0,17.3,30.06,SW,225,2.0,2.0,72,0.00,,OVC003,0.00,VWS V14.01,2013-04-02 05:09:00,
2013-04-02 01:10:00,25.0,17.3,30.06,SW,225,2.0,2.0,72,0.00,,OVC003,0.00,VWS V14.01,2013-04-02 05:10:00,
2013-04-02 01:11:00,25.0,17.3,30.06,SW,225,2.0,0.0,72,0.00,,OVC003,0.00,VWS V14.01,2013-04-02 05:11:00,
2013-04-02 01:12:00,25.0,17.3,30.06,SW,225,2.0,0.0,72,0.00,,OVC003,0.00,VWS V14.01,2013-04-02 05:12:00,
2013-04-02 01:13:00,25.0,17.3,30.06,SW,225,2.0,0.0,72,0.00,,OVC003,0.00,VWS V14.01,2013-04-02 05:13:00,
2013-04-02 01:14:00,25.0,17.3,30.06,SW,225,2.0,0.0,72,0.00,,OVC003,0.00,VWS V14.01,2013-04-02 05:14:00,
2013-04-02 01:15:00,25.0,17.3,30.06,SW,225,2.0,0.0,72,0.00,,OVC003,0.00,VWS V14.01,2013-04-02 05:15:00,
2013-04-02 01:16:00,25.0,17.3,30.06,SW,225,2.0,0.0,72,0.00,,OVC003,0.00,VWS V14.01,2013-04-02 05:16:00,
2013-04-02 01:17:00,24.9,17.2,30.06,SW,225,2.0,0.0,72,0.00,,OVC003,0.00,VWS V14.01,2013-04-02 05:17:00,
2013-04-02 01:18:00,24.9,17.2,30.06,SW,225,2.0,0.0,72,0.00,,OVC003,0.00,VWS V14.01,2013-04-02 05:18:00,
2013-04-02 01:19:00,24.9,17.2,30.06,SW,225,2.0,0.0,72,0.00,,OVC003,0.00,VWS V14.01,2013-04-02 05:19:00,
2013-04-02 01:20:00,24.9,17.2,30.06,SW,225,2.0,0.0,72,0.00,,OVC003,0.00,VWS V14.01,2013-04-02 05:20:00,
2013-04-02 01:21:00,24.8,17.1,30.06,SW,225,2.0,2.0,72,0.00,,OVC003,0.00,VWS V14.01,2013-04-02 05:21:00,
2013-04-02 01:22:00,24.8,17.1,30.06,SW,225,2.0,2.0,72,0.00,,OVC003,0.00,VWS V14.01,2013-04-02 05:22:00,
2013-04-02 01:23:00,25.4,17.0,30.05,SW,225,2.0,2.0,70,0.00,,OVC003,0.00,VWS V14.01,2013-04-02 05:23:00,
2013-04-02 01:24:00,24.7,17.0,30.06,SW,225,2.0,2.0,72,0.00,,OVC003,0.00,VWS V14.01,2013-04-02 05:24:00,
2013-04-02 01:25:00,24.7,17.0,30.06,SW,225,2.0,2.0,72,0.00,,OVC003,0.00,VWS V14.01,2013-04-02 05:25:00,
2013-04-02 01:26:00,24.7,17.0,30.06,SW,225,2.0,0.0,72,0.00,,OVC003,0.00,VWS V14.01,2013-04-02 05:26:00,
2013-04-02 01:27:00,24.7,17.0,30.06,SW,225,2.0,0.0,72,0.00,,OVC003,0.00,VWS V14.01,2013-04-02 05:27:00,
2013-04-02 01:28:00,24.6,16.9,30.06,SW,225,2.0,0.0,72,0.00,,OVC003,0.00,VWS V14.01,2013-04-02 05:28:00,
2013-04-02 01:29:00,24.6,16.9,30.06,SW,225,2.0,0.0,72,0.00,,OVC003,0.00,VWS V14.01,2013-04-02 05:29:00,
2013-04-02 01:30:00,24.6,16.9,30.06,SW,225,2.0,0.0,72,0.00,,OVC003,0.00,VWS V14.01,2013-04-02 05:30:00,
2013-04-02 01:31:00,24.5,16.8,30.06,SW,225,2.0,0.0,72,0.00,,OVC003,0.00,VWS V14.01,2013-04-02 05:31:00,
2013-04-02 01:32:00,24.5,16.8,30.06,SW,225,2.0,2.0,72,0.00,,OVC003,0.00,VWS V14.01,2013-04-02 05:32:00,
2013-04-02 01:33:00,24.5,16.8,30.06,SW,225,2.0,2.0,72,0.00,,OVC003,0.00,VWS V14.01,2013-04-02 05:33:00,
2013-04-02 01:34:00,24.5,16.8,30.06,SW,225,2.0,2.0,72,0.00,,OVC003,0.00,VWS V14.01,2013-04-02 05:34:00,
2013-04-02 01:35:00,24.4,16.7,30.06,SW,225,2.0,2.0,72,0.00,,OVC003,0.00,VWS V14.01,2013-04-02 05:35:00,
2013-04-02 01:36:00,24.4,16.7,30.06,SW,225,2.0,0.0,72,0.00,,OVC003,0.00,VWS V14.01,2013-04-02 05:36:00,
2013-04-02 01:37:00,24.4,17.0,30.06,SW,225,2.0,0.0,73,0.00,,OVC003,0.00,VWS V14.01,2013-04-02 05:37:00,
2013-04-02 01:38:00,24.3,16.9,30.06,SW,225,2.0,0.0,73,0.00,,OVC003,0.00,VWS V14.01,2013-04-02 05:38:00,
2013-04-02 01:39:00,24.3,16.9,30.06,SW,225,2.0,0.0,73,0.00,,OVC003,0.00,VWS V14.01,2013-04-02 05:39:00,
2013-04-02 01:40:00,24.3,16.9,30.06,SW,225,2.0,0.0,73,0.00,,OVC003,0.00,VWS V14.01,2013-04-02 05:40:00,
2013-04-02 01:42:00,24.2,16.8,30.06,SW,225,2.0,2.0,73,0.00,,OVC003,0.00,VWS V14.01,2013-04-02 05:42:00,
2013-04-02 01:43:00,24.2,16.8,30.06,SW,225,2.0,2.0,73,0.00,,OVC003,0.00,VWS V14.01,2013-04-02 05:43:00,
2013-04-02 01:44:00,24.1,16.7,30.06,SW,225,2.0,2.0,73,0.00,,OVC003,0.00,VWS V14.01,2013-04-02 05:44:00,
2013-04-02 01:45:00,24.1,16.7,30.06,SW,225,2.0,0.0,73,0.00,,OVC003,0.00,VWS V14.01,2013-04-02 05:45:00,
2013-04-02 01:46:00,24.1,16.7,30.06,SW,225,2.0,0.0,73,0.00,,OVC003,0.00,VWS V14.01,2013-04-02 05:46:00,
2013-04-02 01:47:00,24.0,16.6,30.06,SW,225,2.0,0.0,73,0.00,,OVC003,0.00,VWS V14.01,2013-04-02 05:47:00,
2013-04-02 01:48:00,24.0,16.6,30.06,SW,225,2.0,0.0,73,0.00,,OVC003,0.00,VWS V14.01,2013-04-02 05:48:00,
2013-04-02 01:49:00,24.0,16.6,30.06,SW,225,2.0,0.0,73,0.00,,OVC003,0.00,VWS V14.01,2013-04-02 05:49:00,
2013-04-02 01:50:00,24.0,16.6,30.06,SW,225,2.0,0.0,73,0.00,,OVC003,0.00,VWS V14.01,2013-04-02 05:50:00,
2013-04-02 01:51:00,23.9,16.5,30.06,SW,225,2.0,0.0,73,0.00,,OVC003,0.00,VWS V14.01,2013-04-02 05:51:00,
2013-04-02 01:52:00,23.9,16.8,30.06,SW,225,2.0,0.0,74,0.00,,OVC003,0.00,VWS V14.01,2013-04-02 05:52:00,
2013-04-02 01:53:00,23.9,16.8,30.06,SW,225,2.0,0.0,74,0.00,,OVC003,0.00,VWS V14.01,2013-04-02 05:53:00,
2013-04-02 01:54:00,23.8,16.7,30.06,SW,225,2.0,0.0,74,0.00,,OVC003,0.00,VWS V14.01,2013-04-02 05:54:00,
2013-04-02 01:55:00,23.8,16.7,30.06,SW,225,2.0,0.0,74,0.00,,OVC003,0.00,VWS V14.01,2013-04-02 05:55:00,
2013-04-02 01:56:00,23.8,16.7,30.06,SW,225,2.0,0.0,74,0.00,,OVC003,0.00,VWS V14.01,2013-04-02 05:56:00,
2013-04-02 01:57:00,23.7,16.6,30.06,SW,225,2.0,0.0,74,0.00,,OVC003,0.00,VWS V14.01,2013-04-02 05:57:00,
2013-04-02 01:58:00,23.7,16.6,30.06,SW,225,2.0,0.0,74,0.00,,OVC003,0.00,VWS V14.01,2013-04-02 05:58:00,
2013-04-02 01:59:00,23.6,16.5,30.06,SW,225,2.0,0.0,74,0.00,,OVC003,0.00,VWS V14.01,2013-04-02 05:59:00,
2013-04-02 02:00:00,23.6,16.5,30.06,SW,225,2.0,0.0,74,0.00,,OVC003,0.00,VWS V14.01,2013-04-02 06:00:00,
2013-04-02 02:01:00,23.5,16.5,30.06,SW,225,2.0,0.0,74,0.00,,OVC003,0.00,VWS V14.01,2013-04-02 06:01:00,
2013-04-02 02:02:00,23.5,16.5,30.06,SW,225,2.0,0.0,74,0.00,,OVC003,0.00,VWS V14.01,2013-04-02 06:02:00,
2013-04-02 02:03:00,23.4,16.4,30.06,SW,225,2.0,0.0,74,0.00,,OVC003,0.00,VWS V14.01,2013-04-02 06:03:00,
2013-04-02 02:04:00,23.4,16.7,30.06,SW,225,2.0,0.0,75,0.00,,OVC003,0.00,VWS V14.01,2013-04-02 06:04:00,
2013-04-02 02:05:00,23.4,16.7,30.06,SW,225,2.0,0.0,75,0.00,,OVC003,0.00,VWS V14.01,2013-04-02 06:05:00,
2013-04-02 02:06:00,23.3,16.6,30.06,SW,225,2.0,0.0,75,0.00,,OVC003,0.00,VWS V14.01,2013-04-02 06:06:00,
2013-04-02 02:07:00,23.2,16.5,30.06,SW,225,2.0,0.0,75,0.00,,OVC003,0.00,VWS V14.01,2013-04-02 06:07:00,
2013-04-02 02:08:00,23.2,16.5,30.06,SW,225,2.0,0.0,75,0.00,,OVC003,0.00,VWS V14.01,2013-04-02 06:08:00,
2013-04-02 02:10:00,23.1,16.4,30.06,SW,225,2.0,0.0,75,0.00,,OVC003,0.00,VWS V14.01,2013-04-02 06:10:00,
2013-04-02 02:11:00,23.1,16.4,30.06,SW,225,2.0,0.0,75,0.00,,OVC003,0.00,VWS V14.01,2013-04-02 06:11:00,
2013-04-02 02:12:00,23.0,16.3,30.06,SW,225,2.0,0.0,75,0.00,,OVC003,0.00,VWS V14.01,2013-04-02 06:12:00,
2013-04-02 02:13:00,23.0,16.3,30.06,SW,225,2.0,0.0,75,0.00,,OVC003,0.00,VWS V14.01,2013-04-02 06:13:00,
2013-04-02 02:14:00,22.9,16.2,30.06,SW,225,2.0,0.0,75,0.00,,OVC003,0.00,VWS V14.01,2013-04-02 06:14:00,
2013-04-02 02:15:00,22.9,16.2,30.06,SW,225,2.0,0.0,75,0.00,,OVC003,0.00,VWS V14.01,2013-04-02 06:15:00,
2013-04-02 02:16:00,22.8,16.1,30.06,SW,225,2.0,0.0,75,0.00,,OVC003,0.00,VWS V14.01,2013-04-02 06:16:00,
2013-04-02 02:17:00,22.8,16.4,30.06,SW,225,2.0,0.0,76,0.00,,OVC003,0.00,VWS V14.01,2013-04-02 06:17:00,
2013-04-02 02:18:00,22.7,16.3,30.06,SW,225,2.0,0.0,76,0.00,,OVC003,0.00,VWS V14.01,2013-04-02 06:18:00,
2013-04-02 02:19:00,22.7,16.3,30.06,SW,225,2.0,0.0,76,0.00,,OVC003,0.00,VWS V14.01,2013-04-02 06:19:00,
2013-04-02 02:20:00,22.7,16.3,30.06,SW,225,2.0,0.0,76,0.00,,OVC003,0.00,VWS V14.01,2013-04-02 06:20:00,
2013-04-02 02:21:00,22.6,16.2,30.06,SW,225,2.0,0.0,76,0.00,,OVC003,0.00,VWS V14.01,2013-04-02 06:21:00,
2013-04-02 02:22:00,22.6,16.2,30.06,SW,225,2.0,0.0,76,0.00,,OVC003,0.00,VWS V14.01,2013-04-02 06:22:00,
2013-04-02 02:23:00,22.5,16.1,30.06,SW,225,2.0,0.0,76,0.00,,OVC003,0.00,VWS V14.01,2013-04-02 06:23:00,
2013-04-02 02:24:00,22.5,16.1,30.06,SW,225,2.0,0.0,76,0.00,,OVC003,0.00,VWS V14.01,2013-04-02 06:24:00,
2013-04-02 02:25:00,22.5,16.1,30.06,SW,225,2.0,0.0,76,0.00,,OVC003,0.00,VWS V14.01,2013-04-02 06:25:00,
2013-04-02 02:26:00,22.4,16.0,30.06,SW,225,2.0,0.0,76,0.00,,OVC003,0.00,VWS V14.01,2013-04-02 06:26:00,
2013-04-02 02:27:00,22.4,16.3,30.06,SW,225,2.0,0.0,77,0.00,,OVC003,0.00,VWS V14.01,2013-04-02 06:27:00,
2013-04-02 02:28:00,22.3,16.2,30.06,SW,225,2.0,0.0,77,0.00,,OVC003,0.00,VWS V14.01,2013-04-02 06:28:00,
2013-04-02 02:29:00,22.3,15.9,30.06,SW,225,2.0,0.0,76,0.00,,OVC003,0.00,VWS V14.01,2013-04-02 06:29:00,
2013-04-02 02:30:00,22.2,16.1,30.06,SW,225,2.0,0.0,77,0.00,,OVC003,0.00,VWS V14.01,2013-04-02 06:30:00,
2013-04-02 02:31:00,22.2,16.1,30.06,SW,225,2.0,0.0,77,0.00,,OVC003,0.00,VWS V14.01,2013-04-02 06:31:00,
2013-04-02 02:32:00,22.1,16.0,30.06,SW,225,2.0,0.0,77,0.00,,OVC003,0.00,VWS V14.01,2013-04-02 06:32:00,
2013-04-02 02:33:00,22.1,16.0,30.06,SW,225,2.0,0.0,77,0.00,,OVC003,0.00,VWS V14.01,2013-04-02 06:33:00,
2013-04-02 02:34:00,22.1,16.0,30.06,SW,225,2.0,0.0,77,0.00,,OVC003,0.00,VWS V14.01,2013-04-02 06:34:00,
2013-04-02 02:35:00,22.0,15.9,30.06,SW,225,2.0,0.0,77,0.00,,OVC003,0.00,VWS V14.01,2013-04-02 06:35:00,
2013-04-02 02:36:00,22.0,15.9,30.06,SW,225,2.0,0.0,77,0.00,,OVC003,0.00,VWS V14.01,2013-04-02 06:36:00,
2013-04-02 02:37:00,22.0,15.9,30.06,SW,225,2.0,0.0,77,0.00,,OVC003,0.00,VWS V14.01,2013-04-02 06:37:00,
2013-04-02 02:38:00,21.9,15.8,30.06,SW,225,2.0,0.0,77,0.00,,OVC003,0.00,VWS V14.01,2013-04-02 06:38:00,
2013-04-02 02:39:00,21.8,16.0,30.06,SW,225,2.0,0.0,78,0.00,,OVC003,0.00,VWS V14.01,2013-04-02 06:39:00,
2013-04-02 02:40:00,21.8,16.0,30.06,SW,225,2.0,0.0,78,0.00,,OVC003,0.00,VWS V14.01,2013-04-02 06:40:00,
2013-04-02 02:41:00,21.8,16.0,30.06,SW,225,2.0,0.0,78,0.00,,OVC003,0.00,VWS V14.01,2013-04-02 06:41:00,
2013-04-02 02:42:00,21.8,16.0,30.06,SW,225,2.0,0.0,78,0.00,,OVC003,0.00,VWS V14.01,2013-04-02 06:42:00,
2013-04-02 02:43:00,21.7,15.9,30.06,SW,225,2.0,0.0,78,0.00,,OVC003,0.00,VWS V14.01,2013-04-02 06:43:00,
2013-04-02 02:44:00,21.7,15.9,30.06,SW,225,2.0,0.0,78,0.00,,OVC003,0.00,VWS V14.01,2013-04-02 06:44:00,
2013-04-02 02:45:00,21.6,15.8,30.06,SW,225,2.0,0.0,78,0.00,,OVC003,0.00,VWS V14.01,2013-04-02 06:45:00,
2013-04-02 02:46:00,21.6,15.8,30.06,SW,225,2.0,0.0,78,0.00,,OVC003,0.00,VWS V14.01,2013-04-02 06:46:00,
2013-04-02 02:47:00,24.2,16.8,30.06,SW,225,2.0,0.0,73,0.00,,OVC003,0.00,VWS V14.01,2013-04-02 06:47:00,
2013-04-02 02:48:00,21.6,15.8,30.06,SW,225,2.0,0.0,78,0.00,,OVC003,0.00,VWS V14.01,2013-04-02 06:48:00,
2013-04-02 02:49:00,21.5,15.7,30.06,SW,225,2.0,0.0,78,0.00,,OVC003,0.00,VWS V14.01,2013-04-02 06:49:00,
2013-04-02 02:50:00,21.5,15.7,30.06,SW,225,2.0,0.0,78,0.00,,OVC003,0.00,VWS V14.01,2013-04-02 06:50:00,
2013-04-02 02:51:00,21.5,16.0,30.06,SW,225,2.0,0.0,79,0.00,,OVC003,0.00,VWS V14.01,2013-04-02 06:51:00,
2013-04-02 02:52:00,21.5,16.0,30.06,SW,225,2.0,0.0,79,0.00,,OVC003,0.00,VWS V14.01,2013-04-02 06:52:00,
2013-04-02 02:53:00,21.5,16.0,30.06,SW,225,2.0,0.0,79,0.00,,OVC003,0.00,VWS V14.01,2013-04-02 06:53:00,
2013-04-02 02:54:00,21.4,15.9,30.06,SW,225,2.0,0.0,79,0.00,,OVC003,0.00,VWS V14.01,2013-04-02 06:54:00,
2013-04-02 02:55:00,21.4,15.9,30.06,SW,225,2.0,0.0,79,0.00,,OVC003,0.00,VWS V14.01,2013-04-02 06:55:00,
2013-04-02 02:56:00,21.3,15.8,30.06,SW,225,2.0,0.0,79,0.00,,OVC003,0.00,VWS V14.01,2013-04-02 06:56:00,
2013-04-02 02:57:00,21.3,15.8,30.06,SW,225,2.0,0.0,79,0.00,,OVC003,0.00,VWS V14.01,2013-04-02 06:57:00,
2013-04-02 02:58:00,21.3,15.8,30.06,SW,225,2.0,0.0,79,0.00,,OVC003,0.00,VWS V14.01,2013-04-02 06:58:00,
2013-04-02 02:59:00,21.3,15.8,30.06,SW,225,2.0,0.0,79,0.00,,OVC003,0.00,VWS V14.01,2013-04-02 06:59:00,
2013-04-02 03:00:00,21.3,16.1,30.06,SW,225,2.0,0.0,80,0.00,,OVC003,0.00,VWS V14.01,2013-04-02 07:00:00,
2013-04-02 03:01:00,21.2,16.0,30.06,SW,225,2.0,0.0,80,0.00,,OVC003,0.00,VWS V14.01,2013-04-02 07:01:00,
2013-04-02 03:02:00,21.2,16.0,30.06,SW,225,2.0,0.0,80,0.00,,OVC003,0.00,VWS V14.01,2013-04-02 07:02:00,
2013-04-02 03:03:00,21.2,16.0,30.06,SW,225,2.0,0.0,80,0.00,,OVC003,0.00,VWS V14.01,2013-04-02 07:03:00,
2013-04-02 03:04:00,21.2,16.0,30.06,SW,225,2.0,0.0,80,0.00,,OVC003,0.00,VWS V14.01,2013-04-02 07:04:00,
2013-04-02 03:05:00,21.1,15.9,30.06,SW,225,2.0,0.0,80,0.00,,OVC003,0.00,VWS V14.01,2013-04-02 07:05:00,
2013-04-02 03:06:00,21.1,15.9,30.06,SW,225,2.0,0.0,80,0.00,,OVC003,0.00,VWS V14.01,2013-04-02 07:06:00,
2013-04-02 03:08:00,21.1,15.9,30.06,SW,225,2.0,0.0,80,0.00,,OVC003,0.00,VWS V14.01,2013-04-02 07:08:00,
2013-04-02 03:09:00,21.0,15.8,30.06,SW,225,2.0,0.0,80,0.00,,OVC003,0.00,VWS V14.01,2013-04-02 07:09:00,
2013-04-02 03:10:00,21.1,15.9,30.06,SW,225,2.0,0.0,80,0.00,,OVC003,0.00,VWS V14.01,2013-04-02 07:10:00,
2013-04-02 03:11:00,21.0,15.8,30.06,SW,225,2.0,0.0,80,0.00,,OVC003,0.00,VWS V14.01,2013-04-02 07:11:00,
2013-04-02 03:12:00,21.0,15.8,30.06,SW,225,2.0,0.0,80,0.00,,OVC003,0.00,VWS V14.01,2013-04-02 07:12:00,
2013-04-02 03:13:00,21.0,16.1,30.06,SW,225,2.0,0.0,81,0.00,,OVC003,0.00,VWS V14.01,2013-04-02 07:13:00,
2013-04-02 03:14:00,20.9,16.0,30.06,SW,225,2.0,0.0,81,0.00,,OVC003,0.00,VWS V14.01,2013-04-02 07:14:00,
2013-04-02 03:15:00,20.9,16.0,30.06,SW,225,2.0,0.0,81,0.00,,OVC003,0.00,VWS V14.01,2013-04-02 07:15:00,
2013-04-02 03:16:00,20.9,16.0,30.06,SW,225,2.0,0.0,81,0.00,,OVC003,0.00,VWS V14.01,2013-04-02 07:16:00,
2013-04-02 03:17:00,20.9,16.0,30.06,SW,225,2.0,0.0,81,0.00,,OVC003,0.00,VWS V14.01,2013-04-02 07:17:00,
2013-04-02 03:18:00,20.8,15.9,30.06,SW,225,2.0,0.0,81,0.00,,OVC003,0.00,VWS V14.01,2013-04-02 07:18:00,
2013-04-02 03:19:00,20.9,16.0,30.06,SW,225,2.0,0.0,81,0.00,,OVC003,0.00,VWS V14.01,2013-04-02 07:19:00,
2013-04-02 03:20:00,20.8,15.9,30.06,SW,225,2.0,0.0,81,0.00,,OVC003,0.00,VWS V14.01,2013-04-02 07:20:00,
2013-04-02 03:21:00,20.8,15.9,30.06,SW,225,2.0,0.0,81,0.00,,OVC003,0.00,VWS V14.01,2013-04-02 07:21:00,
2013-04-02 03:22:00,20.8,15.9,30.06,SW,225,2.0,0.0,81,0.00,,OVC003,0.00,VWS V14.01,2013-04-02 07:22:00,
2013-04-02 03:23:00,20.8,15.9,30.06,SW,225,2.0,0.0,81,0.00,,OVC003,0.00,VWS V14.01,2013-04-02 07:23:00,
2013-04-02 03:24:00,20.7,16.1,30.06,SW,225,2.0,0.0,82,0.00,,OVC003,0.00,VWS V14.01,2013-04-02 07:24:00,
2013-04-02 03:25:00,20.7,16.1,30.06,SW,225,2.0,0.0,82,0.00,,OVC003,0.00,VWS V14.01,2013-04-02 07:25:00,
2013-04-02 03:26:00,20.7,16.1,30.06,SW,225,2.0,0.0,82,0.00,,OVC003,0.00,VWS V14.01,2013-04-02 07:26:00,
2013-04-02 03:27:00,20.7,16.1,30.06,SW,225,2.0,0.0,82,0.00,,OVC003,0.00,VWS V14.01,2013-04-02 07:27:00,
2013-04-02 03:28:00,20.7,16.1,30.06,SW,225,2.0,0.0,82,0.00,,OVC003,0.00,VWS V14.01,2013-04-02 07:28:00,
2013-04-02 03:29:00,20.7,16.1,30.06,SW,225,2.0,0.0,82,0.00,,OVC003,0.00,VWS V14.01,2013-04-02 07:29:00,
2013-04-02 03:30:00,20.7,16.1,30.06,SW,225,2.0,0.0,82,0.00,,OVC003,0.00,VWS V14.01,2013-04-02 07:30:00,
2013-04-02 03:31:00,20.7,16.1,30.06,SW,225,2.0,0.0,82,0.00,,OVC003,0.00,VWS V14.01,2013-04-02 07:31:00,
2013-04-02 03:32:00,20.7,16.1,30.06,SW,225,2.0,0.0,82,0.00,,OVC003,0.00,VWS V14.01,2013-04-02 07:32:00,
2013-04-02 03:33:00,20.7,16.1,30.06,SW,225,2.0,0.0,82,0.00,,OVC003,0.00,VWS V14.01,2013-04-02 07:33:00,
2013-04-02 03:34:00,20.7,16.1,30.06,SW,225,2.0,0.0,82,0.00,,OVC003,0.00,VWS V14.01,2013-04-02 07:34:00,
2013-04-02 03:35:00,20.7,16.1,30.06,SW,225,2.0,0.0,82,0.00,,OVC003,0.00,VWS V14.01,2013-04-02 07:35:00,
2013-04-02 03:36:00,20.7,16.1,30.06,SW,225,2.0,0.0,82,0.00,,OVC003,0.00,VWS V14.01,2013-04-02 07:36:00,
2013-04-02 03:37:00,20.7,16.1,30.06,SW,225,2.0,0.0,82,0.00,,OVC003,0.00,VWS V14.01,2013-04-02 07:37:00,
2013-04-02 03:38:00,20.7,16.1,30.06,SW,225,2.0,0.0,82,0.00,,OVC003,0.00,VWS V14.01,2013-04-02 07:38:00,
2013-04-02 03:39:00,20.6,16.0,30.06,SW,225,2.0,0.0,82,0.00,,OVC003,0.00,VWS V14.01,2013-04-02 07:39:00,
2013-04-02 03:40:00,20.6,16.0,30.06,SW,225,2.0,0.0,82,0.00,,OVC003,0.00,VWS V14.01,2013-04-02 07:40:00,
2013-04-02 03:41:00,20.6,16.0,30.06,SW,225,2.0,0.0,82,0.00,,OVC003,0.00,VWS V14.01,2013-04-02 07:41:00,
2013-04-02 03:42:00,20.6,16.0,30.06,SW,225,2.0,0.0,82,0.00,,OVC003,0.00,VWS V14.01,2013-04-02 07:42:00,
2013-04-02 03:43:00,20.6,16.0,30.06,SW,225,2.0,0.0,82,0.00,,OVC003,0.00,VWS V14.01,2013-04-02 07:43:00,
2013-04-02 03:44:00,20.6,16.0,30.06,SW,225,2.0,0.0,82,0.00,,OVC003,0.00,VWS V14.01,2013-04-02 07:44:00,
2013-04-02 03:45:00,20.6,16.3,30.06,SW,225,2.0,0.0,83,0.00,,OVC003,0.00,VWS V14.01,2013-04-02 07:45:00,
2013-04-02 03:46:00,20.6,16.3,30.06,SW,225,2.0,0.0,83,0.00,,OVC003,0.00,VWS V14.01,2013-04-02 07:46:00,
2013-04-02 03:47:00,20.6,16.3,30.06,SW,225,2.0,0.0,83,0.00,,OVC003,0.00,VWS V14.01,2013-04-02 07:47:00,
2013-04-02 03:48:00,20.6,16.3,30.06,SW,225,2.0,0.0,83,0.00,,OVC003,0.00,VWS V14.01,2013-04-02 07:48:00,
2013-04-02 03:49:00,20.6,16.3,30.06,SW,225,2.0,0.0,83,0.00,,OVC003,0.00,VWS V14.01,2013-04-02 07:49:00,
2013-04-02 03:50:00,20.6,16.3,30.06,SW,225,2.0,0.0,83,0.00,,OVC003,0.00,VWS V14.01,2013-04-02 07:50:00,
2013-04-02 03:51:00,20.6,16.3,30.06,SW,225,2.0,0.0,83,0.00,,OVC003,0.00,VWS V14.01,2013-04-02 07:51:00,
2013-04-02 03:52:00,20.6,16.3,30.06,SW,225,2.0,0.0,83,0.00,,OVC003,0.00,VWS V14.01,2013-04-02 07:52:00,
2013-04-02 03:53:00,20.6,16.3,30.06,SW,225,2.0,0.0,83,0.00,,OVC003,0.00,VWS V14.01,2013-04-02 07:53:00,
2013-04-02 03:54:00,20.6,16.3,30.06,SW,225,2.0,0.0,83,0.00,,OVC003,0.00,VWS V14.01,2013-04-02 07:54:00,
2013-04-02 03:55:00,20.6,16.3,30.06,SW,225,2.0,0.0,83,0.00,,OVC003,0.00,VWS V14.01,2013-04-02 07:55:00,
2013-04-02 03:56:00,20.6,16.3,30.06,SW,225,2.0,0.0,83,0.00,,OVC003,0.00,VWS V14.01,2013-04-02 07:56:00,
2013-04-02 03:57:00,20.6,16.3,30.06,SW,225,2.0,0.0,83,0.00,,OVC003,0.00,VWS V14.01,2013-04-02 07:57:00,
2013-04-02 03:58:00,20.6,16.3,30.06,SW,225,2.0,0.0,83,0.00,,OVC003,0.00,VWS V14.01,2013-04-02 07:58:00,
2013-04-02 03:59:00,20.6,16.3,30.06,SW,225,2.0,0.0,83,0.00,,OVC003,0.00,VWS V14.01,2013-04-02 07:59:00,
2013-04-02 04:00:00,20.6,16.3,30.06,SW,225,2.0,0.0,83,0.00,,OVC003,0.00,VWS V14.01,2013-04-02 08:00:00,
2013-04-02 04:01:00,20.6,16.3,30.06,SW,225,2.0,0.0,83,0.00,,OVC003,0.00,VWS V14.01,2013-04-02 08:01:00,
2013-04-02 04:02:00,20.6,16.3,30.06,SW,225,2.0,0.0,83,0.00,,OVC003,0.00,VWS V14.01,2013-04-02 08:02:00,
2013-04-02 04:03:00,20.5,16.2,30.06,SW,225,2.0,0.0,83,0.00,,OVC003,0.00,VWS V14.01,2013-04-02 08:03:00,
2013-04-02 04:04:00,20.5,16.2,30.06,SW,225,2.0,0.0,83,0.00,,OVC003,0.00,VWS V14.01,2013-04-02 08:04:00,
2013-04-02 04:05:00,20.5,16.2,30.06,SW,225,2.0,0.0,83,0.00,,OVC003,0.00,VWS V14.01,2013-04-02 08:05:00,
2013-04-02 04:06:00,20.5,16.2,30.06,SW,225,2.0,0.0,83,0.00,,OVC003,0.00,VWS V14.01,2013-04-02 08:06:00,
2013-04-02 04:07:00,20.4,16.4,30.06,SW,225,2.0,0.0,84,0.00,,OVC003,0.00,VWS V14.01,2013-04-02 08:07:00,
2013-04-02 04:08:00,20.4,16.4,30.06,SW,225,2.0,0.0,84,0.00,,OVC003,0.00,VWS V14.01,2013-04-02 08:08:00,
2013-04-02 04:09:00,20.4,16.4,30.06,SW,225,2.0,2.0,84,0.00,,OVC003,0.00,VWS V14.01,2013-04-02 08:09:00,
2013-04-02 04:10:00,20.4,16.4,30.06,SW,225,2.0,2.0,84,0.00,,OVC003,0.00,VWS V14.01,2013-04-02 08:10:00,
2013-04-02 04:11:00,20.4,16.4,30.06,SW,225,2.0,0.0,84,0.00,,OVC003,0.00,VWS V14.01,2013-04-02 08:11:00,
2013-04-02 04:12:00,20.4,16.4,30.06,SW,225,2.0,0.0,84,0.00,,OVC003,0.00,VWS V14.01,2013-04-02 08:12:00,
2013-04-02 04:13:00,20.4,16.4,30.06,SW,225,2.0,0.0,84,0.00,,OVC003,0.00,VWS V14.01,2013-04-02 08:13:00,
2013-04-02 04:14:00,21.1,15.9,30.06,SW,225,2.0,0.0,80,0.00,,OVC003,0.00,VWS V14.01,2013-04-02 08:14:00,
2013-04-02 04:15:00,20.4,16.4,30.06,SW,225,2.0,0.0,84,0.00,,OVC003,0.00,VWS V14.01,2013-04-02 08:15:00,
2013-04-02 04:16:00,20.4,16.4,30.06,SW,225,2.0,0.0,84,0.00,,OVC003,0.00,VWS V14.01,2013-04-02 08:16:00,
2013-04-02 04:17:00,20.4,16.4,30.06,SW,225,2.0,0.0,84,0.00,,OVC003,0.00,VWS V14.01,2013-04-02 08:17:00,
2013-04-02 04:18:00,20.4,16.4,30.06,SW,225,2.0,0.0,84,0.00,,OVC003,0.00,VWS V14.01,2013-04-02 08:18:00,
2013-04-02 04:19:00,20.4,16.4,30.06,SW,225,2.0,0.0,84,0.00,,OVC003,0.00,VWS V14.01,2013-04-02 08:19:00,
2013-04-02 04:20:00,20.4,16.4,30.06,SW,225,2.0,0.0,84,0.00,,OVC003,0.00,VWS V14.01,2013-04-02 08:20:00,
2013-04-02 04:21:00,20.4,16.4,30.06,SW,225,2.0,0.0,84,0.00,,OVC003,0.00,VWS V14.01,2013-04-02 08:21:00,
2013-04-02 04:22:00,20.4,16.4,30.06,SW,225,2.0,0.0,84,0.00,,OVC003,0.00,VWS V14.01,2013-04-02 08:22:00,
2013-04-02 04:23:00,20.4,16.4,30.06,SW,225,2.0,0.0,84,0.00,,OVC003,0.00,VWS V14.01,2013-04-02 08:23:00,
2013-04-02 04:24:00,20.4,16.4,30.06,SW,225,2.0,0.0,84,0.00,,OVC003,0.00,VWS V14.01,2013-04-02 08:24:00,
2013-04-02 04:25:00,20.4,16.4,30.06,SW,225,2.0,0.0,84,0.00,,OVC003,0.00,VWS V14.01,2013-04-02 08:25:00,
2013-04-02 04:26:00,20.4,16.4,30.06,SW,225,2.0,0.0,84,0.00,,OVC003,0.00,VWS V14.01,2013-04-02 08:26:00,
2013-04-02 04:27:00,20.4,16.6,30.06,SW,225,2.0,0.0,85,0.00,,OVC003,0.00,VWS V14.01,2013-04-02 08:27:00,
2013-04-02 04:28:00,20.4,16.6,30.06,SW,225,2.0,0.0,85,0.00,,OVC003,0.00,VWS V14.01,2013-04-02 08:28:00,
2013-04-02 04:29:00,20.4,16.6,30.06,SW,225,2.0,0.0,85,0.00,,OVC003,0.00,VWS V14.01,2013-04-02 08:29:00,
2013-04-02 04:30:00,20.4,16.6,30.06,SW,225,2.0,0.0,85,0.00,,OVC003,0.00,VWS V14.01,2013-04-02 08:30:00,
2013-04-02 04:31:00,20.4,16.6,30.06,SW,225,2.0,0.0,85,0.00,,OVC003,0.00,VWS V14.01,2013-04-02 08:31:00,
2013-04-02 04:32:00,20.4,16.6,30.06,SW,225,2.0,0.0,85,0.00,,OVC003,0.00,VWS V14.01,2013-04-02 08:32:00,
2013-04-02 04:33:00,20.4,16.6,30.06,SW,225,2.0,0.0,85,0.00,,OVC003,0.00,VWS V14.01,2013-04-02 08:33:00,
2013-04-02 04:34:00,20.4,16.6,30.06,SW,225,2.0,0.0,85,0.00,,OVC003,0.00,VWS V14.01,2013-04-02 08:34:00,
2013-04-02 04:35:00,20.4,16.6,30.06,SW,225,2.0,0.0,85,0.00,,OVC003,0.00,VWS V14.01,2013-04-02 08:35:00,
2013-04-02 04:36:00,20.4,16.6,30.06,SW,225,2.0,0.0,85,0.00,,OVC003,0.00,VWS V14.01,2013-04-02 08:36:00,
2013-04-02 04:37:00,20.4,16.6,30.06,SW,225,2.0,0.0,85,0.00,,OVC003,0.00,VWS V14.01,2013-04-02 08:37:00,
2013-04-02 04:38:00,20.4,16.6,30.06,SW,225,2.0,0.0,85,0.00,,OVC003,0.00,VWS V14.01,2013-04-02 08:38:00,
2013-04-02 04:39:00,20.4,16.6,30.06,SW,225,2.0,0.0,85,0.00,,OVC003,0.00,VWS V14.01,2013-04-02 08:39:00,
2013-04-02 04:40:00,20.4,16.6,30.06,SW,225,2.0,0.0,85,0.00,,OVC003,0.00,VWS V14.01,2013-04-02 08:40:00,
2013-04-02 04:41:00,20.4,16.6,30.06,SW,225,2.0,0.0,85,0.00,,OVC003,0.00,VWS V14.01,2013-04-02 08:41:00,
2013-04-02 04:42:00,20.4,16.6,30.06,SW,225,2.0,0.0,85,0.00,,OVC003,0.00,VWS V14.01,2013-04-02 08:42:00,
2013-04-02 04:43:00,20.4,16.6,30.06,SW,225,2.0,0.0,85,0.00,,OVC003,0.00,VWS V14.01,2013-04-02 08:43:00,
2013-04-02 04:44:00,20.4,16.6,30.06,SW,225,2.0,0.0,85,0.00,,OVC003,0.00,VWS V14.01,2013-04-02 08:44:00,
2013-04-02 04:45:00,20.4,16.6,30.06,SW,225,2.0,0.0,85,0.00,,OVC003,0.00,VWS V14.01,2013-04-02 08:45:00,
2013-04-02 04:46:00,20.4,16.6,30.06,SW,225,2.0,0.0,85,0.00,,OVC003,0.00,VWS V14.01,2013-04-02 08:46:00,
2013-04-02 04:47:00,20.4,16.6,30.06,SW,225,2.0,0.0,85,0.00,,OVC003,0.00,VWS V14.01,2013-04-02 08:47:00,
2013-04-02 04:48:00,20.4,16.6,30.06,SW,225,2.0,0.0,85,0.00,,OVC003,0.00,VWS V14.01,2013-04-02 08:48:00,
2013-04-02 04:50:00,20.4,16.6,30.06,SW,225,2.0,2.0,85,0.00,,OVC003,0.00,VWS V14.01,2013-04-02 08:50:00,
2013-04-02 04:51:00,20.4,16.6,30.06,SW,225,2.0,2.0,85,0.00,,OVC003,0.00,VWS V14.01,2013-04-02 08:51:00,
2013-04-02 04:52:00,20.4,16.6,30.06,SW,225,2.0,2.0,85,0.00,,OVC003,0.00,VWS V14.01,2013-04-02 08:52:00,
2013-04-02 04:53:00,20.4,16.6,30.06,SW,225,2.0,2.0,85,0.00,,OVC003,0.00,VWS V14.01,2013-04-02 08:53:00,
2013-04-02 04:54:00,20.5,16.7,30.06,SW,225,2.0,2.0,85,0.00,,OVC003,0.00,VWS V14.01,2013-04-02 08:54:00,
2013-04-02 04:55:00,20.5,16.7,30.06,SW,225,2.0,2.0,85,0.00,,OVC003,0.00,VWS V14.01,2013-04-02 08:55:00,
2013-04-02 04:56:00,20.5,16.7,30.06,SW,225,3.0,3.0,85,0.00,,OVC003,0.00,VWS V14.01,2013-04-02 08:56:00,
2013-04-02 04:57:00,20.5,16.7,30.06,SW,225,2.0,2.0,85,0.00,,OVC003,0.00,VWS V14.01,2013-04-02 08:57:00,
2013-04-02 04:58:00,20.5,16.7,30.06,SW,225,2.0,2.0,85,0.00,,OVC003,0.00,VWS V14.01,2013-04-02 08:58:00,
2013-04-02 04:59:00,20.5,16.7,30.06,SW,225,4.0,4.0,85,0.00,,OVC003,0.00,VWS V14.01,2013-04-02 08:59:00,
2013-04-02 05:00:00,20.5,16.7,30.06,SW,225,2.0,2.0,85,0.00,,OVC003,0.00,VWS V14.01,2013-04-02 09:00:00,
2013-04-02 05:01:00,20.6,17.1,30.06,SW,225,2.0,2.0,86,0.00,,OVC003,0.00,VWS V14.01,2013-04-02 09:01:00,
2013-04-02 05:02:00,20.6,17.1,30.06,SW,225,2.0,2.0,86,0.00,,OVC003,0.00,VWS V14.01,2013-04-02 09:02:00,
2013-04-02 05:03:00,20.6,17.1,30.06,SW,225,2.0,2.0,86,0.00,,OVC003,0.00,VWS V14.01,2013-04-02 09:03:00,
2013-04-02 05:04:00,20.6,17.1,30.06,SW,225,2.0,2.0,86,0.00,,OVC003,0.00,VWS V14.01,2013-04-02 09:04:00,
2013-04-02 05:05:00,20.6,17.1,30.06,SW,225,2.0,2.0,86,0.00,,OVC003,0.00,VWS V14.01,2013-04-02 09:05:00,
2013-04-02 05:06:00,20.6,17.1,30.06,SW,225,2.0,2.0,86,0.00,,OVC003,0.00,VWS V14.01,2013-04-02 09:06:00,
2013-04-02 05:07:00,20.6,17.1,30.06,SW,225,2.0,2.0,86,0.00,,OVC003,0.00,VWS V14.01,2013-04-02 09:07:00,
2013-04-02 05:08:00,20.6,17.1,30.06,SW,225,2.0,2.0,86,0.00,,OVC003,0.00,VWS V14.01,2013-04-02 09:08:00,
2013-04-02 05:09:00,20.6,17.1,30.06,SW,225,2.0,2.0,86,0.00,,OVC003,0.00,VWS V14.01,2013-04-02 09:09:00,
2013-04-02 05:10:00,20.6,17.1,30.06,SW,225,2.0,0.0,86,0.00,,OVC003,0.00,VWS V14.01,2013-04-02 09:10:00,
2013-04-02 05:11:00,20.6,17.1,30.06,SW,225,2.0,0.0,86,0.00,,OVC003,0.00,VWS V14.01,2013-04-02 09:11:00,
2013-04-02 05:12:00,20.6,17.1,30.06,SW,225,3.0,3.0,86,0.00,,OVC003,0.00,VWS V14.01,2013-04-02 09:12:00,
2013-04-02 05:13:00,20.6,17.1,30.06,SW,225,2.0,2.0,86,0.00,,OVC003,0.00,VWS V14.01,2013-04-02 09:13:00,
2013-04-02 05:14:00,20.6,17.1,30.06,SW,225,2.0,2.0,86,0.00,,OVC003,0.00,VWS V14.01,2013-04-02 09:14:00,
2013-04-02 05:15:00,20.7,17.2,30.06,SW,225,4.0,4.0,86,0.00,,OVC003,0.00,VWS V14.01,2013-04-02 09:15:00,
2013-04-02 05:16:00,20.7,17.2,30.06,SW,225,2.0,2.0,86,0.00,,OVC003,0.00,VWS V14.01,2013-04-02 09:16:00,
2013-04-02 05:17:00,20.7,17.2,30.06,SW,225,2.0,2.0,86,0.00,,OVC003,0.00,VWS V14.01,2013-04-02 09:17:00,
2013-04-02 05:18:00,20.7,17.2,30.06,SW,225,2.0,2.0,86,0.00,,OVC003,0.00,VWS V14.01,2013-04-02 09:18:00,
2013-04-02 05:19:00,20.7,17.2,30.06,SW,225,3.0,3.0,86,0.00,,OVC003,0.00,VWS V14.01,2013-04-02 09:19:00,
2013-04-02 05:20:00,20.7,17.2,30.06,SW,225,2.0,2.0,86,0.00,,OVC003,0.00,VWS V14.01,2013-04-02 09:20:00,
2013-04-02 05:21:00,20.8,17.3,30.06,SW,225,4.0,4.0,86,0.00,,OVC003,0.00,VWS V14.01,2013-04-02 09:21:00,
2013-04-02 05:22:00,20.8,17.3,30.06,SW,225,2.0,3.0,86,0.00,,OVC003,0.00,VWS V14.01,2013-04-02 09:22:00,
2013-04-02 05:23:00,20.8,17.3,30.06,SW,225,5.0,5.0,86,0.00,,OVC003,0.00,VWS V14.01,2013-04-02 09:23:00,
2013-04-02 05:24:00,20.9,17.4,30.06,SW,225,4.0,4.0,86,0.00,,OVC003,0.00,VWS V14.01,2013-04-02 09:24:00,
2013-04-02 05:25:00,20.9,17.4,30.06,SW,225,2.0,4.0,86,0.00,,OVC003,0.00,VWS V14.01,2013-04-02 09:25:00,
2013-04-02 05:26:00,21.0,17.5,30.06,SW,225,4.0,4.0,86,0.00,,OVC003,0.00,VWS V14.01,2013-04-02 09:26:00,
2013-04-02 05:27:00,21.0,17.5,30.06,SW,225,2.0,3.0,86,0.00,,OVC003,0.00,VWS V14.01,2013-04-02 09:27:00,
2013-04-02 05:28:00,21.1,17.6,30.06,SW,225,2.0,3.0,86,0.00,,OVC003,0.00,VWS V14.01,2013-04-02 09:28:00,
2013-04-02 05:29:00,21.1,17.6,30.06,SW,225,3.0,3.0,86,0.00,,OVC003,0.00,VWS V14.01,2013-04-02 09:29:00,
2013-04-02 05:30:00,21.1,17.6,30.06,SW,225,2.0,3.0,86,0.00,,OVC003,0.00,VWS V14.01,2013-04-02 09:30:00,
2013-04-02 05:31:00,21.2,17.7,30.06,SW,225,2.0,2.0,86,0.00,,OVC003,0.00,VWS V14.01,2013-04-02 09:31:00,
2013-04-02 05:32:00,21.2,17.7,30.06,SW,225,4.0,4.0,86,0.00,,OVC003,0.00,VWS V14.01,2013-04-02 09:32:00,
2013-04-02 05:33:00,21.2,17.7,30.06,SSW,208,3.0,4.0,86,0.00,,OVC003,0.00,VWS V14.01,2013-04-02 09:33:00,
2013-04-02 05:34:00,21.3,17.8,30.06,SSW,208,2.0,4.0,86,0.00,,OVC003,0.00,VWS V14.01,2013-04-02 09:34:00,
2013-04-02 05:35:00,21.3,17.8,30.06,SSW,207,3.0,4.0,86,0.00,,OVC003,0.00,VWS V14.01,2013-04-02 09:35:00,
2013-04-02 05:36:00,21.3,17.8,30.06,SSW,207,4.0,4.0,86,0.00,,OVC003,0.00,VWS V14.01,2013-04-02 09:36:00,
2013-04-02 05:37:00,21.3,17.8,30.06,SSW,207,2.0,2.0,86,0.00,,OVC003,0.00,VWS V14.01,2013-04-02 09:37:00,
2013-04-02 05:38:00,21.3,17.8,30.06,SSW,208,2.0,2.0,86,0.00,,OVC003,0.00,VWS V14.01,2013-04-02 09:38:00,
2013-04-02 05:39:00,21.4,17.9,30.06,SSW,209,4.0,4.0,86,0.00,,OVC003,0.00,VWS V14.01,2013-04-02 09:39:00,
2013-04-02 05:40:00,21.4,17.9,30.06,SSW,209,4.0,4.0,86,0.00,,OVC003,0.00,VWS V14.01,2013-04-02 09:40:00,
2013-04-02 05:41:00,21.4,17.9,30.06,SSW,209,4.0,4.0,86,0.00,,OVC003,0.00,VWS V14.01,2013-04-02 09:41:00,
2013-04-02 05:42:00,21.4,17.9,30.06,SSW,209,4.0,4.0,86,0.00,,OVC003,0.00,VWS V14.01,2013-04-02 09:42:00,
2013-04-02 05:43:00,21.5,18.0,30.06,SSW,209,2.0,3.0,86,0.00,,OVC003,0.00,VWS V14.01,2013-04-02 09:43:00,
2013-04-02 05:44:00,21.5,18.0,30.07,SSW,209,2.0,3.0,86,0.00,,OVC003,0.00,VWS V14.01,2013-04-02 09:44:00,
2013-04-02 05:45:00,21.5,18.0,30.07,SSW,209,4.0,4.0,86,0.00,,OVC003,0.00,VWS V14.01,2013-04-02 09:45:00,
2013-04-02 05:46:00,21.5,18.0,30.07,SSW,195,2.0,5.0,86,0.00,,OVC003,0.00,VWS V14.01,2013-04-02 09:46:00,
2013-04-02 05:47:00,21.6,18.1,30.07,SSW,195,2.0,5.0,86,0.00,,OVC003,0.00,VWS V14.01,2013-04-02 09:47:00,
2013-04-02 05:48:00,21.6,18.1,30.07,SSW,195,3.0,5.0,86,0.00,,OVC003,0.00,VWS V14.01,2013-04-02 09:48:00,
2013-04-02 05:49:00,21.6,18.1,30.07,West,260,2.0,5.0,86,0.00,,OVC003,0.00,VWS V14.01,2013-04-02 09:49:00,
2013-04-02 05:50:00,21.6,18.1,30.07,West,261,3.0,5.0,86,0.00,,OVC003,0.00,VWS V14.01,2013-04-02 09:50:00,
2013-04-02 05:51:00,21.7,18.2,30.07,WSW,249,3.0,3.0,86,0.00,,OVC003,0.00,VWS V14.01,2013-04-02 09:51:00,
2013-04-02 05:52:00,21.7,18.2,30.07,WSW,249,3.0,3.0,86,0.00,,OVC003,0.00,VWS V14.01,2013-04-02 09:52:00,
2013-04-02 05:53:00,21.7,17.9,30.07,WSW,249,4.0,4.0,85,0.00,,OVC003,0.00,VWS V14.01,2013-04-02 09:53:00,
2013-04-02 05:54:00,21.8,18.0,30.07,SSW,210,3.0,3.0,85,0.00,,OVC003,0.00,VWS V14.01,2013-04-02 09:54:00,
2013-04-02 05:55:00,21.8,18.3,30.07,SSW,210,3.0,3.0,86,0.00,,OVC003,0.00,VWS V14.01,2013-04-02 09:55:00,
2013-04-02 05:56:00,21.8,18.3,30.07,SSW,210,2.0,2.0,86,0.00,,OVC003,0.00,VWS V14.01,2013-04-02 09:56:00,
2013-04-02 05:57:00,21.8,18.0,30.07,SSW,210,2.0,2.0,85,0.00,,OVC003,0.00,VWS V14.01,2013-04-02 09:57:00,
2013-04-02 05:58:00,21.9,18.1,30.07,SSW,210,3.0,3.0,85,0.00,,OVC003,0.00,VWS V14.01,2013-04-02 09:58:00,
2013-04-02 05:59:00,21.9,18.1,30.07,SSW,210,2.0,2.0,85,0.00,,OVC003,0.00,VWS V14.01,2013-04-02 09:59:00,
2013-04-02 06:00:00,21.9,18.1,30.07,SSW,210,2.0,2.0,85,0.00,,OVC003,0.00,VWS V14.01,2013-04-02 10:00:00,
2013-04-02 06:01:00,21.9,18.1,30.07,SSW,210,2.0,2.0,85,0.00,,OVC003,0.00,VWS V14.01,2013-04-02 10:01:00,
2013-04-02 06:02:00,21.9,18.1,30.07,SSW,210,4.0,4.0,85,0.00,,OVC003,0.00,VWS V14.01,2013-04-02 10:02:00,
2013-04-02 06:03:00,21.9,18.1,30.07,SSW,210,2.0,2.0,85,0.00,,OVC003,0.00,VWS V14.01,2013-04-02 10:03:00,
2013-04-02 06:04:00,22.0,18.2,30.07,SSW,210,3.0,3.0,85,0.00,,OVC003,0.00,VWS V14.01,2013-04-02 10:04:00,
2013-04-02 06:05:00,22.0,18.2,30.07,SSW,210,2.0,2.0,85,0.00,,OVC003,0.00,VWS V14.01,2013-04-02 10:05:00,
2013-04-02 06:06:00,22.0,18.2,30.07,SSW,210,2.0,2.0,85,0.00,,OVC003,0.00,VWS V14.01,2013-04-02 10:06:00,
2013-04-02 06:07:00,22.0,18.2,30.07,SSW,210,2.0,2.0,85,0.00,,OVC003,0.00,VWS V14.01,2013-04-02 10:07:00,
2013-04-02 06:08:00,22.0,18.2,30.07,SSW,210,3.0,3.0,85,0.00,,OVC003,0.00,VWS V14.01,2013-04-02 10:08:00,
2013-04-02 06:09:00,22.0,18.2,30.07,SSW,210,3.0,3.0,85,0.00,,OVC003,0.00,VWS V14.01,2013-04-02 10:09:00,
2013-04-02 06:10:00,22.0,18.2,30.07,SSW,210,3.0,3.0,85,0.00,,OVC003,0.00,VWS V14.01,2013-04-02 10:10:00,
2013-04-02 06:11:00,22.1,18.3,30.07,SSW,210,2.0,3.0,85,0.00,,OVC003,0.00,VWS V14.01,2013-04-02 10:11:00,
2013-04-02 06:12:00,22.1,18.3,30.07,SSW,210,2.0,3.0,85,0.00,,OVC003,0.00,VWS V14.01,2013-04-02 10:12:00,
2013-04-02 06:13:00,22.1,18.3,30.07,SSW,210,2.0,3.0,85,0.00,,OVC003,0.00,VWS V14.01,2013-04-02 10:13:00,
2013-04-02 06:14:00,22.1,18.3,30.07,SSW,210,2.0,3.0,85,0.00,,OVC003,0.00,VWS V14.01,2013-04-02 10:14:00,
2013-04-02 06:15:00,22.1,18.3,30.07,SSW,210,2.0,3.0,85,0.00,,OVC003,0.00,VWS V14.01,2013-04-02 10:15:00,
2013-04-02 06:16:00,22.1,18.3,30.07,SSW,210,3.0,3.0,85,0.00,,OVC003,0.00,VWS V14.01,2013-04-02 10:16:00,
2013-04-02 06:17:00,22.1,18.3,30.07,SSW,210,3.0,3.0,85,0.00,,OVC003,0.00,VWS V14.01,2013-04-02 10:17:00,
2013-04-02 06:18:00,22.2,18.4,30.07,SSW,210,2.0,3.0,85,0.00,,OVC003,0.00,VWS V14.01,2013-04-02 10:18:00,
2013-04-02 06:19:00,22.2,18.4,30.07,SSW,210,2.0,3.0,85,0.00,,OVC003,0.00,VWS V14.01,2013-04-02 10:19:00,
2013-04-02 06:20:00,22.2,18.4,30.07,SSW,210,2.0,3.0,85,0.00,,OVC003,0.00,VWS V14.01,2013-04-02 10:20:00,
2013-04-02 06:21:00,22.2,18.4,30.07,SSW,210,2.0,2.0,85,0.00,,OVC003,0.00,VWS V14.01,2013-04-02 10:21:00,
2013-04-02 06:22:00,22.2,18.4,30.07,SSW,210,2.0,2.0,85,0.00,,OVC003,0.00,VWS V14.01,2013-04-02 10:22:00,
2013-04-02 06:23:00,22.2,18.4,30.07,SSW,210,3.0,3.0,85,0.00,,OVC003,0.00,VWS V14.01,2013-04-02 10:23:00,
2013-04-02 06:24:00,22.3,18.5,30.07,SSW,210,2.0,2.0,85,0.00,,OVC003,0.00,VWS V14.01,2013-04-02 10:24:00,
2013-04-02 06:25:00,22.3,18.5,30.07,SSW,210,2.0,2.0,85,0.00,,OVC003,0.00,VWS V14.01,2013-04-02 10:25:00,
2013-04-02 06:26:00,22.3,18.2,30.07,WSW,252,2.0,3.0,84,0.00,,OVC003,0.00,VWS V14.01,2013-04-02 10:26:00,
2013-04-02 06:27:00,22.4,18.3,30.07,WSW,252,2.0,3.0,84,0.00,,OVC003,0.00,VWS V14.01,2013-04-02 10:27:00,
2013-04-02 06:28:00,22.4,18.3,30.07,WSW,252,2.0,3.0,84,0.00,,OVC003,0.00,VWS V14.01,2013-04-02 10:28:00,
2013-04-02 06:29:00,22.4,18.3,30.08,WSW,252,2.0,3.0,84,0.00,,OVC003,0.00,VWS V14.01,2013-04-02 10:29:00,
2013-04-02 06:30:00,22.4,18.3,30.08,WSW,252,4.0,4.0,84,0.00,,OVC003,0.00,VWS V14.01,2013-04-02 10:30:00,
2013-04-02 06:31:00,22.5,18.4,30.08,WSW,252,2.0,2.0,84,0.00,,OVC003,0.00,VWS V14.01,2013-04-02 10:31:00,
2013-04-02 06:32:00,22.5,18.4,30.08,WSW,252,2.0,2.0,84,0.00,,OVC003,0.00,VWS V14.01,2013-04-02 10:32:00,
2013-04-02 06:33:00,22.5,18.4,30.08,WSW,252,4.0,4.0,84,0.00,,OVC003,0.00,VWS V14.01,2013-04-02 10:33:00,
2013-04-02 06:34:00,22.5,18.4,30.08,WSW,252,2.0,2.0,84,0.00,,OVC003,0.00,VWS V14.01,2013-04-02 10:34:00,
2013-04-02 06:35:00,22.5,18.4,30.08,WSW,252,3.0,3.0,84,0.00,,OVC003,0.00,VWS V14.01,2013-04-02 10:35:00,
2013-04-02 06:36:00,22.6,18.5,30.08,WSW,252,3.0,3.0,84,0.00,,OVC003,0.00,VWS V14.01,2013-04-02 10:36:00,
2013-04-02 06:37:00,22.6,18.5,30.08,WSW,252,2.0,2.0,84,0.00,,OVC003,0.00,VWS V14.01,2013-04-02 10:37:00,
2013-04-02 06:38:00,22.6,18.5,30.08,WSW,252,2.0,2.0,84,0.00,,OVC003,0.00,VWS V14.01,2013-04-02 10:38:00,
2013-04-02 06:40:00,22.6,18.5,30.08,WSW,252,2.0,2.0,84,0.00,,OVC003,0.00,VWS V14.01,2013-04-02 10:40:00,
2013-04-02 06:41:00,22.7,18.6,30.08,WSW,252,2.0,3.0,84,0.00,,OVC003,0.00,VWS V14.01,2013-04-02 10:41:00,
2013-04-02 06:43:00,22.7,18.3,30.08,WSW,252,2.0,3.0,83,0.00,,OVC003,0.00,VWS V14.01,2013-04-02 10:43:00,
2013-04-02 06:44:00,22.7,18.3,30.08,WSW,252,3.0,3.0,83,0.00,,OVC003,0.00,VWS V14.01,2013-04-02 10:44:00,
2013-04-02 06:45:00,22.7,18.3,30.08,WSW,252,2.0,3.0,83,0.00,,OVC003,0.00,VWS V14.01,2013-04-02 10:45:00,
2013-04-02 06:46:00,22.7,18.3,30.08,WSW,252,3.0,3.0,83,0.00,,OVC003,0.00,VWS V14.01,2013-04-02 10:46:00,
2013-04-02 06:47:00,22.8,18.4,30.08,WSW,252,2.0,2.0,83,0.00,,OVC003,0.00,VWS V14.01,2013-04-02 10:47:00,
2013-04-02 06:48:00,22.8,18.4,30.08,WSW,252,4.0,4.0,83,0.00,,OVC003,0.00,VWS V14.01,2013-04-02 10:48:00,
2013-04-02 06:49:00,22.8,18.4,30.08,WSW,240,4.0,4.0,83,0.00,,OVC003,0.00,VWS V14.01,2013-04-02 10:49:00,
2013-04-02 06:50:00,22.8,18.4,30.08,WSW,240,2.0,3.0,83,0.00,,OVC003,0.00,VWS V14.01,2013-04-02 10:50:00,
2013-04-02 06:51:00,22.9,18.5,30.08,WSW,240,3.0,4.0,83,0.00,,OVC003,0.00,VWS V14.01,2013-04-02 10:51:00,
2013-04-02 06:52:00,22.9,18.5,30.08,WSW,240,3.0,4.0,83,0.00,,OVC003,0.00,VWS V14.01,2013-04-02 10:52:00,
2013-04-02 06:53:00,22.9,18.5,30.08,WSW,250,4.0,4.0,83,0.00,,OVC003,0.00,VWS V14.01,2013-04-02 10:53:00,
2013-04-02 06:54:00,22.9,18.5,30.08,SW,226,3.0,4.0,83,0.00,,OVC003,0.00,VWS V14.01,2013-04-02 10:54:00,
2013-04-02 06:55:00,23.0,18.6,30.08,SW,226,2.0,4.0,83,0.00,,OVC003,0.00,VWS V14.01,2013-04-02 10:55:00,
2013-04-02 06:56:00,23.0,18.6,30.08,SW,230,2.0,2.0,83,0.00,,OVC003,0.00,VWS V14.01,2013-04-02 10:56:00,
2013-04-02 06:57:00,23.0,18.3,30.08,SW,230,3.0,3.0,82,0.00,,OVC003,0.00,VWS V14.01,2013-04-02 10:57:00,
2013-04-02 06:58:00,23.1,18.4,30.08,SW,230,2.0,2.0,82,0.00,,OVC003,0.00,VWS V14.01,2013-04-02 10:58:00,
2013-04-02 06:59:00,23.1,18.4,30.08,SW,230,2.0,4.0,82,0.00,,OVC003,0.00,VWS V14.01,2013-04-02 10:59:00,
2013-04-02 07:00:00,23.1,18.4,30.09,WSW,243,3.0,4.0,82,0.00,,OVC003,0.00,VWS V14.01,2013-04-02 11:00:00,
2013-04-02 07:01:00,23.1,18.4,30.09,WSW,243,4.0,4.0,82,0.00,,OVC003,0.00,VWS V14.01,2013-04-02 11:01:00,
2013-04-02 07:02:00,23.2,18.5,30.09,SSW,213,3.0,5.0,82,0.00,,OVC003,0.00,VWS V14.01,2013-04-02 11:02:00,
2013-04-02 07:03:00,23.2,18.2,30.09,NW,312,4.0,5.0,81,0.00,,OVC003,0.00,VWS V14.01,2013-04-02 11:03:00,
2013-04-02 07:04:00,23.3,18.3,30.09,NW,312,6.0,6.0,81,0.00,,OVC003,0.00,VWS V14.01,2013-04-02 11:04:00,
2013-04-02 07:05:00,23.3,18.3,30.09,WSW,255,4.0,5.0,81,0.00,,OVC003,0.00,VWS V14.01,2013-04-02 11:05:00,
2013-04-02 07:06:00,23.4,18.4,30.09,WSW,255,2.0,2.0,81,0.00,,OVC003,0.00,VWS V14.01,2013-04-02 11:06:00,
2013-04-02 07:07:00,23.4,18.4,30.09,SW,218,6.0,6.0,81,0.00,,OVC003,0.00,VWS V14.01,2013-04-02 11:07:00,
2013-04-02 07:08:00,23.4,18.4,30.09,SSW,209,4.0,5.0,81,0.00,,OVC003,0.00,VWS V14.01,2013-04-02 11:08:00,
2013-04-02 07:09:00,23.5,18.5,30.09,SW,235,6.0,6.0,81,0.00,,OVC003,0.00,VWS V14.01,2013-04-02 11:09:00,
2013-04-02 07:10:00,23.5,18.2,30.09,SW,224,7.0,7.0,80,0.00,,OVC003,0.00,VWS V14.01,2013-04-02 11:10:00,
2013-04-02 07:11:00,23.6,18.4,30.09,SW,220,3.0,5.0,80,0.00,,OVC003,0.00,VWS V14.01,2013-04-02 11:11:00,
2013-04-02 07:12:00,23.6,18.4,30.09,SW,220,3.0,5.0,80,0.00,,OVC003,0.00,VWS V14.01,2013-04-02 11:12:00,
2013-04-02 07:13:00,23.7,18.5,30.09,SW,220,3.0,5.0,80,0.00,,OVC003,0.00,VWS V14.01,2013-04-02 11:13:00,
2013-04-02 07:14:00,23.8,18.5,30.09,SW,218,5.0,5.0,80,0.00,,OVC003,0.00,VWS V14.01,2013-04-02 11:14:00,
2013-04-02 07:15:00,23.9,18.4,30.09,SSW,213,5.0,5.0,79,0.00,,OVC003,0.00,VWS V14.01,2013-04-02 11:15:00,
2013-04-02 07:16:00,23.9,18.4,30.09,SW,225,4.0,4.0,79,0.00,,OVC003,0.00,VWS V14.01,2013-04-02 11:16:00,
2013-04-02 07:17:00,24.0,18.5,30.09,SW,218,4.0,4.0,79,0.00,,OVC003,0.00,VWS V14.01,2013-04-02 11:17:00,
2013-04-02 07:18:00,24.0,18.5,30.09,SW,226,3.0,4.0,79,0.00,,OVC003,0.00,VWS V14.01,2013-04-02 11:18:00,
2013-04-02 07:19:00,24.1,18.5,30.09,SW,225,3.0,4.0,79,0.00,,OVC003,0.00,VWS V14.01,2013-04-02 11:19:00,
2013-04-02 07:20:00,24.2,18.6,30.09,SW,228,2.0,4.0,79,0.00,,OVC003,0.00,VWS V14.01,2013-04-02 11:20:00,
2013-04-02 07:21:00,24.3,18.4,30.09,WSW,238,7.0,7.0,78,0.00,,OVC003,0.00,VWS V14.01,2013-04-02 11:21:00,
2013-04-02 07:22:00,24.3,18.4,30.09,WSW,237,5.0,5.0,78,0.00,,OVC003,0.00,VWS V14.01,2013-04-02 11:22:00,
2013-04-02 07:23:00,24.4,18.5,30.09,SW,226,3.0,5.0,78,0.00,,OVC003,0.00,VWS V14.01,2013-04-02 11:23:00,
2013-04-02 07:24:00,24.5,18.3,30.09,SW,226,4.0,5.0,77,0.00,,OVC003,0.00,VWS V14.01,2013-04-02 11:24:00,
2013-04-02 07:25:00,24.5,18.3,30.09,WNW,291,4.0,5.0,77,0.00,,OVC003,0.00,VWS V14.01,2013-04-02 11:25:00,
2013-04-02 07:26:00,24.6,18.4,30.09,SW,221,3.0,3.0,77,0.00,,OVC003,0.00,VWS V14.01,2013-04-02 11:26:00,
2013-04-02 07:27:00,24.7,18.5,30.09,SSW,207,5.0,5.0,77,0.00,,OVC003,0.00,VWS V14.01,2013-04-02 11:27:00,
2013-04-02 07:28:00,24.8,18.3,30.09,WSW,250,7.0,7.0,76,0.00,,OVC003,0.00,VWS V14.01,2013-04-02 11:28:00,
2013-04-02 07:29:00,24.8,18.3,30.09,SW,218,4.0,6.0,76,0.00,,OVC003,0.00,VWS V14.01,2013-04-02 11:29:00,
2013-04-02 07:30:00,24.9,18.4,30.09,SW,218,4.0,6.0,76,0.00,,OVC003,0.00,VWS V14.01,2013-04-02 11:30:00,
2013-04-02 07:32:00,25.1,18.3,30.09,West,278,4.0,4.0,75,0.00,,OVC003,0.00,VWS V14.01,2013-04-02 11:32:00,
2013-04-02 07:33:00,25.1,18.3,30.09,WSW,244,6.0,6.0,75,0.00,,OVC003,0.00,VWS V14.01,2013-04-02 11:33:00,
2013-04-02 07:34:00,25.2,18.4,30.09,SSW,209,5.0,6.0,75,0.00,,OVC003,0.00,VWS V14.01,2013-04-02 11:34:00,
2013-04-02 07:35:00,25.3,18.2,30.09,SW,231,4.0,6.0,74,0.00,,OVC003,0.00,VWS V14.01,2013-04-02 11:35:00,
2013-04-02 07:36:00,25.4,18.3,30.09,NW,307,2.0,2.0,74,0.00,,OVC003,0.00,VWS V14.01,2013-04-02 11:36:00,
2013-04-02 07:37:00,25.5,18.4,30.09,NW,307,3.0,3.0,74,0.00,,OVC003,0.00,VWS V14.01,2013-04-02 11:37:00,
2013-04-02 07:38:00,25.6,18.5,30.09,WNW,286,5.0,5.0,74,0.00,,OVC003,0.00,VWS V14.01,2013-04-02 11:38:00,
2013-04-02 07:40:00,25.7,18.3,30.09,SSW,206,4.0,5.0,73,0.00,,OVC003,0.00,VWS V14.01,2013-04-02 11:40:00,
2013-04-02 07:42:00,25.9,18.1,30.09,West,263,6.0,7.0,72,0.00,,OVC003,0.00,VWS V14.01,2013-04-02 11:42:00,
2013-04-02 07:45:00,26.1,18.3,30.09,South,186,5.0,7.0,72,0.00,,OVC003,0.00,VWS V14.01,2013-04-02 11:45:00,
2013-04-02 07:50:00,26.4,18.0,30.09,WNW,285,3.0,5.0,70,0.00,,OVC003,0.00,VWS V14.01,2013-04-02 11:50:00,
2013-04-02 07:51:00,26.5,18.0,30.09,NNW,339,5.0,5.0,70,0.00,,OVC003,0.00,VWS V14.01,2013-04-02 11:51:00,
2013-04-02 07:52:00,26.6,18.1,30.09,NW,304,4.0,4.0,70,0.00,,OVC003,0.00,VWS V14.01,2013-04-02 11:52:00,
2013-04-02 07:54:00,26.8,18.0,30.09,WNW,303,2.0,3.0,69,0.00,,OVC003,0.00,VWS V14.01,2013-04-02 11:54:00,
2013-04-02 07:55:00,26.8,18.0,30.09,West,266,5.0,5.0,69,0.00,,OVC003,0.00,VWS V14.01,2013-04-02 11:55:00,
2013-04-02 07:57:00,27.0,18.2,30.09,West,266,6.0,6.0,69,0.00,,OVC003,0.00,VWS V14.01,2013-04-02 11:57:00,
2013-04-02 07:59:00,27.2,17.7,30.10,WSW,251,3.0,9.0,67,0.00,,OVC003,0.00,VWS V14.01,2013-04-02 11:59:00,
2013-04-02 08:00:00,27.2,17.7,30.10,West,261,3.0,9.0,67,0.00,,OVC003,0.00,VWS V14.01,2013-04-02 12:00:00,
2013-04-02 08:03:00,27.5,18.0,30.10,NNW,336,5.0,5.0,67,0.00,,OVC003,0.00,VWS V14.01,2013-04-02 12:03:00,
2013-04-02 08:05:00,27.6,17.7,30.10,West,271,4.0,5.0,66,0.00,,OVC003,0.00,VWS V14.01,2013-04-02 12:05:00,
2013-04-02 08:06:00,27.8,17.9,30.10,SSW,205,2.0,5.0,66,0.00,,OVC003,0.00,VWS V14.01,2013-04-02 12:06:00,
2013-04-02 08:08:00,27.9,17.7,30.10,WSW,240,4.0,5.0,65,0.00,,OVC003,0.00,VWS V14.01,2013-04-02 12:08:00,
2013-04-02 08:10:00,28.0,17.4,30.10,WNW,290,4.0,6.0,64,0.00,,OVC003,0.00,VWS V14.01,2013-04-02 12:10:00,
2013-04-02 08:11:00,28.1,17.5,30.10,WNW,297,5.0,6.0,64,0.00,,OVC003,0.00,VWS V14.01,2013-04-02 12:11:00,
2013-04-02 08:12:00,28.1,17.5,30.10,West,281,3.0,6.0,64,0.00,,OVC003,0.00,VWS V14.01,2013-04-02 12:12:00,
2013-04-02 08:13:00,28.2,17.6,30.10,West,280,2.0,6.0,64,0.00,,OVC003,0.00,VWS V14.01,2013-04-02 12:13:00,
2013-04-02 08:14:00,28.3,17.7,30.10,West,280,2.0,6.0,64,0.00,,OVC003,0.00,VWS V14.01,2013-04-02 12:14:00,
2013-04-02 08:15:00,28.3,17.7,30.10,West,280,5.0,6.0,64,0.00,,OVC003,0.00,VWS V14.01,2013-04-02 12:15:00,
2013-04-02 08:16:00,28.5,17.9,30.10,West,268,5.0,5.0,64,0.00,,OVC003,0.00,VWS V14.01,2013-04-02 12:16:00,
2013-04-02 08:17:00,28.5,17.9,30.10,WNW,301,6.0,6.0,64,0.00,,OVC003,0.00,VWS V14.01,2013-04-02 12:17:00,
2013-04-02 08:18:00,28.7,17.7,30.10,SW,231,2.0,6.0,63,0.00,,OVC003,0.00,VWS V14.01,2013-04-02 12:18:00,
2013-04-02 08:19:00,28.8,17.8,30.10,SW,214,2.0,6.0,63,0.00,,OVC003,0.00,VWS V14.01,2013-04-02 12:19:00,
2013-04-02 08:20:00,28.8,17.8,30.10,West,276,3.0,6.0,63,0.00,,OVC003,0.00,VWS V14.01,2013-04-02 12:20:00,
2013-04-02 08:22:00,28.9,17.5,30.10,SSW,207,4.0,6.0,62,0.00,,OVC003,0.00,VWS V14.01,2013-04-02 12:22:00,
2013-04-02 08:23:00,29.0,17.6,30.10,WSW,252,6.0,6.0,62,0.00,,OVC003,0.00,VWS V14.01,2013-04-02 12:23:00,
2013-04-02 08:24:00,29.0,17.2,30.10,West,280,3.0,6.0,61,0.00,,OVC003,0.00,VWS V14.01,2013-04-02 12:24:00,
2013-04-02 08:25:00,29.0,17.6,30.10,West,280,3.0,6.0,62,0.00,,OVC003,0.00,VWS V14.01,2013-04-02 12:25:00,
2013-04-02 08:26:00,29.1,17.3,30.10,West,272,4.0,4.0,61,0.00,,OVC003,0.00,VWS V14.01,2013-04-02 12:26:00,
2013-04-02 08:27:00,29.2,17.4,30.10,SW,219,3.0,3.0,61,0.00,,OVC003,0.00,VWS V14.01,2013-04-02 12:27:00,
2013-04-02 08:28:00,29.2,17.4,30.10,NNW,335,6.0,6.0,61,0.00,,OVC003,0.00,VWS V14.01,2013-04-02 12:28:00,
2013-04-02 08:29:00,29.3,17.5,30.10,NNW,335,2.0,4.0,61,0.00,,OVC003,0.00,VWS V14.01,2013-04-02 12:29:00,
2013-04-02 08:30:00,29.3,17.1,30.10,NNW,335,2.0,4.0,60,0.00,,OVC003,0.00,VWS V14.01,2013-04-02 12:30:00,
2013-04-02 08:31:00,29.4,17.6,30.10,West,275,6.0,6.0,61,0.00,,OVC003,0.00,VWS V14.01,2013-04-02 12:31:00,
2013-04-02 08:32:00,29.4,17.6,30.10,West,276,2.0,5.0,61,0.00,,OVC003,0.00,VWS V14.01,2013-04-02 12:32:00,
2013-04-02 08:33:00,29.5,17.7,30.10,West,275,2.0,5.0,61,0.00,,OVC003,0.00,VWS V14.01,2013-04-02 12:33:00,
2013-04-02 08:34:00,29.5,17.7,30.10,West,275,4.0,5.0,61,0.00,,OVC003,0.00,VWS V14.01,2013-04-02 12:34:00,
2013-04-02 08:35:00,29.6,17.8,30.10,West,275,4.0,5.0,61,0.00,,OVC003,0.00,VWS V14.01,2013-04-02 12:35:00,
2013-04-02 08:36:00,29.7,17.9,30.10,West,278,5.0,5.0,61,0.00,,OVC003,0.00,VWS V14.01,2013-04-02 12:36:00,
2013-04-02 08:37:00,25.0,18.2,30.09,SW,218,4.0,4.0,75,0.00,,OVC003,0.00,VWS V14.01,2013-04-02 12:37:00,
2013-04-02 08:38:00,29.8,17.6,30.10,West,261,3.0,4.0,60,0.00,,OVC003,0.00,VWS V14.01,2013-04-02 12:38:00,
2013-04-02 08:39:00,29.9,17.7,30.10,NW,317,5.0,5.0,60,0.00,,OVC003,0.00,VWS V14.01,2013-04-02 12:39:00,
2013-04-02 08:40:00,30.0,17.8,30.10,SSW,193,8.0,8.0,60,0.00,,OVC003,0.00,VWS V14.01,2013-04-02 12:40:00,
2013-04-02 08:41:00,30.1,17.5,30.10,SW,228,4.0,9.0,59,0.00,,OVC003,0.00,VWS V14.01,2013-04-02 12:41:00,
2013-04-02 08:42:00,30.1,17.1,30.10,SW,227,5.0,9.0,58,0.00,,OVC003,0.00,VWS V14.01,2013-04-02 12:42:00,
2013-04-02 08:43:00,30.2,17.2,30.10,SW,234,3.0,9.0,58,0.00,,OVC003,0.00,VWS V14.01,2013-04-02 12:43:00,
2013-04-02 08:44:00,30.2,17.6,30.10,West,259,4.0,9.0,59,0.00,,OVC003,0.00,VWS V14.01,2013-04-02 12:44:00,
2013-04-02 08:45:00,25.7,18.6,30.09,SW,225,3.0,5.0,74,0.00,,OVC003,0.00,VWS V14.01,2013-04-02 12:45:00,
2013-04-02 08:46:00,30.3,17.7,30.10,WSW,245,2.0,6.0,59,0.00,,OVC003,0.00,VWS V14.01,2013-04-02 12:46:00,
2013-04-02 08:47:00,30.4,17.8,30.10,West,266,3.0,6.0,59,0.00,,OVC003,0.00,VWS V14.01,2013-04-02 12:47:00,
2013-04-02 08:48:00,30.4,17.4,30.10,West,266,4.0,6.0,58,0.00,,OVC003,0.00,VWS V14.01,2013-04-02 12:48:00,
2013-04-02 08:49:00,30.5,17.5,30.10,WSW,241,2.0,6.0,58,0.00,,OVC003,0.00,VWS V14.01,2013-04-02 12:49:00,
2013-04-02 08:50:00,26.1,18.3,30.09,West,275,3.0,7.0,72,0.00,,OVC003,0.00,VWS V14.01,2013-04-02 12:50:00,
2013-04-02 08:51:00,30.6,17.6,30.10,WNW,299,5.0,5.0,58,0.00,,OVC003,0.00,VWS V14.01,2013-04-02 12:51:00,
2013-04-02 08:52:00,30.7,17.3,30.10,West,267,5.0,5.0,57,0.00,,OVC003,0.00,VWS V14.01,2013-04-02 12:52:00,
2013-04-02 08:53:00,30.7,17.7,30.10,NNE,13,5.0,5.0,58,0.00,,OVC003,0.00,VWS V14.01,2013-04-02 12:53:00,
2013-04-02 08:54:00,30.8,17.4,30.10,NE,46,3.0,5.0,57,0.00,,OVC003,0.00,VWS V14.01,2013-04-02 12:54:00,
2013-04-02 08:55:00,30.8,17.4,30.10,NNW,335,5.0,5.0,57,0.00,,OVC003,0.00,VWS V14.01,2013-04-02 12:55:00,
2013-04-02 08:56:00,26.3,17.9,30.09,WNW,285,4.0,5.0,70,0.00,,OVC003,0.00,VWS V14.01,2013-04-02 12:56:00,
2013-04-02 08:57:00,31.0,17.6,30.10,WNW,300,3.0,3.0,57,0.00,,OVC003,0.00,VWS V14.01,2013-04-02 12:57:00,
2013-04-02 08:58:00,31.1,17.2,30.10,SSW,209,7.0,7.0,56,0.00,,OVC003,0.00,VWS V14.01,2013-04-02 12:58:00,
2013-04-02 08:59:00,31.1,17.2,30.10,North,351,6.0,7.0,56,0.00,,OVC003,0.00,VWS V14.01,2013-04-02 12:59:00,
2013-04-02 09:00:00,31.1,17.2,30.10,SSW,210,6.0,7.0,56,0.00,,OVC003,0.00,VWS V14.01,2013-04-02 13:00:00,
2013-04-02 09:01:00,31.1,16.8,30.10,WSW,238,4.0,4.0,55,0.00,,OVC003,0.00,VWS V14.01,2013-04-02 13:01:00,
2013-04-02 09:02:00,31.1,16.8,30.10,ENE,77,3.0,5.0,55,0.00,,OVC003,0.00,VWS V14.01,2013-04-02 13:02:00,
2013-04-02 09:03:00,26.9,18.1,30.09,WNW,302,2.0,4.0,69,0.00,,OVC003,0.00,VWS V14.01,2013-04-02 13:03:00,
2013-04-02 09:04:00,31.3,17.0,30.10,NW,305,6.0,6.0,55,0.00,,OVC003,0.00,VWS V14.01,2013-04-02 13:04:00,
2013-04-02 09:05:00,31.3,17.0,30.10,NNW,334,6.0,6.0,55,0.00,,OVC003,0.00,VWS V14.01,2013-04-02 13:05:00,
2013-04-02 09:06:00,31.4,16.7,30.10,NW,312,4.0,5.0,54,0.00,,OVC003,0.00,VWS V14.01,2013-04-02 13:06:00,
2013-04-02 09:07:00,31.4,16.7,30.10,NNW,329,2.0,5.0,54,0.00,,OVC003,0.00,VWS V14.01,2013-04-02 13:07:00,
2013-04-02 09:08:00,27.3,17.8,30.10,WSW,252,5.0,5.0,67,0.00,,OVC003,0.00,VWS V14.01,2013-04-02 13:08:00,
2013-04-02 09:09:00,31.5,16.4,30.10,WNW,284,4.0,5.0,53,0.00,,OVC003,0.00,VWS V14.01,2013-04-02 13:09:00,
2013-04-02 09:10:00,31.5,16.4,30.10,WNW,295,5.0,5.0,53,0.00,,OVC003,0.00,VWS V14.01,2013-04-02 13:10:00,
2013-04-02 09:11:00,31.6,16.5,30.10,NW,317,4.0,5.0,53,0.00,,OVC003,0.00,VWS V14.01,2013-04-02 13:11:00,
2013-04-02 09:12:00,31.7,16.5,30.10,West,275,6.0,6.0,53,0.00,,OVC003,0.00,VWS V14.01,2013-04-02 13:12:00,
2013-04-02 09:13:00,31.7,16.5,30.10,SE,132,4.0,6.0,53,0.00,,OVC003,0.00,VWS V14.01,2013-04-02 13:13:00,
2013-04-02 09:14:00,27.8,17.9,30.10,WSW,240,3.0,5.0,66,0.00,,OVC003,0.00,VWS V14.01,2013-04-02 13:14:00,
2013-04-02 09:15:00,31.8,16.2,30.10,WSW,255,3.0,6.0,52,0.00,,OVC003,0.00,VWS V14.01,2013-04-02 13:15:00,
2013-04-02 09:16:00,31.8,16.2,30.10,North,357,5.0,6.0,52,0.00,,OVC003,0.00,VWS V14.01,2013-04-02 13:16:00,
2013-04-02 09:17:00,31.8,16.2,30.10,NW,307,5.0,6.0,52,0.00,,OVC003,0.00,VWS V14.01,2013-04-02 13:17:00,
2013-04-02 09:18:00,31.8,16.2,30.10,NNW,343,3.0,6.0,52,0.00,,OVC003,0.00,VWS V14.01,2013-04-02 13:18:00,
2013-04-02 09:19:00,31.7,16.1,30.10,WSW,243,2.0,6.0,52,0.00,,OVC003,0.00,VWS V14.01,2013-04-02 13:19:00,
2013-04-02 09:20:00,31.7,16.1,30.10,WSW,243,3.0,6.0,52,0.00,,OVC003,0.00,VWS V14.01,2013-04-02 13:20:00,
2013-04-02 09:21:00,31.7,16.1,30.10,WNW,282,3.0,4.0,52,0.00,,OVC003,0.00,VWS V14.01,2013-04-02 13:21:00,
2013-04-02 09:22:00,31.7,16.1,30.10,NNW,336,4.0,4.0,52,0.00,,OVC003,0.00,VWS V14.01,2013-04-02 13:22:00,
2013-04-02 09:23:00,31.7,16.1,30.10,WSW,256,6.0,6.0,52,0.00,,OVC003,0.00,VWS V14.01,2013-04-02 13:23:00,
2013-04-02 09:25:00,31.7,16.1,30.10,North,1,6.0,6.0,52,0.00,,OVC003,0.00,VWS V14.01,2013-04-02 13:25:00,
2013-04-02 09:26:00,31.9,15.8,30.10,SW,218,4.0,5.0,51,0.00,,OVC003,0.00,VWS V14.01,2013-04-02 13:26:00,
2013-04-02 09:27:00,32.0,15.9,30.10,SW,218,4.0,5.0,51,0.00,,OVC003,0.00,VWS V14.01,2013-04-02 13:27:00,
2013-04-02 09:28:00,32.1,16.5,30.10,WNW,295,4.0,5.0,52,0.00,,OVC003,0.00,VWS V14.01,2013-04-02 13:28:00,
2013-04-02 09:30:00,32.2,15.2,30.10,NW,317,5.0,9.0,49,0.00,,OVC003,0.00,VWS V14.01,2013-04-02 13:30:00,
2013-04-02 09:31:00,32.2,14.7,30.10,North,4,5.0,10.0,48,0.00,,OVC003,0.00,VWS V14.01,2013-04-02 13:31:00,
2013-04-02 09:32:00,32.2,14.2,30.10,NNE,33,3.0,10.0,47,0.00,,OVC003,0.00,VWS V14.01,2013-04-02 13:32:00,
2013-04-02 09:33:00,32.2,14.2,30.10,WNW,302,3.0,10.0,47,0.00,,OVC003,0.00,VWS V14.01,2013-04-02 13:33:00,
2013-04-02 09:34:00,32.2,14.2,30.10,NW,317,5.0,10.0,47,0.00,,OVC003,0.00,VWS V14.01,2013-04-02 13:34:00,
2013-04-02 09:35:00,32.1,14.2,30.10,WSW,247,4.0,10.0,47,0.00,,OVC003,0.00,VWS V14.01,2013-04-02 13:35:00,
2013-04-02 09:36:00,32.2,14.2,30.10,WSW,249,2.0,6.0,47,0.00,,OVC003,0.00,VWS V14.01,2013-04-02 13:36:00,
2013-04-02 09:37:00,32.2,14.2,30.10,WSW,249,2.0,6.0,47,0.00,,OVC003,0.00,VWS V14.01,2013-04-02 13:37:00,
2013-04-02 09:38:00,32.2,14.7,30.10,WSW,250,2.0,6.0,48,0.00,,OVC003,0.00,VWS V14.01,2013-04-02 13:38:00,
2013-04-02 09:39:00,32.3,15.3,30.10,West,266,4.0,6.0,49,0.00,,OVC003,0.00,VWS V14.01,2013-04-02 13:39:00,
2013-04-02 09:40:00,32.4,14.9,30.10,West,275,4.0,7.0,48,0.00,,OVC003,0.00,VWS V14.01,2013-04-02 13:40:00,
2013-04-02 09:41:00,32.5,15.0,30.10,NNW,336,5.0,5.0,48,0.00,,OVC003,0.00,VWS V14.01,2013-04-02 13:41:00,
2013-04-02 09:42:00,32.6,14.1,30.10,NW,322,6.0,8.0,46,0.00,,OVC003,0.00,VWS V14.01,2013-04-02 13:42:00,
2013-04-02 09:43:00,32.6,13.6,30.10,NNW,328,4.0,8.0,45,0.00,,OVC003,0.00,VWS V14.01,2013-04-02 13:43:00,
2013-04-02 09:44:00,32.6,13.6,30.10,NNW,340,7.0,8.0,45,0.00,,OVC003,0.00,VWS V14.01,2013-04-02 13:44:00,
2013-04-02 09:45:00,32.6,13.1,30.10,ENE,62,3.0,8.0,44,0.00,,OVC003,0.00,VWS V14.01,2013-04-02 13:45:00,
2013-04-02 09:46:00,32.7,13.7,30.10,NW,312,2.0,2.0,45,0.00,,OVC003,0.00,VWS V14.01,2013-04-02 13:46:00,
2013-04-02 09:47:00,32.7,13.7,30.10,West,263,6.0,6.0,45,0.00,,OVC003,0.00,VWS V14.01,2013-04-02 13:47:00,
2013-04-02 09:48:00,32.6,13.1,30.10,WNW,291,4.0,6.0,44,0.00,,OVC003,0.00,VWS V14.01,2013-04-02 13:48:00,
2013-04-02 09:49:00,32.6,12.6,30.10,NW,317,6.0,6.0,43,0.00,,OVC003,0.00,VWS V14.01,2013-04-02 13:49:00,
2013-04-02 09:50:00,32.5,12.5,30.10,NW,312,5.0,6.0,43,0.00,,OVC003,0.00,VWS V14.01,2013-04-02 13:50:00,
2013-04-02 09:51:00,32.5,12.5,30.10,East,91,3.0,4.0,43,0.00,,OVC003,0.00,VWS V14.01,2013-04-02 13:51:00,
2013-04-02 09:52:00,32.4,12.4,30.10,West,272,4.0,4.0,43,0.00,,OVC003,0.00,VWS V14.01,2013-04-02 13:52:00,
2013-04-02 09:53:00,32.5,12.5,30.10,West,276,4.0,4.0,43,0.00,,OVC003,0.00,VWS V14.01,2013-04-02 13:53:00,
2013-04-02 09:54:00,32.6,13.1,30.10,SW,234,6.0,6.0,44,0.00,,OVC003,0.00,VWS V14.01,2013-04-02 13:54:00,
2013-04-02 09:55:00,32.7,13.7,30.10,WNW,303,6.0,6.0,45,0.00,,OVC003,0.00,VWS V14.01,2013-04-02 13:55:00,
2013-04-02 09:56:00,32.8,13.3,30.10,WNW,284,5.0,5.0,44,0.00,,OVC003,0.00,VWS V14.01,2013-04-02 13:56:00,
2013-04-02 09:57:00,33.0,13.5,30.10,WNW,287,2.0,5.0,44,0.00,,OVC003,0.00,VWS V14.01,2013-04-02 13:57:00,
2013-04-02 09:58:00,33.2,13.7,30.10,WSW,238,9.0,9.0,44,0.00,,OVC003,0.00,VWS V14.01,2013-04-02 13:58:00,
2013-04-02 09:59:00,33.3,13.8,30.10,WNW,295,2.0,7.0,44,0.00,,OVC003,0.00,VWS V14.01,2013-04-02 13:59:00,
2013-04-02 10:00:00,33.4,13.9,30.10,East,93,5.0,7.0,44,0.00,,OVC003,0.00,VWS V14.01,2013-04-02 14:00:00,
2013-04-02 10:01:00,33.5,14.4,30.10,SSW,209,4.0,5.0,45,0.00,,OVC003,0.00,VWS V14.01,2013-04-02 14:01:00,
2013-04-02 10:02:00,33.7,14.6,30.10,NNW,336,3.0,5.0,45,0.00,,OVC003,0.00,VWS V14.01,2013-04-02 14:02:00,
2013-04-02 10:03:00,33.8,14.7,30.10,WNW,303,4.0,5.0,45,0.00,,OVC003,0.00,VWS V14.01,2013-04-02 14:03:00,
2013-04-02 10:04:00,33.9,14.3,30.10,SSW,197,7.0,11.0,44,0.00,,OVC003,0.00,VWS V14.01,2013-04-02 14:04:00,
2013-04-02 10:05:00,33.9,14.8,30.10,WSW,256,6.0,11.0,45,0.00,,OVC003,0.00,VWS V14.01,2013-04-02 14:05:00,
2013-04-02 10:06:00,33.9,14.8,30.10,SSE,153,8.0,8.0,45,0.00,,OVC003,0.00,VWS V14.01,2013-04-02 14:06:00,
2013-04-02 10:07:00,33.9,14.8,30.10,WSW,246,4.0,7.0,45,0.00,,OVC003,0.00,VWS V14.01,2013-04-02 14:07:00,
2013-04-02 10:08:00,33.9,14.8,30.10,SSW,206,4.0,7.0,45,0.00,,OVC003,0.00,VWS V14.01,2013-04-02 14:08:00,
2013-04-02 10:09:00,33.9,14.8,30.10,SW,214,6.0,9.0,45,0.00,,OVC003,0.00,VWS V14.01,2013-04-02 14:09:00,
2013-04-02 10:10:00,33.9,14.8,30.10,West,272,13.0,16.0,45,0.00,,OVC003,0.00,VWS V14.01,2013-04-02 14:10:00,
2013-04-02 10:11:00,33.8,14.2,30.10,NNW,328,6.0,11.0,44,0.00,,OVC003,0.00,VWS V14.01,2013-04-02 14:11:00,
2013-04-02 10:12:00,33.7,14.1,30.10,WNW,293,5.0,11.0,44,0.00,,OVC003,0.00,VWS V14.01,2013-04-02 14:12:00,
2013-04-02 10:13:00,33.7,14.1,30.10,WNW,287,6.0,11.0,44,0.00,,OVC003,0.00,VWS V14.01,2013-04-02 14:13:00,
2013-04-02 10:14:00,33.7,14.1,30.10,SW,220,4.0,11.0,44,0.00,,OVC003,0.00,VWS V14.01,2013-04-02 14:14:00,
2013-04-02 10:15:00,33.5,13.9,30.10,WNW,289,4.0,11.0,44,0.00,,OVC003,0.00,VWS V14.01,2013-04-02 14:15:00,
2013-04-02 10:16:00,33.5,13.9,30.10,SW,220,3.0,7.0,44,0.00,,OVC003,0.00,VWS V14.01,2013-04-02 14:16:00,
2013-04-02 10:17:00,33.5,13.9,30.10,SSW,211,5.0,7.0,44,0.00,,OVC003,0.00,VWS V14.01,2013-04-02 14:17:00,
2013-04-02 10:18:00,33.5,14.4,30.10,WNW,286,8.0,8.0,45,0.00,,OVC003,0.00,VWS V14.01,2013-04-02 14:18:00,
2013-04-02 10:19:00,33.6,14.5,30.10,West,276,6.0,7.0,45,0.00,,OVC003,0.00,VWS V14.01,2013-04-02 14:19:00,
2013-04-02 10:20:00,33.7,14.6,30.10,West,272,3.0,7.0,45,0.00,,OVC003,0.00,VWS V14.01,2013-04-02 14:20:00,
2013-04-02 10:21:00,33.8,16.2,30.10,SE,145,3.0,7.0,48,0.00,,OVC003,0.00,VWS V14.01,2013-04-02 14:21:00,
2013-04-02 10:22:00,34.0,14.9,30.10,ESE,121,4.0,7.0,45,0.00,,OVC003,0.00,VWS V14.01,2013-04-02 14:22:00,
2013-04-02 10:24:00,34.4,14.8,30.10,West,275,5.0,11.0,44,0.00,,OVC003,0.00,VWS V14.01,2013-04-02 14:24:00,
2013-04-02 10:25:00,34.4,14.2,30.10,WSW,255,4.0,4.0,43,0.00,,OVC003,0.00,VWS V14.01,2013-04-02 14:25:00,
2013-04-02 10:27:00,34.4,14.8,30.10,WNW,285,5.0,6.0,44,0.00,,OVC003,0.00,VWS V14.01,2013-04-02 14:27:00,
2013-04-02 10:29:00,34.4,13.7,30.10,NW,317,7.0,10.0,42,0.00,,OVC003,0.00,VWS V14.01,2013-04-02 14:29:00,
2013-04-02 10:30:00,34.4,13.7,30.10,WSW,241,5.0,10.0,42,0.00,,OVC003,0.00,VWS V14.01,2013-04-02 14:30:00,
2013-04-02 10:31:00,34.4,13.7,30.10,NW,305,5.0,10.0,42,0.00,,OVC003,0.00,VWS V14.01,2013-04-02 14:31:00,
2013-04-02 10:32:00,34.2,13.5,30.10,NW,322,4.0,10.0,42,0.00,,OVC003,0.00,VWS V14.01,2013-04-02 14:32:00,
2013-04-02 10:33:00,34.1,13.4,30.10,SW,218,5.0,10.0,42,0.00,,OVC003,0.00,VWS V14.01,2013-04-02 14:33:00,
2013-04-02 10:34:00,34.0,13.9,30.10,SW,232,8.0,10.0,43,0.00,,OVC003,0.00,VWS V14.01,2013-04-02 14:34:00,
2013-04-02 10:35:00,34.0,13.9,30.10,WNW,288,7.0,10.0,43,0.00,,OVC003,0.00,VWS V14.01,2013-04-02 14:35:00,
2013-04-02 10:36:00,34.0,13.3,30.10,SW,218,7.0,9.0,42,0.00,,OVC003,0.00,VWS V14.01,2013-04-02 14:36:00,
2013-04-02 10:37:00,34.0,13.3,30.10,SSW,195,3.0,9.0,42,0.00,,OVC003,0.00,VWS V14.01,2013-04-02 14:37:00,
2013-04-02 10:38:00,33.9,13.2,30.10,West,268,11.0,11.0,42,0.00,,OVC003,0.00,VWS V14.01,2013-04-02 14:38:00,
2013-04-02 10:39:00,33.9,13.2,30.10,WNW,301,6.0,10.0,42,0.00,,OVC003,0.00,VWS V14.01,2013-04-02 14:39:00,
2013-04-02 10:40:00,33.9,13.2,30.10,SW,217,6.0,10.0,42,0.00,,OVC003,0.00,VWS V14.01,2013-04-02 14:40:00,
2013-04-02 10:41:00,33.9,13.8,30.10,North,355,4.0,4.0,43,0.00,,OVC003,0.00,VWS V14.01,2013-04-02 14:41:00,
2013-04-02 10:42:00,34.0,14.4,30.10,WNW,302,5.0,5.0,44,0.00,,OVC003,0.00,VWS V14.01,2013-04-02 14:42:00,
2013-04-02 10:43:00,34.0,13.9,30.10,North,357,5.0,5.0,43,0.00,,OVC003,0.00,VWS V14.01,2013-04-02 14:43:00,
2013-04-02 10:45:00,34.1,14.0,30.10,West,263,5.0,5.0,43,0.00,,OVC003,0.00,VWS V14.01,2013-04-02 14:45:00,
2013-04-02 10:46:00,34.2,14.1,30.10,NW,322,4.0,4.0,43,0.00,,OVC003,0.00,VWS V14.01,2013-04-02 14:46:00,
2013-04-02 10:47:00,34.2,13.5,30.10,West,261,5.0,5.0,42,0.00,,OVC003,0.00,VWS V14.01,2013-04-02 14:47:00,
2013-04-02 10:50:00,34.3,13.6,30.10,North,2,4.0,4.0,42,0.00,,OVC003,0.00,VWS V14.01,2013-04-02 14:50:00,
2013-04-02 10:51:00,34.4,14.2,30.10,NW,312,5.0,5.0,43,0.00,,OVC003,0.00,VWS V14.01,2013-04-02 14:51:00,
2013-04-02 10:55:00,34.4,13.7,30.10,NW,312,5.0,11.0,42,0.00,,OVC003,0.00,VWS V14.01,2013-04-02 14:55:00,
2013-04-02 10:56:00,34.4,13.7,30.10,North,2,6.0,7.0,42,0.00,,OVC003,0.00,VWS V14.01,2013-04-02 14:56:00,
2013-04-02 10:57:00,34.4,13.7,30.10,West,272,8.0,8.0,42,0.00,,OVC003,0.00,VWS V14.01,2013-04-02 14:57:00,
2013-04-02 10:58:00,34.4,13.7,30.10,NNE,16,2.0,7.0,42,0.00,,OVC003,0.00,VWS V14.01,2013-04-02 14:58:00,
2013-04-02 10:59:00,34.4,13.7,30.10,NNW,339,3.0,7.0,42,0.00,,OVC003,0.00,VWS V14.01,2013-04-02 14:59:00,
2013-04-02 11:00:00,34.4,13.7,30.10,SW,232,4.0,7.0,42,0.00,,OVC003,0.00,VWS V14.01,2013-04-02 15:00:00,
2013-04-02 11:01:00,34.4,13.7,30.10,NW,312,6.0,6.0,42,0.00,,OVC003,0.00,VWS V14.01,2013-04-02 15:01:00,
2013-04-02 11:02:00,34.4,13.7,30.10,WNW,291,4.0,5.0,42,0.00,,OVC003,0.00,VWS V14.01,2013-04-02 15:02:00,
2013-04-02 11:03:00,34.4,13.7,30.10,NE,51,2.0,5.0,42,0.00,,OVC003,0.00,VWS V14.01,2013-04-02 15:03:00,
2013-04-02 11:05:00,34.4,13.7,30.10,WSW,251,7.0,7.0,42,0.00,,OVC003,0.00,VWS V14.01,2013-04-02 15:05:00,
2013-04-02 11:06:00,34.4,13.7,30.10,NE,36,4.0,5.0,42,0.00,,OVC003,0.00,VWS V14.01,2013-04-02 15:06:00,
2013-04-02 11:07:00,34.4,13.1,30.10,West,268,5.0,5.0,41,0.00,,OVC003,0.00,VWS V14.01,2013-04-02 15:07:00,
2013-04-02 11:08:00,34.4,13.1,30.10,SSW,210,12.0,12.0,41,0.00,,OVC003,0.00,VWS V14.01,2013-04-02 15:08:00,
2013-04-02 11:09:00,34.4,13.1,30.10,WSW,238,6.0,10.0,41,0.00,,OVC003,0.00,VWS V14.01,2013-04-02 15:09:00,
2013-04-02 11:10:00,34.4,13.1,30.10,WSW,237,4.0,10.0,41,0.00,,OVC003,0.00,VWS V14.01,2013-04-02 15:10:00,
2013-04-02 11:12:00,34.4,13.1,30.10,SSW,206,8.0,11.0,41,0.00,,OVC003,0.00,VWS V14.01,2013-04-02 15:12:00,
2013-04-02 11:13:00,34.4,13.7,30.10,West,268,4.0,11.0,42,0.00,,OVC003,0.00,VWS V14.01,2013-04-02 15:13:00,
2013-04-02 11:14:00,34.4,14.2,30.10,East,99,4.0,11.0,43,0.00,,OVC003,0.00,VWS V14.01,2013-04-02 15:14:00,
2013-04-02 11:15:00,34.6,14.4,30.10,SSW,193,5.0,11.0,43,0.00,,OVC003,0.00,VWS V14.01,2013-04-02 15:15:00,
2013-04-02 11:17:00,34.9,13.6,30.10,SSW,205,10.0,10.0,41,0.00,,OVC003,0.00,VWS V14.01,2013-04-02 15:17:00,
2013-04-02 11:18:00,34.9,13.6,30.10,South,180,5.0,10.0,41,0.00,,OVC003,0.00,VWS V14.01,2013-04-02 15:18:00,
2013-04-02 11:19:00,34.9,13.6,30.10,SW,214,5.0,10.0,41,0.00,,OVC003,0.00,VWS V14.01,2013-04-02 15:19:00,
2013-04-02 11:20:00,35.0,13.7,30.10,North,2,5.0,5.0,41,0.00,,OVC003,0.00,VWS V14.01,2013-04-02 15:20:00,
2013-04-02 11:21:00,35.0,13.7,30.10,South,189,4.0,4.0,41,0.00,,OVC003,0.00,VWS V14.01,2013-04-02 15:21:00,
2013-04-02 11:22:00,35.1,14.3,30.10,NW,312,2.0,5.0,42,0.00,,OVC003,0.00,VWS V14.01,2013-04-02 15:22:00,
2013-04-02 11:23:00,35.2,13.9,30.10,WSW,245,4.0,5.0,41,0.00,,OVC003,0.00,VWS V14.01,2013-04-02 15:23:00,
2013-04-02 11:24:00,35.3,14.0,30.10,WNW,298,3.0,5.0,41,0.00,,OVC003,0.00,VWS V14.01,2013-04-02 15:24:00,
2013-04-02 11:25:00,35.4,14.1,30.10,WNW,298,2.0,5.0,41,0.00,,OVC003,0.00,VWS V14.01,2013-04-02 15:25:00,
2013-04-02 11:26:00,35.5,14.1,30.10,ENE,66,5.0,5.0,41,0.00,,OVC003,0.00,VWS V14.01,2013-04-02 15:26:00,
2013-04-02 11:27:00,35.4,13.5,30.10,North,358,5.0,12.0,40,0.00,,OVC003,0.00,VWS V14.01,2013-04-02 15:27:00,
2013-04-02 11:28:00,35.4,13.5,30.10,West,274,6.0,12.0,40,0.00,,OVC003,0.00,VWS V14.01,2013-04-02 15:28:00,
2013-04-02 11:29:00,34.2,15.1,30.10,SW,236,5.0,7.0,45,0.00,,OVC003,0.00,VWS V14.01,2013-04-02 15:29:00,
2013-04-02 11:30:00,35.3,13.4,30.10,WNW,303,8.0,12.0,40,0.00,,OVC003,0.00,VWS V14.01,2013-04-02 15:30:00,
2013-04-02 11:32:00,35.1,13.2,30.10,SW,236,4.0,6.0,40,0.00,,OVC003,0.00,VWS V14.01,2013-04-02 15:32:00,
2013-04-02 11:33:00,35.1,13.2,30.10,SW,236,4.0,6.0,40,0.00,,OVC003,0.00,VWS V14.01,2013-04-02 15:33:00,
2013-04-02 11:34:00,35.2,13.3,30.10,North,358,3.0,6.0,40,0.00,,OVC003,0.00,VWS V14.01,2013-04-02 15:34:00,
2013-04-02 11:35:00,35.2,13.9,30.10,WSW,249,8.0,8.0,41,0.00,,OVC003,0.00,VWS V14.01,2013-04-02 15:35:00,
2013-04-02 11:36:00,35.3,14.0,30.10,WSW,247,5.0,6.0,41,0.00,,OVC003,0.00,VWS V14.01,2013-04-02 15:36:00,
2013-04-02 11:37:00,35.4,13.5,30.10,SSW,193,4.0,6.0,40,0.00,,OVC003,0.00,VWS V14.01,2013-04-02 15:37:00,
2013-04-02 11:38:00,35.4,13.5,30.10,WSW,244,7.0,7.0,40,0.00,,OVC003,0.00,VWS V14.01,2013-04-02 15:38:00,
2013-04-02 11:39:00,35.4,13.5,30.10,SW,218,2.0,6.0,40,0.00,,OVC003,0.00,VWS V14.01,2013-04-02 15:39:00,
2013-04-02 11:40:00,35.4,14.1,30.10,West,263,4.0,4.0,41,0.00,,OVC003,0.00,VWS V14.01,2013-04-02 15:40:00,
2013-04-02 11:41:00,35.4,13.5,30.10,North,358,5.0,5.0,40,0.00,,OVC003,0.00,VWS V14.01,2013-04-02 15:41:00,
2013-04-02 11:42:00,35.4,14.1,30.10,North,350,5.0,5.0,41,0.00,,OVC003,0.00,VWS V14.01,2013-04-02 15:42:00,
2013-04-02 11:43:00,35.4,14.1,30.10,West,270,6.0,7.0,41,0.00,,OVC003,0.00,VWS V14.01,2013-04-02 15:43:00,
2013-04-02 11:44:00,35.4,14.1,30.10,West,262,9.0,9.0,41,0.00,,OVC003,0.00,VWS V14.01,2013-04-02 15:44:00,
2013-04-02 11:45:00,35.3,13.4,30.10,WSW,248,11.0,11.0,40,0.00,,OVC003,0.00,VWS V14.01,2013-04-02 15:45:00,
2013-04-02 11:46:00,35.2,13.3,30.10,WSW,255,7.0,9.0,40,0.00,,OVC003,0.00,VWS V14.01,2013-04-02 15:46:00,
2013-04-02 11:47:00,33.9,13.2,30.10,North,350,6.0,6.0,42,0.00,,OVC003,0.00,VWS V14.01,2013-04-02 15:47:00,
2013-04-02 11:48:00,35.1,13.8,30.10,South,176,2.0,9.0,41,0.00,,OVC003,0.00,VWS V14.01,2013-04-02 15:48:00,
2013-04-02 11:49:00,35.2,13.9,30.10,SW,216,3.0,9.0,41,0.00,,OVC003,0.00,VWS V14.01,2013-04-02 15:49:00,
2013-04-02 11:50:00,35.3,14.0,30.10,SW,216,3.0,9.0,41,0.00,,OVC003,0.00,VWS V14.01,2013-04-02 15:50:00,
2013-04-02 11:51:00,35.5,14.1,30.10,NW,317,5.0,6.0,41,0.00,,OVC003,0.00,VWS V14.01,2013-04-02 15:51:00,
2013-04-02 11:52:00,35.7,14.9,30.10,NNW,343,5.0,6.0,42,0.00,,OVC003,0.00,VWS V14.01,2013-04-02 15:52:00,
2013-04-02 11:53:00,35.9,14.5,30.10,West,269,9.0,9.0,41,0.00,,OVC003,0.00,VWS V14.01,2013-04-02 15:53:00,
2013-04-02 11:54:00,35.9,13.4,30.10,SW,214,5.0,7.0,39,0.00,,OVC003,0.00,VWS V14.01,2013-04-02 15:54:00,
2013-04-02 11:55:00,34.3,13.6,30.10,NNE,16,3.0,4.0,42,0.00,,OVC003,0.00,VWS V14.01,2013-04-02 15:55:00,
2013-04-02 11:56:00,35.9,13.4,30.10,SW,214,2.0,2.0,39,0.00,,OVC003,0.00,VWS V14.01,2013-04-02 15:56:00,
2013-04-02 11:58:00,35.8,13.3,30.10,SSW,201,4.0,5.0,39,0.00,,OVC003,0.00,VWS V14.01,2013-04-02 15:58:00,
2013-04-02 11:59:00,35.7,13.2,30.10,SSW,210,3.0,5.0,39,0.00,,OVC003,0.00,VWS V14.01,2013-04-02 15:59:00,
2013-04-02 12:00:00,35.7,13.2,30.10,NE,39,3.0,5.0,39,0.00,,OVC003,0.00,VWS V14.01,2013-04-02 16:00:00,
2013-04-02 12:01:00,34.4,13.7,30.10,NW,308,3.0,11.0,42,0.00,,OVC003,0.00,VWS V14.01,2013-04-02 16:01:00,
2013-04-02 12:02:00,35.5,13.0,30.10,NW,306,4.0,5.0,39,0.00,,OVC003,0.00,VWS V14.01,2013-04-02 16:02:00,
2013-04-02 12:03:00,35.4,12.9,30.10,North,8,4.0,5.0,39,0.00,,OVC003,0.00,VWS V14.01,2013-04-02 16:03:00,
2013-04-02 12:04:00,35.3,12.8,30.10,SW,218,5.0,5.0,39,0.00,,OVC003,0.00,VWS V14.01,2013-04-02 16:04:00,
2013-04-02 12:05:00,35.3,12.8,30.10,SW,230,7.0,7.0,39,0.00,,OVC003,0.00,VWS V14.01,2013-04-02 16:05:00,
2013-04-02 12:06:00,35.2,12.7,30.10,West,274,7.0,7.0,39,0.00,,OVC003,0.00,VWS V14.01,2013-04-02 16:06:00,
2013-04-02 12:07:00,35.2,12.7,30.10,WSW,242,6.0,9.0,39,0.00,,OVC003,0.00,VWS V14.01,2013-04-02 16:07:00,
2013-04-02 12:08:00,35.2,13.3,30.10,SSW,207,7.0,9.0,40,0.00,,OVC003,0.00,VWS V14.01,2013-04-02 16:08:00,
2013-04-02 12:09:00,35.2,12.7,30.10,SSW,203,6.0,9.0,39,0.00,,OVC003,0.00,VWS V14.01,2013-04-02 16:09:00,
2013-04-02 12:10:00,35.2,12.7,30.10,South,185,5.0,9.0,39,0.00,,OVC003,0.00,VWS V14.01,2013-04-02 16:10:00,
2013-04-02 12:11:00,35.2,12.7,30.10,SSW,207,5.0,5.0,39,0.00,,OVC003,0.00,VWS V14.01,2013-04-02 16:11:00,
2013-04-02 12:12:00,35.2,12.7,30.10,SW,223,6.0,6.0,39,0.00,,OVC003,0.00,VWS V14.01,2013-04-02 16:12:00,
2013-04-02 12:13:00,35.3,13.4,30.10,West,270,5.0,6.0,40,0.00,,OVC003,0.00,VWS V14.01,2013-04-02 16:13:00,
2013-04-02 12:14:00,35.3,13.4,30.09,WSW,237,5.0,6.0,40,0.00,,OVC003,0.00,VWS V14.01,2013-04-02 16:14:00,
2013-04-02 12:15:00,35.4,13.5,30.09,WSW,250,5.0,6.0,40,0.00,,OVC003,0.00,VWS V14.01,2013-04-02 16:15:00,
2013-04-02 12:16:00,35.6,13.7,30.09,WSW,252,8.0,13.0,40,0.00,,OVC003,0.00,VWS V14.01,2013-04-02 16:16:00,
2013-04-02 12:19:00,36.2,14.8,30.09,West,272,4.0,13.0,41,0.00,,OVC003,0.00,VWS V14.01,2013-04-02 16:19:00,
2013-04-02 12:20:00,36.2,14.2,30.09,West,270,4.0,13.0,40,0.00,,OVC003,0.00,VWS V14.01,2013-04-02 16:20:00,
2013-04-02 12:21:00,36.5,14.5,30.09,SSW,206,4.0,6.0,40,0.00,,OVC003,0.00,VWS V14.01,2013-04-02 16:21:00,
2013-04-02 12:22:00,36.7,14.7,30.09,SW,227,8.0,8.0,40,0.00,,OVC003,0.00,VWS V14.01,2013-04-02 16:22:00,
2013-04-02 12:23:00,36.7,14.1,30.09,NW,304,4.0,9.0,39,0.00,,OVC003,0.00,VWS V14.01,2013-04-02 16:23:00,
2013-04-02 12:24:00,36.8,14.2,30.09,WSW,257,10.0,16.0,39,0.00,,OVC003,0.00,VWS V14.01,2013-04-02 16:24:00,
2013-04-02 12:25:00,36.8,14.2,30.09,SSW,192,6.0,16.0,39,0.00,,OVC003,0.00,VWS V14.01,2013-04-02 16:25:00,
2013-04-02 12:26:00,36.8,13.6,30.09,North,359,4.0,7.0,38,0.00,,OVC003,0.00,VWS V14.01,2013-04-02 16:26:00,
2013-04-02 12:27:00,36.7,13.5,30.09,NNW,331,8.0,8.0,38,0.00,,OVC003,0.00,VWS V14.01,2013-04-02 16:27:00,
2013-04-02 12:28:00,36.7,14.1,30.09,SE,144,3.0,7.0,39,0.00,,OVC003,0.00,VWS V14.01,2013-04-02 16:28:00,
2013-04-02 12:29:00,36.7,14.1,30.09,SW,232,4.0,7.0,39,0.00,,OVC003,0.00,VWS V14.01,2013-04-02 16:29:00,
2013-04-02 12:30:00,36.7,14.1,30.09,SW,236,12.0,12.0,39,0.00,,OVC003,0.00,VWS V14.01,2013-04-02 16:30:00,
2013-04-02 12:31:00,36.6,14.0,30.09,SW,236,11.0,14.0,39,0.00,,OVC003,0.00,VWS V14.01,2013-04-02 16:31:00,
2013-04-02 12:32:00,36.5,13.9,30.09,West,274,11.0,14.0,39,0.00,,OVC003,0.00,VWS V14.01,2013-04-02 16:32:00,
2013-04-02 12:33:00,36.5,13.9,30.09,NNW,340,6.0,14.0,39,0.00,,OVC003,0.00,VWS V14.01,2013-04-02 16:33:00,
2013-04-02 12:34:00,36.5,13.9,30.09,NW,312,4.0,14.0,39,0.00,,OVC003,0.00,VWS V14.01,2013-04-02 16:34:00,
2013-04-02 12:35:00,36.4,13.8,30.09,WNW,294,5.0,14.0,39,0.00,,OVC003,0.00,VWS V14.01,2013-04-02 16:35:00,
2013-04-02 12:36:00,36.3,13.7,30.09,NW,317,5.0,5.0,39,0.00,,OVC003,0.00,VWS V14.01,2013-04-02 16:36:00,
2013-04-02 12:37:00,36.2,13.6,30.09,West,266,4.0,6.0,39,0.00,,OVC003,0.00,VWS V14.01,2013-04-02 16:37:00,
2013-04-02 12:38:00,36.2,14.2,30.09,WNW,298,6.0,6.0,40,0.00,,OVC003,0.00,VWS V14.01,2013-04-02 16:38:00,
2013-04-02 12:39:00,36.2,14.2,30.09,SW,233,4.0,6.0,40,0.00,,OVC003,0.00,VWS V14.01,2013-04-02 16:39:00,
2013-04-02 12:40:00,36.3,14.3,30.09,West,277,9.0,9.0,40,0.00,,OVC003,0.00,VWS V14.01,2013-04-02 16:40:00,
2013-04-02 12:41:00,36.4,14.4,30.09,SW,236,6.0,7.0,40,0.00,,OVC003,0.00,VWS V14.01,2013-04-02 16:41:00,
2013-04-02 12:42:00,36.5,13.9,30.09,SSW,211,11.0,11.0,39,0.00,,OVC003,0.00,VWS V14.01,2013-04-02 16:42:00,
2013-04-02 12:43:00,36.5,13.9,30.09,North,6,4.0,11.0,39,0.00,,OVC003,0.00,VWS V14.01,2013-04-02 16:43:00,
2013-04-02 12:44:00,36.9,15.4,30.09,WNW,295,8.0,11.0,41,0.00,,OVC003,0.00,VWS V14.01,2013-04-02 16:44:00,
2013-04-02 12:45:00,36.9,14.9,30.09,SSW,207,3.0,11.0,40,0.00,,OVC003,0.00,VWS V14.01,2013-04-02 16:45:00,
2013-04-02 12:46:00,37.1,13.9,30.09,WNW,288,4.0,11.0,38,0.00,,OVC003,0.00,VWS V14.01,2013-04-02 16:46:00,
2013-04-02 12:48:00,37.4,14.1,30.09,SSW,213,8.0,11.0,38,0.00,,OVC003,0.00,VWS V14.01,2013-04-02 16:48:00,
2013-04-02 12:50:00,37.4,13.5,30.09,SSW,193,3.0,11.0,37,0.00,,OVC003,0.00,VWS V14.01,2013-04-02 16:50:00,
2013-04-02 12:51:00,37.4,14.1,30.09,NNW,347,5.0,5.0,38,0.00,,OVC003,0.00,VWS V14.01,2013-04-02 16:51:00,
2013-04-02 12:52:00,37.4,14.7,30.09,North,8,6.0,7.0,39,0.00,,OVC003,0.00,VWS V14.01,2013-04-02 16:52:00,
2013-04-02 12:53:00,37.4,14.1,30.09,WNW,289,5.0,7.0,38,0.00,,OVC003,0.00,VWS V14.01,2013-04-02 16:53:00,
2013-04-02 12:54:00,37.3,14.0,30.09,West,280,7.0,7.0,38,0.00,,OVC003,0.00,VWS V14.01,2013-04-02 16:54:00,
2013-04-02 12:55:00,37.4,14.1,30.09,West,262,7.0,7.0,38,0.00,,OVC003,0.00,VWS V14.01,2013-04-02 16:55:00,
2013-04-02 12:57:00,37.2,13.9,30.09,NNW,328,4.0,5.0,38,0.00,,OVC003,0.00,VWS V14.01,2013-04-02 16:57:00,
2013-04-02 12:58:00,37.1,13.9,30.09,SSW,199,4.0,6.0,38,0.00,,OVC003,0.00,VWS V14.01,2013-04-02 16:58:00,
2013-04-02 12:59:00,37.1,14.4,30.09,SSW,201,2.0,6.0,39,0.00,,OVC003,0.00,VWS V14.01,2013-04-02 16:59:00,
2013-04-02 13:00:00,37.1,14.4,30.09,NW,307,11.0,11.0,39,0.00,,OVC003,0.00,VWS V14.01,2013-04-02 17:00:00,
2013-04-02 13:01:00,37.0,13.8,30.09,WSW,257,5.0,9.0,38,0.00,,OVC003,0.00,VWS V14.01,2013-04-02 17:01:00,
2013-04-02 13:02:00,37.0,13.8,30.09,WNW,285,2.0,9.0,38,0.00,,OVC003,0.00,VWS V14.01,2013-04-02 17:02:00,
2013-04-02 13:03:00,37.0,13.2,30.09,WNW,288,3.0,9.0,37,0.00,,OVC003,0.00,VWS V14.01,2013-04-02 17:03:00,
2013-04-02 13:04:00,37.0,13.8,30.09,WNW,286,4.0,9.0,38,0.00,,OVC003,0.00,VWS V14.01,2013-04-02 17:04:00,
2013-04-02 13:05:00,37.0,13.8,30.09,WSW,238,5.0,9.0,38,0.00,,OVC003,0.00,VWS V14.01,2013-04-02 17:05:00,
2013-04-02 13:06:00,37.0,12.5,30.09,NNW,327,5.0,7.0,36,0.00,,OVC003,0.00,VWS V14.01,2013-04-02 17:06:00,
2013-04-02 13:07:00,37.0,12.5,30.09,WNW,296,8.0,8.0,36,0.00,,OVC003,0.00,VWS V14.01,2013-04-02 17:07:00,
2013-04-02 13:08:00,36.9,12.4,30.09,SW,231,4.0,7.0,36,0.00,,OVC003,0.00,VWS V14.01,2013-04-02 17:08:00,
2013-04-02 13:09:00,36.8,12.4,30.09,WSW,237,15.0,15.0,36,0.00,,OVC003,0.00,VWS V14.01,2013-04-02 17:09:00,
2013-04-02 13:10:00,36.8,12.4,30.09,NW,312,6.0,13.0,36,0.00,,OVC003,0.00,VWS V14.01,2013-04-02 17:10:00,
2013-04-02 13:11:00,36.7,12.9,30.09,WSW,257,11.0,11.0,37,0.00,,OVC003,0.00,VWS V14.01,2013-04-02 17:11:00,
2013-04-02 13:12:00,36.7,12.9,30.09,ENE,68,3.0,9.0,37,0.00,,OVC003,0.00,VWS V14.01,2013-04-02 17:12:00,
2013-04-02 13:13:00,36.6,12.8,30.09,WSW,255,5.0,10.0,37,0.00,,OVC003,0.00,VWS V14.01,2013-04-02 17:13:00,
2013-04-02 13:14:00,36.5,12.7,30.08,WSW,251,5.0,10.0,37,0.00,,OVC003,0.00,VWS V14.01,2013-04-02 17:14:00,
2013-04-02 13:15:00,36.5,12.7,30.08,North,9,2.0,5.0,37,0.00,,OVC003,0.00,VWS V14.01,2013-04-02 17:15:00,
2013-04-02 13:16:00,36.4,12.6,30.08,North,353,5.0,5.0,37,0.00,,OVC003,0.00,VWS V14.01,2013-04-02 17:16:00,
2013-04-02 13:17:00,36.3,13.1,30.08,North,1,4.0,5.0,38,0.00,,OVC003,0.00,VWS V14.01,2013-04-02 17:17:00,
2013-04-02 13:18:00,36.3,13.1,30.08,NW,317,5.0,5.0,38,0.00,,OVC003,0.00,VWS V14.01,2013-04-02 17:18:00,
2013-04-02 13:20:00,36.5,13.9,30.08,WNW,292,7.0,7.0,39,0.00,,OVC003,0.00,VWS V14.01,2013-04-02 17:20:00,
2013-04-02 13:21:00,36.9,13.7,30.08,WNW,282,13.0,16.0,38,0.00,,OVC003,0.00,VWS V14.01,2013-04-02 17:21:00,
2013-04-02 13:23:00,37.1,13.2,30.08,WSW,253,8.0,16.0,37,0.00,,OVC003,0.00,VWS V14.01,2013-04-02 17:23:00,
2013-04-02 13:25:00,37.2,13.3,30.08,South,183,8.0,16.0,37,0.00,,OVC003,0.00,VWS V14.01,2013-04-02 17:25:00,
2013-04-02 13:26:00,37.4,13.5,30.08,NW,317,8.0,8.0,37,0.00,,OVC003,0.00,VWS V14.01,2013-04-02 17:26:00,
2013-04-02 13:27:00,37.5,13.0,30.08,WNW,301,3.0,7.0,36,0.00,,OVC003,0.00,VWS V14.01,2013-04-02 17:27:00,
2013-04-02 13:28:00,37.6,13.7,30.08,WSW,247,3.0,7.0,37,0.00,,OVC003,0.00,VWS V14.01,2013-04-02 17:28:00,
2013-04-02 13:29:00,37.7,13.8,30.08,WNW,291,3.0,7.0,37,0.00,,OVC003,0.00,VWS V14.01,2013-04-02 17:29:00,
2013-04-02 13:30:00,37.8,13.3,30.08,North,349,5.0,7.0,36,0.00,,OVC003,0.00,VWS V14.01,2013-04-02 17:30:00,
2013-04-02 13:31:00,37.8,13.3,30.08,SSW,201,5.0,5.0,36,0.00,,OVC003,0.00,VWS V14.01,2013-04-02 17:31:00,
2013-04-02 13:32:00,37.7,13.2,30.08,NW,307,5.0,7.0,36,0.00,,OVC003,0.00,VWS V14.01,2013-04-02 17:32:00,
2013-04-02 13:33:00,37.7,13.2,30.08,NE,45,7.0,7.0,36,0.00,,OVC003,0.00,VWS V14.01,2013-04-02 17:33:00,
2013-04-02 13:34:00,37.5,13.0,30.08,West,261,7.0,7.0,36,0.00,,OVC003,0.00,VWS V14.01,2013-04-02 17:34:00,
2013-04-02 13:35:00,37.4,12.9,30.08,SW,218,3.0,9.0,36,0.00,,OVC003,0.00,VWS V14.01,2013-04-02 17:35:00,
2013-04-02 13:36:00,37.3,12.8,30.08,WNW,288,6.0,6.0,36,0.00,,OVC003,0.00,VWS V14.01,2013-04-02 17:36:00,
2013-04-02 13:37:00,37.2,12.7,30.08,SSE,160,5.0,5.0,36,0.00,,OVC003,0.00,VWS V14.01,2013-04-02 17:37:00,
2013-04-02 13:38:00,37.1,12.6,30.08,North,354,4.0,8.0,36,0.00,,OVC003,0.00,VWS V14.01,2013-04-02 17:38:00,
2013-04-02 13:39:00,37.0,13.2,30.08,WNW,299,2.0,8.0,37,0.00,,OVC003,0.00,VWS V14.01,2013-04-02 17:39:00,
2013-04-02 13:40:00,37.0,13.2,30.08,WNW,299,3.0,8.0,37,0.00,,OVC003,0.00,VWS V14.01,2013-04-02 17:40:00,
2013-04-02 13:41:00,36.9,13.1,30.08,North,349,5.0,5.0,37,0.00,,OVC003,0.00,VWS V14.01,2013-04-02 17:41:00,
2013-04-02 13:42:00,36.8,13.0,30.08,NNW,335,3.0,5.0,37,0.00,,OVC003,0.00,VWS V14.01,2013-04-02 17:42:00,
2013-04-02 13:43:00,36.8,13.0,30.08,WNW,293,7.0,7.0,37,0.00,,OVC003,0.00,VWS V14.01,2013-04-02 17:43:00,
2013-04-02 13:44:00,36.9,13.1,30.08,SSE,154,7.0,10.0,37,0.00,,OVC003,0.00,VWS V14.01,2013-04-02 17:44:00,
2013-04-02 13:45:00,36.9,13.1,30.08,SSW,199,7.0,10.0,37,0.00,,OVC003,0.00,VWS V14.01,2013-04-02 17:45:00,
2013-04-02 13:46:00,37.0,13.8,30.08,West,281,7.0,7.0,38,0.00,,OVC003,0.00,VWS V14.01,2013-04-02 17:46:00,
2013-04-02 13:47:00,37.2,13.9,30.08,SW,228,8.0,8.0,38,0.00,,OVC003,0.00,VWS V14.01,2013-04-02 17:47:00,
2013-04-02 13:48:00,37.4,13.5,30.08,West,260,7.0,10.0,37,0.00,,OVC003,0.00,VWS V14.01,2013-04-02 17:48:00,
2013-04-02 13:49:00,37.6,13.7,30.08,SW,228,9.0,10.0,37,0.00,,OVC003,0.00,VWS V14.01,2013-04-02 17:49:00,
2013-04-02 13:50:00,37.7,13.8,30.08,SW,214,5.0,10.0,37,0.00,,OVC003,0.00,VWS V14.01,2013-04-02 17:50:00,
2013-04-02 13:51:00,38.0,14.1,30.08,SSW,206,8.0,9.0,37,0.00,,OVC003,0.00,VWS V14.01,2013-04-02 17:51:00,
2013-04-02 13:52:00,38.2,13.6,30.08,NE,53,8.0,9.0,36,0.00,,OVC003,0.00,VWS V14.01,2013-04-02 17:52:00,
2013-04-02 13:53:00,38.3,13.7,30.08,SW,226,6.0,9.0,36,0.00,,OVC003,0.00,VWS V14.01,2013-04-02 17:53:00,
2013-04-02 13:55:00,38.6,14.0,30.08,West,259,4.0,5.0,36,0.00,,OVC003,0.00,VWS V14.01,2013-04-02 17:55:00,
2013-04-02 13:57:00,38.7,14.1,30.08,NNW,345,2.0,5.0,36,0.00,,OVC003,0.00,VWS V14.01,2013-04-02 17:57:00,
2013-04-02 13:58:00,38.7,14.1,30.08,North,350,3.0,5.0,36,0.00,,OVC003,0.00,VWS V14.01,2013-04-02 17:58:00,
2013-04-02 13:59:00,38.8,14.1,30.08,NNE,29,4.0,6.0,36,0.00,,OVC003,0.00,VWS V14.01,2013-04-02 17:59:00,
2013-04-02 14:00:00,38.9,13.6,30.08,East,94,7.0,7.0,35,0.00,,OVC003,0.00,VWS V14.01,2013-04-02 18:00:00,
2013-04-02 14:01:00,39.0,14.3,30.08,NW,317,2.0,5.0,36,0.00,,OVC003,0.00,VWS V14.01,2013-04-02 18:01:00,
2013-04-02 14:02:00,39.1,14.4,30.08,North,0,4.0,5.0,36,0.00,,OVC003,0.00,VWS V14.01,2013-04-02 18:02:00,
2013-04-02 14:03:00,39.1,14.4,30.08,SSE,158,3.0,5.0,36,0.00,,OVC003,0.00,VWS V14.01,2013-04-02 18:03:00,
2013-04-02 14:04:00,39.2,14.5,30.08,NW,306,4.0,5.0,36,0.00,,OVC003,0.00,VWS V14.01,2013-04-02 18:04:00,
2013-04-02 14:05:00,39.2,14.5,30.08,WNW,282,3.0,3.0,36,0.00,,OVC003,0.00,VWS V14.01,2013-04-02 18:05:00,
2013-04-02 14:06:00,39.2,13.9,30.08,WSW,253,4.0,4.0,35,0.00,,OVC003,0.00,VWS V14.01,2013-04-02 18:06:00,
2013-04-02 14:07:00,39.1,13.8,30.08,WSW,247,4.0,4.0,35,0.00,,OVC003,0.00,VWS V14.01,2013-04-02 18:07:00,
2013-04-02 14:08:00,39.2,13.9,30.08,WSW,240,8.0,8.0,35,0.00,,OVC003,0.00,VWS V14.01,2013-04-02 18:08:00,
2013-04-02 14:09:00,39.1,13.8,30.08,ESE,112,5.0,15.0,35,0.00,,OVC003,0.00,VWS V14.01,2013-04-02 18:09:00,
2013-04-02 14:10:00,39.1,13.8,30.08,South,182,8.0,15.0,35,0.00,,OVC003,0.00,VWS V14.01,2013-04-02 18:10:00,
2013-04-02 14:11:00,39.2,13.2,30.08,WSW,238,4.0,6.0,34,0.00,,OVC003,0.00,VWS V14.01,2013-04-02 18:11:00,
2013-04-02 14:12:00,39.2,13.2,30.08,South,179,4.0,6.0,34,0.00,,OVC003,0.00,VWS V14.01,2013-04-02 18:12:00,
2013-04-02 14:13:00,39.3,13.3,30.08,WSW,247,12.0,12.0,34,0.00,,OVC003,0.00,VWS V14.01,2013-04-02 18:13:00,
2013-04-02 14:14:00,39.3,13.3,30.08,West,278,4.0,11.0,34,0.00,,OVC003,0.00,VWS V14.01,2013-04-02 18:14:00,
2013-04-02 14:15:00,39.3,13.3,30.08,NNW,330,6.0,11.0,34,0.00,,OVC003,0.00,VWS V14.01,2013-04-02 18:15:00,
2013-04-02 14:16:00,39.2,13.2,30.08,ENE,58,4.0,9.0,34,0.00,,OVC003,0.00,VWS V14.01,2013-04-02 18:16:00,
2013-04-02 14:17:00,39.1,13.1,30.08,NNW,330,4.0,9.0,34,0.00,,OVC003,0.00,VWS V14.01,2013-04-02 18:17:00,
2013-04-02 14:18:00,39.1,13.1,30.08,West,279,2.0,9.0,34,0.00,,OVC003,0.00,VWS V14.01,2013-04-02 18:18:00,
2013-04-02 14:19:00,39.0,13.0,30.08,NE,39,8.0,9.0,34,0.00,,OVC003,0.00,VWS V14.01,2013-04-02 18:19:00,
2013-04-02 14:20:00,38.9,12.9,30.08,NNW,335,3.0,9.0,34,0.00,,OVC003,0.00,VWS V14.01,2013-04-02 18:20:00,
2013-04-02 14:23:00,39.0,13.0,30.08,West,264,5.0,7.0,34,0.00,,OVC003,0.00,VWS V14.01,2013-04-02 18:23:00,
2013-04-02 14:25:00,39.1,13.1,30.08,WNW,302,6.0,7.0,34,0.00,,OVC003,0.00,VWS V14.01,2013-04-02 18:25:00,
2013-04-02 14:26:00,39.1,13.1,30.08,SSW,201,7.0,9.0,34,0.00,,OVC003,0.00,VWS V14.01,2013-04-02 18:26:00,
2013-04-02 14:27:00,39.1,12.4,30.08,SW,221,8.0,9.0,33,0.00,,OVC003,0.00,VWS V14.01,2013-04-02 18:27:00,
2013-04-02 14:28:00,39.1,13.1,30.08,NNE,20,9.0,9.0,34,0.00,,OVC003,0.00,VWS V14.01,2013-04-02 18:28:00,
2013-04-02 14:29:00,39.1,13.8,30.08,NE,55,3.0,9.0,35,0.00,,OVC003,0.00,VWS V14.01,2013-04-02 18:29:00,
2013-04-02 14:30:00,39.1,13.8,30.07,NW,317,5.0,9.0,35,0.00,,OVC003,0.00,VWS V14.01,2013-04-02 18:30:00,
2013-04-02 14:31:00,39.1,13.8,30.07,WSW,249,5.0,6.0,35,0.00,,OVC003,0.00,VWS V14.01,2013-04-02 18:31:00,
2013-04-02 14:32:00,39.2,13.9,30.07,SSW,197,4.0,6.0,35,0.00,,OVC003,0.00,VWS V14.01,2013-04-02 18:32:00,
2013-04-02 14:33:00,39.3,13.9,30.07,North,349,6.0,6.0,35,0.00,,OVC003,0.00,VWS V14.01,2013-04-02 18:33:00,
2013-04-02 14:34:00,39.3,13.9,30.07,WNW,291,3.0,6.0,35,0.00,,OVC003,0.00,VWS V14.01,2013-04-02 18:34:00,
2013-04-02 14:35:00,39.3,13.9,30.07,ENE,68,2.0,9.0,35,0.00,,OVC003,0.00,VWS V14.01,2013-04-02 18:35:00,
2013-04-02 14:36:00,39.3,13.9,30.07,WSW,238,4.0,5.0,35,0.00,,OVC003,0.00,VWS V14.01,2013-04-02 18:36:00,
2013-04-02 14:37:00,39.4,13.4,30.07,NNW,330,5.0,6.0,34,0.00,,OVC003,0.00,VWS V14.01,2013-04-02 18:37:00,
2013-04-02 14:38:00,39.4,14.0,30.07,NNW,340,4.0,6.0,35,0.00,,OVC003,0.00,VWS V14.01,2013-04-02 18:38:00,
2013-04-02 14:39:00,39.5,14.1,30.07,ENE,66,3.0,6.0,35,0.00,,OVC003,0.00,VWS V14.01,2013-04-02 18:39:00,
2013-04-02 14:40:00,39.5,14.1,30.07,SSW,209,7.0,7.0,35,0.00,,OVC003,0.00,VWS V14.01,2013-04-02 18:40:00,
2013-04-02 14:41:00,39.6,14.2,30.07,WSW,248,9.0,10.0,35,0.00,,OVC003,0.00,VWS V14.01,2013-04-02 18:41:00,
2013-04-02 14:42:00,39.6,13.6,30.07,SE,140,5.0,13.0,34,0.00,,OVC003,0.00,VWS V14.01,2013-04-02 18:42:00,
2013-04-02 14:43:00,39.5,13.5,30.07,WSW,243,2.0,13.0,34,0.00,,OVC003,0.00,VWS V14.01,2013-04-02 18:43:00,
2013-04-02 14:44:00,39.5,13.5,30.08,WNW,283,3.0,13.0,34,0.00,,OVC003,0.00,VWS V14.01,2013-04-02 18:44:00,
2013-04-02 14:45:00,39.5,13.5,30.08,SW,219,4.0,4.0,34,0.00,,OVC003,0.00,VWS V14.01,2013-04-02 18:45:00,
2013-04-02 14:46:00,39.4,13.4,30.08,WSW,249,5.0,5.0,34,0.00,,OVC003,0.00,VWS V14.01,2013-04-02 18:46:00,
2013-04-02 14:47:00,39.3,13.3,30.08,WNW,288,5.0,5.0,34,0.00,,OVC003,0.00,VWS V14.01,2013-04-02 18:47:00,
2013-04-02 14:48:00,39.3,13.3,30.08,WNW,300,6.0,10.0,34,0.00,,OVC003,0.00,VWS V14.01,2013-04-02 18:48:00,
2013-04-02 14:49:00,39.2,13.2,30.08,NW,317,10.0,10.0,34,0.00,,OVC003,0.00,VWS V14.01,2013-04-02 18:49:00,
2013-04-02 14:50:00,39.2,13.2,30.08,WNW,294,7.0,10.0,34,0.00,,OVC003,0.00,VWS V14.01,2013-04-02 18:50:00,
2013-04-02 14:51:00,39.1,13.1,30.08,WNW,294,5.0,5.0,34,0.00,,OVC003,0.00,VWS V14.01,2013-04-02 18:51:00,
2013-04-02 14:52:00,39.1,13.1,30.08,NE,36,3.0,5.0,34,0.00,,OVC003,0.00,VWS V14.01,2013-04-02 18:52:00,
2013-04-02 14:53:00,39.1,13.1,30.08,ENE,78,3.0,5.0,34,0.00,,OVC003,0.00,VWS V14.01,2013-04-02 18:53:00,
2013-04-02 14:54:00,39.2,15.1,30.08,WNW,296,6.0,6.0,37,0.00,,OVC003,0.00,VWS V14.01,2013-04-02 18:54:00,
2013-04-02 14:55:00,39.3,15.2,30.08,West,263,8.0,8.0,37,0.00,,OVC003,0.00,VWS V14.01,2013-04-02 18:55:00,
2013-04-02 14:56:00,39.4,14.0,30.08,NW,317,7.0,7.0,35,0.00,,OVC003,0.00,VWS V14.01,2013-04-02 18:56:00,
2013-04-02 14:57:00,39.5,13.5,30.08,SW,224,4.0,6.0,34,0.00,,OVC003,0.00,VWS V14.01,2013-04-02 18:57:00,
2013-04-02 14:58:00,39.5,12.8,30.08,SW,216,2.0,11.0,33,0.00,,OVC003,0.00,VWS V14.01,2013-04-02 18:58:00,
2013-04-02 14:59:00,39.5,12.8,30.08,SSW,211,6.0,12.0,33,0.00,,OVC003,0.00,VWS V14.01,2013-04-02 18:59:00,
2013-04-02 15:00:00,39.4,12.7,30.08,West,259,5.0,12.0,33,0.00,,OVC003,0.00,VWS V14.01,2013-04-02 19:00:00,
2013-04-02 15:01:00,39.4,12.7,30.08,NW,317,6.0,9.0,33,0.00,,OVC003,0.00,VWS V14.01,2013-04-02 19:01:00,
2013-04-02 15:02:00,39.3,12.6,30.08,WNW,299,2.0,9.0,33,0.00,,OVC003,0.00,VWS V14.01,2013-04-02 19:02:00,
2013-04-02 15:03:00,39.2,12.5,30.08,WNW,298,2.0,9.0,33,0.00,,OVC003,0.00,VWS V14.01,2013-04-02 19:03:00,
2013-04-02 15:04:00,39.2,12.5,30.08,West,278,3.0,9.0,33,0.00,,OVC003,0.00,VWS V14.01,2013-04-02 19:04:00,
2013-04-02 15:05:00,39.2,12.5,30.08,ENE,66,2.0,9.0,33,0.00,,OVC003,0.00,VWS V14.01,2013-04-02 19:05:00,
2013-04-02 15:06:00,39.2,13.2,30.08,WNW,302,2.0,3.0,34,0.00,,OVC003,0.00,VWS V14.01,2013-04-02 19:06:00,
2013-04-02 15:08:00,39.2,13.2,30.08,NE,39,3.0,7.0,34,0.00,,OVC003,0.00,VWS V14.01,2013-04-02 19:08:00,
2013-04-02 15:09:00,39.3,13.9,30.08,ENE,64,4.0,7.0,35,0.00,,OVC003,0.00,VWS V14.01,2013-04-02 19:09:00,
2013-04-02 15:10:00,39.3,13.3,30.08,North,359,4.0,7.0,34,0.00,,OVC003,0.00,VWS V14.01,2013-04-02 19:10:00,
2013-04-02 15:11:00,39.4,13.4,30.08,North,350,4.0,4.0,34,0.00,,OVC003,0.00,VWS V14.01,2013-04-02 19:11:00,
2013-04-02 15:12:00,39.5,13.5,30.08,NNW,341,4.0,4.0,34,0.00,,OVC003,0.00,VWS V14.01,2013-04-02 19:12:00,
2013-04-02 15:13:00,39.5,13.5,30.08,East,79,5.0,5.0,34,0.00,,OVC003,0.00,VWS V14.01,2013-04-02 19:13:00,
2013-04-02 15:14:00,39.5,12.8,30.08,NE,48,2.0,7.0,33,0.00,,OVC003,0.00,VWS V14.01,2013-04-02 19:14:00,
2013-04-02 15:15:00,39.4,12.7,30.08,NE,39,7.0,7.0,33,0.00,,OVC003,0.00,VWS V14.01,2013-04-02 19:15:00,
2013-04-02 15:16:00,39.2,12.5,30.08,ENE,60,5.0,5.0,33,0.00,,OVC003,0.00,VWS V14.01,2013-04-02 19:16:00,
2013-04-02 15:17:00,39.1,13.1,30.08,NNW,345,5.0,5.0,34,0.00,,OVC003,0.00,VWS V14.01,2013-04-02 19:17:00,
2013-04-02 15:18:00,38.9,12.9,30.08,North,3,4.0,6.0,34,0.00,,OVC003,0.00,VWS V14.01,2013-04-02 19:18:00,
2013-04-02 15:19:00,38.9,13.6,30.08,North,3,2.0,6.0,35,0.00,,OVC003,0.00,VWS V14.01,2013-04-02 19:19:00,
2013-04-02 15:20:00,38.9,13.6,30.08,ENE,68,5.0,6.0,35,0.00,,OVC003,0.00,VWS V14.01,2013-04-02 19:20:00,
2013-04-02 15:21:00,38.7,12.8,30.08,NNE,24,4.0,6.0,34,0.00,,OVC003,0.00,VWS V14.01,2013-04-02 19:21:00,
2013-04-02 15:22:00,38.6,12.7,30.08,ENE,66,3.0,6.0,34,0.00,,OVC003,0.00,VWS V14.01,2013-04-02 19:22:00,
2013-04-02 15:23:00,38.6,12.7,30.08,WSW,253,5.0,6.0,34,0.00,,OVC003,0.00,VWS V14.01,2013-04-02 19:23:00,
2013-04-02 15:24:00,38.7,13.4,30.08,NNW,327,3.0,6.0,35,0.00,,OVC003,0.00,VWS V14.01,2013-04-02 19:24:00,
2013-04-02 15:25:00,38.7,13.4,30.08,NW,326,5.0,6.0,35,0.00,,OVC003,0.00,VWS V14.01,2013-04-02 19:25:00,
2013-04-02 15:26:00,38.8,13.5,30.08,NW,306,4.0,6.0,35,0.00,,OVC003,0.00,VWS V14.01,2013-04-02 19:26:00,
2013-04-02 15:27:00,38.9,13.6,30.08,NW,312,6.0,7.0,35,0.00,,OVC003,0.00,VWS V14.01,2013-04-02 19:27:00,
2013-04-02 15:28:00,38.9,12.9,30.08,NNE,18,6.0,7.0,34,0.00,,OVC003,0.00,VWS V14.01,2013-04-02 19:28:00,
2013-04-02 15:30:00,38.8,12.2,30.08,NNW,345,5.0,7.0,33,0.00,,OVC003,0.00,VWS V14.01,2013-04-02 19:30:00,
2013-04-02 15:31:00,38.5,12.6,30.08,SSE,166,3.0,4.0,34,0.00,,OVC003,0.00,VWS V14.01,2013-04-02 19:31:00,
2013-04-02 15:33:00,38.5,12.6,30.08,NW,326,5.0,5.0,34,0.00,,OVC003,0.00,VWS V14.01,2013-04-02 19:33:00,
2013-04-02 15:34:00,38.4,12.5,30.08,SSW,201,6.0,9.0,34,0.00,,OVC003,0.00,VWS V14.01,2013-04-02 19:34:00,
2013-04-02 15:35:00,38.3,12.4,30.08,WSW,256,8.0,9.0,34,0.00,,OVC003,0.00,VWS V14.01,2013-04-02 19:35:00,
2013-04-02 15:36:00,38.2,12.3,30.08,NNW,336,5.0,6.0,34,0.00,,OVC003,0.00,VWS V14.01,2013-04-02 19:36:00,
2013-04-02 15:37:00,38.2,12.3,30.08,South,184,6.0,6.0,34,0.00,,OVC003,0.00,VWS V14.01,2013-04-02 19:37:00,
2013-04-02 15:38:00,38.3,12.4,30.08,West,275,2.0,6.0,34,0.00,,OVC003,0.00,VWS V14.01,2013-04-02 19:38:00,
2013-04-02 15:39:00,38.3,12.4,30.08,SW,225,9.0,9.0,34,0.00,,OVC003,0.00,VWS V14.01,2013-04-02 19:39:00,
2013-04-02 15:40:00,38.3,12.4,30.08,WSW,238,8.0,13.0,34,0.00,,OVC003,0.00,VWS V14.01,2013-04-02 19:40:00,
2013-04-02 15:41:00,38.3,12.4,30.08,NE,41,4.0,9.0,34,0.00,,OVC003,0.00,VWS V14.01,2013-04-02 19:41:00,
2013-04-02 15:42:00,38.2,12.3,30.08,WNW,299,4.0,9.0,34,0.00,,OVC003,0.00,VWS V14.01,2013-04-02 19:42:00,
2013-04-02 15:43:00,38.1,12.2,30.08,ENE,74,7.0,9.0,34,0.00,,OVC003,0.00,VWS V14.01,2013-04-02 19:43:00,
2013-04-02 15:44:00,38.0,11.5,30.09,South,173,4.0,9.0,33,0.00,,OVC003,0.00,VWS V14.01,2013-04-02 19:44:00,
2013-04-02 15:45:00,38.0,11.5,30.09,West,263,4.0,4.0,33,0.00,,OVC003,0.00,VWS V14.01,2013-04-02 19:45:00,
2013-04-02 15:46:00,37.9,11.4,30.09,SW,232,7.0,7.0,33,0.00,,OVC003,0.00,VWS V14.01,2013-04-02 19:46:00,
2013-04-02 15:47:00,37.9,11.4,30.09,WSW,237,4.0,5.0,33,0.00,,OVC003,0.00,VWS V14.01,2013-04-02 19:47:00,
2013-04-02 15:48:00,37.9,12.1,30.09,SW,225,7.0,7.0,34,0.00,,OVC003,0.00,VWS V14.01,2013-04-02 19:48:00,
2013-04-02 15:49:00,37.9,12.1,30.09,WSW,251,5.0,9.0,34,0.00,,OVC003,0.00,VWS V14.01,2013-04-02 19:49:00,
2013-04-02 15:50:00,37.9,12.1,30.09,WNW,301,2.0,9.0,34,0.00,,OVC003,0.00,VWS V14.01,2013-04-02 19:50:00,
2013-04-02 15:51:00,37.9,12.1,30.09,West,274,3.0,9.0,34,0.00,,OVC003,0.00,VWS V14.01,2013-04-02 19:51:00,
2013-04-02 15:52:00,38.0,12.1,30.09,NNW,336,2.0,9.0,34,0.00,,OVC003,0.00,VWS V14.01,2013-04-02 19:52:00,
2013-04-02 15:53:00,38.0,12.1,30.09,NNW,343,6.0,9.0,34,0.00,,OVC003,0.00,VWS V14.01,2013-04-02 19:53:00,
2013-04-02 15:54:00,38.1,12.2,30.09,NE,39,5.0,9.0,34,0.00,,OVC003,0.00,VWS V14.01,2013-04-02 19:54:00,
2013-04-02 15:55:00,38.2,12.3,30.09,NNW,329,3.0,9.0,34,0.00,,OVC003,0.00,VWS V14.01,2013-04-02 19:55:00,
2013-04-02 15:56:00,38.2,12.3,30.09,North,1,2.0,3.0,34,0.00,,OVC003,0.00,VWS V14.01,2013-04-02 19:56:00,
2013-04-02 15:57:00,38.3,12.4,30.09,North,5,7.0,7.0,34,0.00,,OVC003,0.00,VWS V14.01,2013-04-02 19:57:00,
2013-04-02 15:58:00,38.3,11.7,30.09,WNW,299,5.0,5.0,33,0.00,,OVC003,0.00,VWS V14.01,2013-04-02 19:58:00,
2013-04-02 16:00:00,38.4,11.8,30.09,NNW,331,8.0,8.0,33,0.00,,OVC003,0.00,VWS V14.01,2013-04-02 20:00:00,
2013-04-02 16:01:00,38.4,12.5,30.09,NE,36,6.0,6.0,34,0.00,,OVC003,0.00,VWS V14.01,2013-04-02 20:01:00,
2013-04-02 16:02:00,38.4,11.8,30.09,North,1,5.0,6.0,33,0.00,,OVC003,0.00,VWS V14.01,2013-04-02 20:02:00,
2013-04-02 16:03:00,38.3,11.7,30.09,NW,317,5.0,6.0,33,0.00,,OVC003,0.00,VWS V14.01,2013-04-02 20:03:00,
2013-04-02 16:04:00,38.3,11.7,30.09,West,278,4.0,6.0,33,0.00,,OVC003,0.00,VWS V14.01,2013-04-02 20:04:00,
2013-04-02 16:05:00,38.3,11.7,30.09,West,278,3.0,6.0,33,0.00,,OVC003,0.00,VWS V14.01,2013-04-02 20:05:00,
2013-04-02 16:06:00,38.2,11.6,30.09,NNW,343,6.0,6.0,33,0.00,,OVC003,0.00,VWS V14.01,2013-04-02 20:06:00,
2013-04-02 16:07:00,38.2,11.6,30.09,West,265,5.0,5.0,33,0.00,,OVC003,0.00,VWS V14.01,2013-04-02 20:07:00,
2013-04-02 16:08:00,38.1,11.6,30.09,SW,225,2.0,6.0,33,0.00,,OVC003,0.00,VWS V14.01,2013-04-02 20:08:00,
2013-04-02 16:09:00,38.1,12.2,30.09,SW,223,4.0,6.0,34,0.00,,OVC003,0.00,VWS V14.01,2013-04-02 20:09:00,
2013-04-02 16:10:00,38.0,11.5,30.09,West,280,4.0,7.0,33,0.00,,OVC003,0.00,VWS V14.01,2013-04-02 20:10:00,
2013-04-02 16:11:00,38.0,11.5,30.09,SW,233,4.0,10.0,33,0.00,,OVC003,0.00,VWS V14.01,2013-04-02 20:11:00,
2013-04-02 16:12:00,38.1,11.6,30.09,East,87,2.0,10.0,33,0.00,,OVC003,0.00,VWS V14.01,2013-04-02 20:12:00,
2013-04-02 16:13:00,38.2,12.3,30.09,East,90,3.0,10.0,34,0.00,,OVC003,0.00,VWS V14.01,2013-04-02 20:13:00,
2013-04-02 16:14:00,38.3,12.4,30.09,NNW,336,7.0,10.0,34,0.00,,OVC003,0.00,VWS V14.01,2013-04-02 20:14:00,
2013-04-02 16:15:00,38.5,11.9,30.09,WNW,298,5.0,10.0,33,0.00,,OVC003,0.00,VWS V14.01,2013-04-02 20:15:00,
2013-04-02 16:16:00,38.6,12.0,30.09,SW,214,4.0,7.0,33,0.00,,OVC003,0.00,VWS V14.01,2013-04-02 20:16:00,
2013-04-02 16:17:00,38.8,12.2,30.09,SW,216,5.0,7.0,33,0.00,,OVC003,0.00,VWS V14.01,2013-04-02 20:17:00,
2013-04-02 16:18:00,39.0,11.7,30.09,SW,230,7.0,9.0,32,0.00,,OVC003,0.00,VWS V14.01,2013-04-02 20:18:00,
2013-04-02 16:19:00,39.2,12.5,30.09,North,8,7.0,9.0,33,0.00,,OVC003,0.00,VWS V14.01,2013-04-02 20:19:00,
2013-04-02 16:20:00,39.3,11.9,30.09,WNW,286,11.0,11.0,32,0.00,,OVC003,0.00,VWS V14.01,2013-04-02 20:20:00,
2013-04-02 16:21:00,39.4,12.0,30.09,NNW,334,5.0,9.0,32,0.00,,OVC003,0.00,VWS V14.01,2013-04-02 20:21:00,
2013-04-02 16:23:00,39.5,11.4,30.09,WNW,282,4.0,10.0,31,0.00,,OVC003,0.00,VWS V14.01,2013-04-02 20:23:00,
2013-04-02 16:24:00,39.5,11.4,30.09,NW,322,4.0,10.0,31,0.00,,OVC003,0.00,VWS V14.01,2013-04-02 20:24:00,
2013-04-02 16:25:00,39.4,11.3,30.09,SSW,206,6.0,10.0,31,0.00,,OVC003,0.00,VWS V14.01,2013-04-02 20:25:00,
2013-04-02 16:26:00,39.3,11.2,30.09,SSW,207,3.0,5.0,31,0.00,,OVC003,0.00,VWS V14.01,2013-04-02 20:26:00,
2013-04-02 16:27:00,39.3,11.9,30.09,SSW,210,6.0,11.0,32,0.00,,OVC003,0.00,VWS V14.01,2013-04-02 20:27:00,
2013-04-02 16:28:00,39.3,11.2,30.09,NW,306,6.0,11.0,31,0.00,,OVC003,0.00,VWS V14.01,2013-04-02 20:28:00,
2013-04-02 16:29:00,39.2,11.1,30.10,West,272,5.0,11.0,31,0.00,,OVC003,0.00,VWS V14.01,2013-04-02 20:29:00,
2013-04-02 16:30:00,39.2,11.1,30.10,West,273,2.0,11.0,31,0.00,,OVC003,0.00,VWS V14.01,2013-04-02 20:30:00,
2013-04-02 16:31:00,39.1,11.0,30.10,SW,236,5.0,5.0,31,0.00,,OVC003,0.00,VWS V14.01,2013-04-02 20:31:00,
2013-04-02 16:32:00,39.2,11.8,30.10,SW,236,4.0,4.0,32,0.00,,OVC003,0.00,VWS V14.01,2013-04-02 20:32:00,
2013-04-02 16:33:00,39.3,11.2,30.10,South,178,4.0,10.0,31,0.00,,OVC003,0.00,VWS V14.01,2013-04-02 20:33:00,
2013-04-02 16:35:00,39.3,11.2,30.10,South,183,2.0,10.0,31,0.00,,OVC003,0.00,VWS V14.01,2013-04-02 20:35:00,
2013-04-02 16:36:00,39.4,11.3,30.10,SSW,210,2.0,2.0,31,0.00,,OVC003,0.00,VWS V14.01,2013-04-02 20:36:00,
2013-04-02 16:37:00,39.4,11.3,30.10,NW,306,3.0,4.0,31,0.00,,OVC003,0.00,VWS V14.01,2013-04-02 20:37:00,
2013-04-02 16:38:00,39.5,12.1,30.10,SW,216,7.0,8.0,32,0.00,,OVC003,0.00,VWS V14.01,2013-04-02 20:38:00,
2013-04-02 16:39:00,39.5,11.4,30.10,NNW,341,4.0,8.0,31,0.00,,OVC003,0.00,VWS V14.01,2013-04-02 20:39:00,
2013-04-02 16:40:00,39.4,11.3,30.10,WSW,247,11.0,11.0,31,0.00,,OVC003,0.00,VWS V14.01,2013-04-02 20:40:00,
2013-04-02 16:41:00,39.4,11.3,30.10,WSW,249,4.0,9.0,31,0.00,,OVC003,0.00,VWS V14.01,2013-04-02 20:41:00,
2013-04-02 16:42:00,39.3,11.9,30.10,WNW,286,4.0,9.0,32,0.00,,OVC003,0.00,VWS V14.01,2013-04-02 20:42:00,
2013-04-02 16:43:00,39.3,11.9,30.10,ESE,114,2.0,9.0,32,0.00,,OVC003,0.00,VWS V14.01,2013-04-02 20:43:00,
2013-04-02 16:45:00,39.3,11.9,30.10,North,5,6.0,9.0,32,0.00,,OVC003,0.00,VWS V14.01,2013-04-02 20:45:00,
2013-04-02 16:47:00,39.2,11.1,30.10,West,263,4.0,7.0,31,0.00,,OVC003,0.00,VWS V14.01,2013-04-02 20:47:00,
2013-04-02 16:48:00,39.2,11.1,30.10,North,351,5.0,7.0,31,0.00,,OVC003,0.00,VWS V14.01,2013-04-02 20:48:00,
2013-04-02 16:49:00,39.1,11.8,30.10,North,2,6.0,7.0,32,0.00,,OVC003,0.00,VWS V14.01,2013-04-02 20:49:00,
2013-04-02 16:50:00,39.1,11.8,30.10,NNE,33,6.0,7.0,32,0.00,,OVC003,0.00,VWS V14.01,2013-04-02 20:50:00,
2013-04-02 16:51:00,39.0,11.7,30.10,SSE,160,16.0,16.0,32,0.00,,OVC003,0.00,VWS V14.01,2013-04-02 20:51:00,
2013-04-02 16:53:00,38.9,11.6,30.10,SW,220,4.0,14.0,32,0.00,,OVC003,0.00,VWS V14.01,2013-04-02 20:53:00,
2013-04-02 16:54:00,38.9,10.9,30.10,West,266,6.0,14.0,31,0.00,,OVC003,0.00,VWS V14.01,2013-04-02 20:54:00,
2013-04-02 16:55:00,38.9,11.6,30.10,WNW,297,4.0,14.0,32,0.00,,OVC003,0.00,VWS V14.01,2013-04-02 20:55:00,
2013-04-02 16:56:00,38.9,11.6,30.10,West,270,5.0,5.0,32,0.00,,OVC003,0.00,VWS V14.01,2013-04-02 20:56:00,
2013-04-02 16:57:00,39.0,11.7,30.10,WSW,255,6.0,9.0,32,0.00,,OVC003,0.00,VWS V14.01,2013-04-02 20:57:00,
2013-04-02 16:58:00,39.0,11.7,30.10,WNW,290,2.0,9.0,32,0.00,,OVC003,0.00,VWS V14.01,2013-04-02 20:58:00,
2013-04-02 16:59:00,39.0,11.7,30.11,WSW,245,5.0,9.0,32,0.00,,OVC003,0.00,VWS V14.01,2013-04-02 20:59:00,
2013-04-02 17:00:00,39.0,11.7,30.11,NNW,327,2.0,9.0,32,0.00,,OVC003,0.00,VWS V14.01,2013-04-02 21:00:00,
2013-04-02 17:01:00,39.1,11.8,30.11,North,357,2.0,4.0,32,0.00,,OVC003,0.00,VWS V14.01,2013-04-02 21:01:00,
2013-04-02 17:02:00,39.1,11.0,30.11,NW,312,4.0,8.0,31,0.00,,OVC003,0.00,VWS V14.01,2013-04-02 21:02:00,
2013-04-02 17:03:00,39.1,11.0,30.11,SW,223,4.0,9.0,31,0.00,,OVC003,0.00,VWS V14.01,2013-04-02 21:03:00,
2013-04-02 17:04:00,39.1,11.0,30.11,NW,305,5.0,9.0,31,0.00,,OVC003,0.00,VWS V14.01,2013-04-02 21:04:00,
2013-04-02 17:05:00,39.0,10.9,30.11,North,355,6.0,9.0,31,0.00,,OVC003,0.00,VWS V14.01,2013-04-02 21:05:00,
2013-04-02 17:06:00,39.0,11.7,30.11,North,357,2.0,4.0,32,0.00,,OVC003,0.00,VWS V14.01,2013-04-02 21:06:00,
2013-04-02 17:07:00,39.0,11.7,30.11,WNW,284,3.0,4.0,32,0.00,,OVC003,0.00,VWS V14.01,2013-04-02 21:07:00,
2013-04-02 17:08:00,39.0,11.7,30.11,WNW,284,4.0,4.0,32,0.00,,OVC003,0.00,VWS V14.01,2013-04-02 21:08:00,
2013-04-02 17:09:00,39.0,11.7,30.11,WNW,283,3.0,4.0,32,0.00,,OVC003,0.00,VWS V14.01,2013-04-02 21:09:00,
2013-04-02 17:10:00,39.1,11.8,30.11,WNW,284,2.0,4.0,32,0.00,,OVC003,0.00,VWS V14.01,2013-04-02 21:10:00,
2013-04-02 17:11:00,39.1,11.8,30.11,West,270,2.0,2.0,32,0.00,,OVC003,0.00,VWS V14.01,2013-04-02 21:11:00,
2013-04-02 17:12:00,39.1,11.8,30.11,ENE,60,3.0,6.0,32,0.00,,OVC003,0.00,VWS V14.01,2013-04-02 21:12:00,
2013-04-02 17:13:00,39.1,11.0,30.11,WNW,290,3.0,6.0,31,0.00,,OVC003,0.00,VWS V14.01,2013-04-02 21:13:00,
2013-04-02 17:14:00,39.1,11.0,30.12,West,266,4.0,9.0,31,0.00,,OVC003,0.00,VWS V14.01,2013-04-02 21:14:00,
2013-04-02 17:15:00,39.0,10.9,30.12,WNW,301,3.0,9.0,31,0.00,,OVC003,0.00,VWS V14.01,2013-04-02 21:15:00,
2013-04-02 17:16:00,38.8,10.8,30.12,ENE,76,4.0,4.0,31,0.00,,OVC003,0.00,VWS V14.01,2013-04-02 21:16:00,
2013-04-02 17:17:00,38.7,11.4,30.12,WSW,241,6.0,6.0,32,0.00,,OVC003,0.00,VWS V14.01,2013-04-02 21:17:00,
2013-04-02 17:18:00,38.6,11.3,30.12,ENE,70,5.0,5.0,32,0.00,,OVC003,0.00,VWS V14.01,2013-04-02 21:18:00,
2013-04-02 17:20:00,38.3,11.7,30.12,SW,226,6.0,6.0,33,0.00,,OVC003,0.00,VWS V14.01,2013-04-02 21:20:00,
2013-04-02 17:21:00,38.1,10.9,30.12,ENE,74,6.0,6.0,32,0.00,,OVC003,0.00,VWS V14.01,2013-04-02 21:21:00,
2013-04-02 17:22:00,37.9,10.7,30.12,ENE,58,4.0,5.0,32,0.00,,OVC003,0.00,VWS V14.01,2013-04-02 21:22:00,
2013-04-02 17:23:00,37.7,11.2,30.12,NNE,28,2.0,5.0,33,0.00,,OVC003,0.00,VWS V14.01,2013-04-02 21:23:00,
2013-04-02 17:25:00,37.6,11.1,30.12,NW,304,8.0,8.0,33,0.00,,OVC003,0.00,VWS V14.01,2013-04-02 21:25:00,
2013-04-02 17:26:00,37.4,10.9,30.12,NE,36,3.0,6.0,33,0.00,,OVC003,0.00,VWS V14.01,2013-04-02 21:26:00,
2013-04-02 17:27:00,37.3,11.5,30.12,WNW,299,6.0,6.0,34,0.00,,OVC003,0.00,VWS V14.01,2013-04-02 21:27:00,
2013-04-02 17:29:00,37.2,11.4,30.12,WSW,238,2.0,6.0,34,0.00,,OVC003,0.00,VWS V14.01,2013-04-02 21:29:00,
2013-04-02 17:30:00,37.2,11.4,30.12,WSW,238,2.0,6.0,34,0.00,,OVC003,0.00,VWS V14.01,2013-04-02 21:30:00,
2013-04-02 17:31:00,37.2,11.4,30.12,WSW,239,3.0,3.0,34,0.00,,OVC003,0.00,VWS V14.01,2013-04-02 21:31:00,
2013-04-02 17:32:00,37.2,11.4,30.12,WNW,299,4.0,4.0,34,0.00,,OVC003,0.00,VWS V14.01,2013-04-02 21:32:00,
2013-04-02 17:33:00,37.2,11.4,30.12,West,276,4.0,12.0,34,0.00,,OVC003,0.00,VWS V14.01,2013-04-02 21:33:00,
2013-04-02 17:34:00,37.2,11.4,30.12,NNW,333,8.0,12.0,34,0.00,,OVC003,0.00,VWS V14.01,2013-04-02 21:34:00,
2013-04-02 17:35:00,37.2,11.4,30.12,WSW,256,3.0,12.0,34,0.00,,OVC003,0.00,VWS V14.01,2013-04-02 21:35:00,
2013-04-02 17:36:00,37.1,11.3,30.12,East,82,2.0,2.0,34,0.00,,OVC003,0.00,VWS V14.01,2013-04-02 21:36:00,
2013-04-02 17:37:00,37.1,11.3,30.12,WNW,303,5.0,7.0,34,0.00,,OVC003,0.00,VWS V14.01,2013-04-02 21:37:00,
2013-04-02 17:38:00,37.0,11.2,30.12,WSW,243,2.0,7.0,34,0.00,,OVC003,0.00,VWS V14.01,2013-04-02 21:38:00,
2013-04-02 17:39:00,36.9,11.2,30.12,SW,234,4.0,7.0,34,0.00,,OVC003,0.00,VWS V14.01,2013-04-02 21:39:00,
2013-04-02 17:40:00,36.8,11.1,30.12,WNW,297,4.0,4.0,34,0.00,,OVC003,0.00,VWS V14.01,2013-04-02 21:40:00,
2013-04-02 17:41:00,36.7,11.6,30.12,NNW,338,7.0,7.0,35,0.00,,OVC003,0.00,VWS V14.01,2013-04-02 21:41:00,
2013-04-02 17:42:00,36.6,11.6,30.12,NW,312,4.0,5.0,35,0.00,,OVC003,0.00,VWS V14.01,2013-04-02 21:42:00,
2013-04-02 17:43:00,36.5,11.5,30.12,ENE,60,5.0,5.0,35,0.00,,OVC003,0.00,VWS V14.01,2013-04-02 21:43:00,
2013-04-02 17:44:00,36.4,10.7,30.12,ENE,60,8.0,8.0,34,0.00,,OVC003,0.00,VWS V14.01,2013-04-02 21:44:00,
2013-04-02 17:45:00,36.4,10.7,30.12,NNW,330,6.0,6.0,34,0.00,,OVC003,0.00,VWS V14.01,2013-04-02 21:45:00,
2013-04-02 17:46:00,36.2,11.2,30.12,ENE,64,6.0,6.0,35,0.00,,OVC003,0.00,VWS V14.01,2013-04-02 21:46:00,
2013-04-02 17:47:00,36.2,11.2,30.12,South,186,4.0,6.0,35,0.00,,OVC003,0.00,VWS V14.01,2013-04-02 21:47:00,
2013-04-02 17:48:00,36.2,11.8,30.12,South,170,2.0,6.0,36,0.00,,OVC003,0.00,VWS V14.01,2013-04-02 21:48:00,
2013-04-02 17:50:00,36.2,11.2,30.12,North,3,4.0,6.0,35,0.00,,OVC003,0.00,VWS V14.01,2013-04-02 21:50:00,
2013-04-02 17:52:00,36.2,11.2,30.12,WSW,253,4.0,5.0,35,0.00,,OVC003,0.00,VWS V14.01,2013-04-02 21:52:00,
2013-04-02 17:53:00,36.2,11.2,30.12,WSW,253,2.0,5.0,35,0.00,,OVC003,0.00,VWS V14.01,2013-04-02 21:53:00,
2013-04-02 17:54:00,36.2,11.2,30.12,WSW,253,3.0,5.0,35,0.00,,OVC003,0.00,VWS V14.01,2013-04-02 21:54:00,
2013-04-02 17:55:00,36.2,11.2,30.12,West,280,2.0,5.0,35,0.00,,OVC003,0.00,VWS V14.01,2013-04-02 21:55:00,
2013-04-02 17:56:00,36.2,11.2,30.12,WSW,257,6.0,6.0,35,0.00,,OVC003,0.00,VWS V14.01,2013-04-02 21:56:00,
2013-04-02 17:57:00,36.2,11.2,30.12,West,271,2.0,5.0,35,0.00,,OVC003,0.00,VWS V14.01,2013-04-02 21:57:00,
2013-04-02 17:58:00,36.2,11.2,30.12,West,271,2.0,5.0,35,0.00,,OVC003,0.00,VWS V14.01,2013-04-02 21:58:00,
2013-04-02 17:59:00,36.2,11.2,30.12,West,281,4.0,5.0,35,0.00,,OVC003,0.00,VWS V14.01,2013-04-02 21:59:00,
2013-04-02 18:00:00,36.2,11.2,30.14,WSW,243,5.0,6.0,35,0.00,,OVC003,0.00,VWS V14.01,2013-04-02 22:00:00,
2013-04-02 18:02:00,36.2,11.2,30.14,WSW,257,5.0,10.0,35,0.00,,OVC003,0.00,VWS V14.01,2013-04-02 22:02:00,
2013-04-02 18:03:00,36.1,10.5,30.14,NW,306,4.0,10.0,34,0.00,,OVC003,0.00,VWS V14.01,2013-04-02 22:03:00,
2013-04-02 18:04:00,36.1,11.1,30.14,WSW,253,7.0,10.0,35,0.00,,OVC003,0.00,VWS V14.01,2013-04-02 22:04:00,
2013-04-02 18:05:00,36.0,11.0,30.14,NW,308,3.0,10.0,35,0.00,,OVC003,0.00,VWS V14.01,2013-04-02 22:05:00,
2013-04-02 18:06:00,35.9,10.9,30.14,NW,317,2.0,4.0,35,0.00,,OVC003,0.00,VWS V14.01,2013-04-02 22:06:00,
2013-04-02 18:07:00,35.9,10.9,30.14,West,259,5.0,5.0,35,0.00,,OVC003,0.00,VWS V14.01,2013-04-02 22:07:00,
2013-04-02 18:08:00,35.8,10.8,30.14,NNW,341,4.0,9.0,35,0.00,,OVC003,0.00,VWS V14.01,2013-04-02 22:08:00,
2013-04-02 18:09:00,35.7,10.8,30.14,NNW,347,4.0,9.0,35,0.00,,OVC003,0.00,VWS V14.01,2013-04-02 22:09:00,
2013-04-02 18:10:00,35.7,10.8,30.14,NW,312,6.0,9.0,35,0.00,,OVC003,0.00,VWS V14.01,2013-04-02 22:10:00,
2013-04-02 18:11:00,35.6,11.3,30.14,NNW,331,3.0,4.0,36,0.00,,OVC003,0.00,VWS V14.01,2013-04-02 22:11:00,
2013-04-02 18:12:00,35.6,11.3,30.14,WSW,244,3.0,4.0,36,0.00,,OVC003,0.00,VWS V14.01,2013-04-02 22:12:00,
2013-04-02 18:13:00,35.5,11.2,30.14,SSW,203,2.0,4.0,36,0.00,,OVC003,0.00,VWS V14.01,2013-04-02 22:13:00,
2013-04-02 18:15:00,35.5,11.8,30.14,West,267,3.0,3.0,37,0.00,,OVC003,0.00,VWS V14.01,2013-04-02 22:15:00,
2013-04-02 18:16:00,35.4,11.7,30.14,South,190,2.0,3.0,37,0.00,,OVC003,0.00,VWS V14.01,2013-04-02 22:16:00,
2013-04-02 18:17:00,35.4,11.7,30.14,South,182,3.0,3.0,37,0.00,,OVC003,0.00,VWS V14.01,2013-04-02 22:17:00,
2013-04-02 18:18:00,35.3,11.6,30.14,WNW,293,5.0,5.0,37,0.00,,OVC003,0.00,VWS V14.01,2013-04-02 22:18:00,
2013-04-02 18:19:00,35.3,11.6,30.14,NW,312,3.0,7.0,37,0.00,,OVC003,0.00,VWS V14.01,2013-04-02 22:19:00,
2013-04-02 18:20:00,35.2,11.6,30.14,North,358,4.0,7.0,37,0.00,,OVC003,0.00,VWS V14.01,2013-04-02 22:20:00,
2013-04-02 18:21:00,35.2,11.6,30.14,NW,317,4.0,4.0,37,0.00,,OVC003,0.00,VWS V14.01,2013-04-02 22:21:00,
2013-04-02 18:22:00,35.2,11.6,30.14,West,280,4.0,4.0,37,0.00,,OVC003,0.00,VWS V14.01,2013-04-02 22:22:00,
2013-04-02 18:23:00,35.1,11.5,30.14,NNE,27,7.0,7.0,37,0.00,,OVC003,0.00,VWS V14.01,2013-04-02 22:23:00,
2013-04-02 18:24:00,35.0,11.4,30.14,WNW,299,3.0,10.0,37,0.00,,OVC003,0.00,VWS V14.01,2013-04-02 22:24:00,
2013-04-02 18:25:00,34.9,11.3,30.14,NE,36,4.0,10.0,37,0.00,,OVC003,0.00,VWS V14.01,2013-04-02 22:25:00,
2013-04-02 18:26:00,34.8,11.2,30.14,WNW,287,4.0,4.0,37,0.00,,OVC003,0.00,VWS V14.01,2013-04-02 22:26:00,
2013-04-02 18:27:00,34.7,11.1,30.14,West,274,3.0,3.0,37,0.00,,OVC003,0.00,VWS V14.01,2013-04-02 22:27:00,
2013-04-02 18:28:00,34.7,11.7,30.14,NW,312,5.0,5.0,38,0.00,,OVC003,0.00,VWS V14.01,2013-04-02 22:28:00,
2013-04-02 18:29:00,34.5,10.9,30.15,WSW,257,4.0,5.0,37,0.00,,OVC003,0.00,VWS V14.01,2013-04-02 22:29:00,
2013-04-02 18:30:00,34.5,11.5,30.15,WSW,257,2.0,5.0,38,0.00,,OVC003,0.00,VWS V14.01,2013-04-02 22:30:00,
2013-04-02 18:31:00,34.4,11.4,30.15,NW,312,9.0,9.0,38,0.00,,OVC003,0.00,VWS V14.01,2013-04-02 22:31:00,
2013-04-02 18:32:00,34.4,10.8,30.15,NNW,332,3.0,7.0,37,0.00,,OVC003,0.00,VWS V14.01,2013-04-02 22:32:00,
2013-04-02 18:33:00,34.4,10.8,30.15,NW,312,5.0,7.0,37,0.00,,OVC003,0.00,VWS V14.01,2013-04-02 22:33:00,
2013-04-02 18:34:00,34.4,11.4,30.15,NNE,24,5.0,7.0,38,0.00,,OVC003,0.00,VWS V14.01,2013-04-02 22:34:00,
2013-04-02 18:35:00,34.4,11.4,30.15,NNE,33,2.0,7.0,38,0.00,,OVC003,0.00,VWS V14.01,2013-04-02 22:35:00,
2013-04-02 18:36:00,34.3,11.4,30.15,NNE,33,3.0,3.0,38,0.00,,OVC003,0.00,VWS V14.01,2013-04-02 22:36:00,
2013-04-02 18:37:00,34.3,11.9,30.15,NW,326,3.0,3.0,39,0.00,,OVC003,0.00,VWS V14.01,2013-04-02 22:37:00,
2013-04-02 18:38:00,34.2,11.3,30.15,South,191,2.0,5.0,38,0.00,,OVC003,0.00,VWS V14.01,2013-04-02 22:38:00,
2013-04-02 18:40:00,34.1,11.8,30.15,South,191,2.0,5.0,39,0.00,,OVC003,0.00,VWS V14.01,2013-04-02 22:40:00,
2013-04-02 18:41:00,34.0,11.1,30.15,ESE,113,2.0,2.0,38,0.00,,OVC003,0.00,VWS V14.01,2013-04-02 22:41:00,
2013-04-02 18:42:00,33.9,11.0,30.15,NE,53,2.0,3.0,38,0.00,,OVC003,0.00,VWS V14.01,2013-04-02 22:42:00,
2013-04-02 18:43:00,33.9,11.6,30.15,NE,53,2.0,3.0,39,0.00,,OVC003,0.00,VWS V14.01,2013-04-02 22:43:00,
2013-04-02 18:44:00,33.8,11.5,30.16,NE,43,4.0,4.0,39,0.00,,OVC003,0.00,VWS V14.01,2013-04-02 22:44:00,
2013-04-02 18:45:00,33.8,11.5,30.16,ESE,112,4.0,4.0,39,0.00,,OVC003,0.00,VWS V14.01,2013-04-02 22:45:00,
2013-04-02 18:46:00,33.8,11.5,30.16,NNE,18,3.0,5.0,39,0.00,,OVC003,0.00,VWS V14.01,2013-04-02 22:46:00,
2013-04-02 18:47:00,33.7,11.4,30.16,NNE,17,2.0,5.0,39,0.00,,OVC003,0.00,VWS V14.01,2013-04-02 22:47:00,
2013-04-02 18:48:00,33.7,11.4,30.16,NNE,18,2.0,5.0,39,0.00,,OVC003,0.00,VWS V14.01,2013-04-02 22:48:00,
2013-04-02 18:49:00,33.6,11.3,30.16,NE,39,3.0,5.0,39,0.00,,OVC003,0.00,VWS V14.01,2013-04-02 22:49:00,
2013-04-02 18:50:00,33.5,11.2,30.16,NE,39,3.0,5.0,39,0.00,,OVC003,0.00,VWS V14.01,2013-04-02 22:50:00,
2013-04-02 18:51:00,33.5,11.2,30.16,North,3,7.0,7.0,39,0.00,,OVC003,0.00,VWS V14.01,2013-04-02 22:51:00,
2013-04-02 18:52:00,33.4,11.1,30.16,West,260,5.0,6.0,39,0.00,,OVC003,0.00,VWS V14.01,2013-04-02 22:52:00,
2013-04-02 18:53:00,33.4,11.1,30.16,NE,55,3.0,6.0,39,0.00,,OVC003,0.00,VWS V14.01,2013-04-02 22:53:00,
2013-04-02 18:55:00,33.3,11.0,30.16,WNW,282,2.0,6.0,39,0.00,,OVC003,0.00,VWS V14.01,2013-04-02 22:55:00,
2013-04-02 18:56:00,33.3,11.6,30.16,WNW,282,2.0,2.0,40,0.00,,OVC003,0.00,VWS V14.01,2013-04-02 22:56:00,
2013-04-02 18:57:00,33.2,11.5,30.16,East,94,4.0,4.0,40,0.00,,OVC003,0.00,VWS V14.01,2013-04-02 22:57:00,
2013-04-02 18:58:00,33.2,11.5,30.16,SE,137,2.0,3.0,40,0.00,,OVC003,0.00,VWS V14.01,2013-04-02 22:58:00,
2013-04-02 18:59:00,33.2,11.5,30.16,ENE,77,2.0,4.0,40,0.00,,OVC003,0.00,VWS V14.01,2013-04-02 22:59:00,
2013-04-02 19:00:00,33.1,11.4,30.16,NNE,32,2.0,4.0,40,0.00,,OVC003,0.00,VWS V14.01,2013-04-02 23:00:00,
2013-04-02 19:01:00,33.0,11.3,30.16,NNE,25,2.0,3.0,40,0.00,,OVC003,0.00,VWS V14.01,2013-04-02 23:01:00,
2013-04-02 19:02:00,33.0,11.9,30.16,NW,306,2.0,3.0,41,0.00,,OVC003,0.00,VWS V14.01,2013-04-02 23:02:00,
2013-04-02 19:03:00,33.0,11.9,30.16,NW,306,2.0,3.0,41,0.00,,OVC003,0.00,VWS V14.01,2013-04-02 23:03:00,
2013-04-02 19:04:00,32.9,11.8,30.16,NW,306,2.0,3.0,41,0.00,,OVC003,0.00,VWS V14.01,2013-04-02 23:04:00,
2013-04-02 19:05:00,32.9,11.8,30.16,NW,306,2.0,3.0,41,0.00,,OVC003,0.00,VWS V14.01,2013-04-02 23:05:00,
2013-04-02 19:06:00,32.9,12.3,30.16,NW,306,2.0,2.0,42,0.00,,OVC003,0.00,VWS V14.01,2013-04-02 23:06:00,
2013-04-02 19:07:00,32.8,12.2,30.16,NW,306,2.0,2.0,42,0.00,,OVC003,0.00,VWS V14.01,2013-04-02 23:07:00,
2013-04-02 19:08:00,32.8,12.2,30.16,NW,306,2.0,2.0,42,0.00,,OVC003,0.00,VWS V14.01,2013-04-02 23:08:00,
2013-04-02 19:10:00,32.7,12.2,30.16,South,172,5.0,5.0,42,0.00,,OVC003,0.00,VWS V14.01,2013-04-02 23:10:00,
2013-04-02 19:12:00,32.5,12.0,30.16,North,0,5.0,5.0,42,0.00,,OVC003,0.00,VWS V14.01,2013-04-02 23:12:00,
2013-04-02 19:13:00,32.5,11.4,30.16,NE,40,3.0,4.0,41,0.00,,OVC003,0.00,VWS V14.01,2013-04-02 23:13:00,
2013-04-02 19:14:00,32.5,11.4,30.17,NE,40,2.0,4.0,41,0.00,,OVC003,0.00,VWS V14.01,2013-04-02 23:14:00,
2013-04-02 19:15:00,32.5,11.4,30.17,NE,40,2.0,4.0,41,0.00,,OVC003,0.00,VWS V14.01,2013-04-02 23:15:00,
2013-04-02 19:16:00,32.4,11.9,30.17,NE,40,2.0,2.0,42,0.00,,OVC003,0.00,VWS V14.01,2013-04-02 23:16:00,
2013-04-02 19:17:00,32.4,11.3,30.17,NE,39,2.0,2.0,41,0.00,,OVC003,0.00,VWS V14.01,2013-04-02 23:17:00,
2013-04-02 19:18:00,32.3,11.8,30.17,ENE,64,2.0,3.0,42,0.00,,OVC003,0.00,VWS V14.01,2013-04-02 23:18:00,
2013-04-02 19:20:00,32.3,11.8,30.17,NNE,33,2.0,3.0,42,0.00,,OVC003,0.00,VWS V14.01,2013-04-02 23:20:00,
2013-04-02 19:21:00,32.2,11.7,30.17,NNW,343,2.0,3.0,42,0.00,,OVC003,0.00,VWS V14.01,2013-04-02 23:21:00,
2013-04-02 19:22:00,32.2,11.7,30.17,NNW,343,2.0,3.0,42,0.00,,OVC003,0.00,VWS V14.01,2013-04-02 23:22:00,
2013-04-02 19:23:00,32.1,11.6,30.17,NNW,343,2.0,3.0,42,0.00,,OVC003,0.00,VWS V14.01,2013-04-02 23:23:00,
2013-04-02 19:24:00,32.1,11.6,30.17,NNW,343,2.0,3.0,42,0.00,,OVC003,0.00,VWS V14.01,2013-04-02 23:24:00,
2013-04-02 19:25:00,32.1,11.6,30.17,NNW,343,2.0,3.0,42,0.00,,OVC003,0.00,VWS V14.01,2013-04-02 23:25:00,
2013-04-02 19:26:00,32.1,12.1,30.17,NNW,344,2.0,0.0,43,0.00,,OVC003,0.00,VWS V14.01,2013-04-02 23:26:00,
2013-04-02 19:27:00,32.0,12.1,30.17,NNW,344,2.0,0.0,43,0.00,,OVC003,0.00,VWS V14.01,2013-04-02 23:27:00,
2013-04-02 19:28:00,31.9,11.4,30.17,NNW,343,2.0,0.0,42,0.00,,OVC003,0.00,VWS V14.01,2013-04-02 23:28:00,
2013-04-02 19:29:00,31.9,11.4,30.17,NNW,343,2.0,0.0,42,0.00,,OVC003,0.00,VWS V14.01,2013-04-02 23:29:00,
2013-04-02 19:30:00,31.9,12.0,30.17,NNW,343,2.0,2.0,43,0.00,,OVC003,0.00,VWS V14.01,2013-04-02 23:30:00,
2013-04-02 19:31:00,31.8,11.9,30.17,NNW,343,2.0,0.0,43,0.00,,OVC003,0.00,VWS V14.01,2013-04-02 23:31:00,
2013-04-02 19:32:00,31.8,11.9,30.17,NNW,343,2.0,0.0,43,0.00,,OVC003,0.00,VWS V14.01,2013-04-02 23:32:00,
2013-04-02 19:33:00,31.8,11.9,30.17,NNW,343,2.0,0.0,43,0.00,,OVC003,0.00,VWS V14.01,2013-04-02 23:33:00,
2013-04-02 19:34:00,31.7,11.8,30.17,NNW,344,2.0,0.0,43,0.00,,OVC003,0.00,VWS V14.01,2013-04-02 23:34:00,
2013-04-02 19:35:00,31.7,11.8,30.17,NNW,343,2.0,0.0,43,0.00,,OVC003,0.00,VWS V14.01,2013-04-02 23:35:00,
2013-04-02 19:36:00,31.6,11.7,30.17,NNW,333,2.0,2.0,43,0.00,,OVC003,0.00,VWS V14.01,2013-04-02 23:36:00,
2013-04-02 19:38:00,31.6,11.7,30.17,NW,312,2.0,2.0,43,0.00,,OVC003,0.00,VWS V14.01,2013-04-02 23:38:00,
2013-04-02 19:40:00,31.5,11.6,30.17,NW,308,2.0,2.0,43,0.00,,OVC003,0.00,VWS V14.01,2013-04-02 23:40:00,
2013-04-02 19:41:00,31.4,12.0,30.17,NW,307,2.0,0.0,44,0.00,,OVC003,0.00,VWS V14.01,2013-04-02 23:41:00,
2013-04-02 19:42:00,31.4,11.5,30.17,North,6,4.0,4.0,43,0.00,,OVC003,0.00,VWS V14.01,2013-04-02 23:42:00,
2013-04-02 19:43:00,31.4,11.5,30.17,North,6,2.0,2.0,43,0.00,,OVC003,0.00,VWS V14.01,2013-04-02 23:43:00,
2013-04-02 19:44:00,31.4,11.5,30.17,North,6,2.0,2.0,43,0.00,,OVC003,0.00,VWS V14.01,2013-04-02 23:44:00,
2013-04-02 19:45:00,31.4,12.0,30.17,North,6,2.0,2.0,44,0.00,,OVC003,0.00,VWS V14.01,2013-04-02 23:45:00,
2013-04-02 19:46:00,31.3,11.9,30.17,North,6,2.0,0.0,44,0.00,,OVC003,0.00,VWS V14.01,2013-04-02 23:46:00,
2013-04-02 19:47:00,31.2,11.8,30.17,North,5,2.0,0.0,44,0.00,,OVC003,0.00,VWS V14.01,2013-04-02 23:47:00,
2013-04-02 19:48:00,31.2,12.4,30.17,WNW,299,3.0,3.0,45,0.00,,OVC003,0.00,VWS V14.01,2013-04-02 23:48:00,
2013-04-02 19:49:00,31.2,11.8,30.17,WNW,299,3.0,3.0,44,0.00,,OVC003,0.00,VWS V14.01,2013-04-02 23:49:00,
2013-04-02 19:50:00,31.1,11.8,30.17,WNW,299,2.0,0.0,44,0.00,,OVC003,0.00,VWS V14.01,2013-04-02 23:50:00,
2013-04-02 19:51:00,31.1,11.8,30.17,WNW,298,2.0,0.0,44,0.00,,OVC003,0.00,VWS V14.01,2013-04-02 23:51:00,
2013-04-02 19:52:00,31.0,11.7,30.17,WNW,299,3.0,3.0,44,0.00,,OVC003,0.00,VWS V14.01,2013-04-02 23:52:00,
2013-04-02 19:53:00,31.0,12.2,30.17,WNW,298,2.0,2.0,45,0.00,,OVC003,0.00,VWS V14.01,2013-04-02 23:53:00,
2013-04-02 19:55:00,31.0,12.2,30.17,WNW,298,2.0,2.0,45,0.00,,OVC003,0.00,VWS V14.01,2013-04-02 23:55:00,
2013-04-02 19:57:00,30.9,12.1,30.17,WNW,298,2.0,2.0,45,0.00,,OVC003,0.00,VWS V14.01,2013-04-02 23:57:00,
2013-04-02 19:58:00,30.8,12.0,30.17,WNW,298,2.0,2.0,45,0.00,,OVC003,0.00,VWS V14.01,2013-04-02 23:58:00,
2013-04-02 19:59:00,30.8,12.5,30.18,WNW,299,2.0,2.0,46,0.00,,OVC003,0.00,VWS V14.01,2013-04-02 23:59:00,
2013-04-02 20:00:00,30.8,12.5,30.18,WNW,298,2.0,2.0,46,0.00,,OVC003,0.00,VWS V14.01,2013-04-03 00:00:00,
2013-04-02 20:01:00,30.7,12.4,30.18,WNW,298,2.0,0.0,46,0.00,,OVC003,0.00,VWS V14.01,2013-04-03 00:01:00,
2013-04-02 20:02:00,30.6,12.3,30.18,WNW,298,2.0,2.0,46,0.00,,OVC003,0.00,VWS V14.01,2013-04-03 00:02:00,
2013-04-02 20:03:00,30.6,12.3,30.18,WNW,299,2.0,2.0,46,0.00,,OVC003,0.00,VWS V14.01,2013-04-03 00:03:00,
2013-04-02 20:04:00,30.6,12.3,30.18,WNW,299,2.0,2.0,46,0.00,,OVC003,0.00,VWS V14.01,2013-04-03 00:04:00,
2013-04-02 20:05:00,30.6,12.3,30.18,WNW,298,2.0,2.0,46,0.00,,OVC003,0.00,VWS V14.01,2013-04-03 00:05:00,
2013-04-02 20:06:00,30.5,12.2,30.18,WNW,299,2.0,0.0,46,0.00,,OVC003,0.00,VWS V14.01,2013-04-03 00:06:00,
2013-04-02 20:07:00,30.4,12.1,30.18,WNW,298,2.0,0.0,46,0.00,,OVC003,0.00,VWS V14.01,2013-04-03 00:07:00,
2013-04-02 20:09:00,30.3,12.0,30.18,WNW,298,2.0,0.0,46,0.00,,OVC003,0.00,VWS V14.01,2013-04-03 00:09:00,
2013-04-02 20:10:00,30.3,12.0,30.18,WNW,299,2.0,0.0,46,0.00,,OVC003,0.00,VWS V14.01,2013-04-03 00:10:00,
2013-04-02 20:11:00,30.3,12.0,30.18,WNW,298,2.0,0.0,46,0.00,,OVC003,0.00,VWS V14.01,2013-04-03 00:11:00,
2013-04-02 20:12:00,30.2,12.4,30.18,WNW,299,2.0,0.0,47,0.00,,OVC003,0.00,VWS V14.01,2013-04-03 00:12:00,
2013-04-02 20:13:00,30.2,12.4,30.18,WNW,299,2.0,0.0,47,0.00,,OVC003,0.00,VWS V14.01,2013-04-03 00:13:00,
2013-04-02 20:14:00,30.1,12.3,30.18,WNW,299,2.0,0.0,47,0.00,,OVC003,0.00,VWS V14.01,2013-04-03 00:14:00,
2013-04-02 20:15:00,30.1,12.3,30.18,WNW,298,2.0,0.0,47,0.00,,OVC003,0.00,VWS V14.01,2013-04-03 00:15:00,
2013-04-02 20:18:00,30.0,12.2,30.18,WNW,299,2.0,0.0,47,0.00,,OVC003,0.00,VWS V14.01,2013-04-03 00:18:00,
2013-04-02 20:19:00,30.0,12.2,30.18,WNW,299,2.0,0.0,47,0.00,,OVC003,0.00,VWS V14.01,2013-04-03 00:19:00,
2013-04-02 20:20:00,29.9,12.1,30.18,WNW,298,2.0,2.0,47,0.00,,OVC003,0.00,VWS V14.01,2013-04-03 00:20:00,
2013-04-02 20:21:00,29.9,12.1,30.18,WNW,298,2.0,0.0,47,0.00,,OVC003,0.00,VWS V14.01,2013-04-03 00:21:00,
2013-04-02 20:22:00,29.8,12.5,30.18,WNW,299,2.0,0.0,48,0.00,,OVC003,0.00,VWS V14.01,2013-04-03 00:22:00,
2013-04-02 20:23:00,29.8,12.5,30.18,WNW,299,2.0,0.0,48,0.00,,OVC003,0.00,VWS V14.01,2013-04-03 00:23:00,
2013-04-02 20:24:00,29.8,12.0,30.18,WNW,299,2.0,0.0,47,0.00,,OVC003,0.00,VWS V14.01,2013-04-03 00:24:00,
2013-04-02 20:25:00,29.7,11.9,30.18,WNW,299,2.0,0.0,47,0.00,,OVC003,0.00,VWS V14.01,2013-04-03 00:25:00,
2013-04-02 20:27:00,29.7,12.4,30.18,WNW,299,2.0,0.0,48,0.00,,OVC003,0.00,VWS V14.01,2013-04-03 00:27:00,
2013-04-02 20:28:00,29.7,12.4,30.18,WNW,299,2.0,0.0,48,0.00,,OVC003,0.00,VWS V14.01,2013-04-03 00:28:00,
2013-04-02 20:29:00,29.6,12.3,30.18,WNW,299,2.0,0.0,48,0.00,,OVC003,0.00,VWS V14.01,2013-04-03 00:29:00,
2013-04-02 20:30:00,29.6,12.8,30.18,WNW,299,2.0,0.0,49,0.00,,OVC003,0.00,VWS V14.01,2013-04-03 00:30:00,
2013-04-02 20:31:00,29.5,13.2,30.18,WNW,299,2.0,0.0,50,0.00,,OVC003,0.00,VWS V14.01,2013-04-03 00:31:00,
2013-04-02 20:32:00,29.5,13.2,30.18,WNW,299,2.0,0.0,50,0.00,,OVC003,0.00,VWS V14.01,2013-04-03 00:32:00,
2013-04-02 20:33:00,29.4,13.5,30.18,WNW,299,2.0,0.0,51,0.00,,OVC003,0.00,VWS V14.01,2013-04-03 00:33:00,
2013-04-02 20:35:00,29.4,13.5,30.18,WNW,299,2.0,0.0,51,0.00,,OVC003,0.00,VWS V14.01,2013-04-03 00:35:00,
2013-04-02 20:36:00,29.3,13.4,30.18,WNW,298,2.0,0.0,51,0.00,,OVC003,0.00,VWS V14.01,2013-04-03 00:36:00,
2013-04-02 20:37:00,29.3,13.4,30.18,WNW,299,2.0,0.0,51,0.00,,OVC003,0.00,VWS V14.01,2013-04-03 00:37:00,
2013-04-02 20:38:00,29.2,13.8,30.18,WNW,299,2.0,0.0,52,0.00,,OVC003,0.00,VWS V14.01,2013-04-03 00:38:00,
2013-04-02 20:40:00,29.2,14.2,30.18,WNW,298,2.0,0.0,53,0.00,,OVC003,0.00,VWS V14.01,2013-04-03 00:40:00,
2013-04-02 20:41:00,29.1,14.1,30.18,WNW,299,2.0,0.0,53,0.00,,OVC003,0.00,VWS V14.01,2013-04-03 00:41:00,
2013-04-02 20:42:00,29.1,14.1,30.18,WNW,299,2.0,0.0,53,0.00,,OVC003,0.00,VWS V14.01,2013-04-03 00:42:00,
2013-04-02 20:43:00,29.0,14.4,30.18,WNW,299,2.0,0.0,54,0.00,,OVC003,0.00,VWS V14.01,2013-04-03 00:43:00,
2013-04-02 20:44:00,29.0,14.9,30.18,WNW,298,2.0,0.0,55,0.00,,OVC003,0.00,VWS V14.01,2013-04-03 00:44:00,
2013-04-02 20:45:00,29.0,15.3,30.19,WNW,299,2.0,0.0,56,0.00,,OVC003,0.00,VWS V14.01,2013-04-03 00:45:00,
2013-04-02 20:46:00,29.0,15.3,30.19,WNW,299,2.0,0.0,56,0.00,,OVC003,0.00,VWS V14.01,2013-04-03 00:46:00,
2013-04-02 20:47:00,28.9,15.6,30.19,WNW,299,2.0,0.0,57,0.00,,OVC003,0.00,VWS V14.01,2013-04-03 00:47:00,
2013-04-02 20:48:00,28.9,15.6,30.19,WNW,298,2.0,0.0,57,0.00,,OVC003,0.00,VWS V14.01,2013-04-03 00:48:00,
2013-04-02 20:49:00,28.9,15.6,30.19,WNW,298,2.0,0.0,57,0.00,,OVC003,0.00,VWS V14.01,2013-04-03 00:49:00,
2013-04-02 20:50:00,28.9,16.0,30.19,WNW,298,2.0,0.0,58,0.00,,OVC003,0.00,VWS V14.01,2013-04-03 00:50:00,
2013-04-02 20:51:00,28.8,15.5,30.19,WNW,299,2.0,0.0,57,0.00,,OVC003,0.00,VWS V14.01,2013-04-03 00:51:00,
2013-04-02 20:52:00,28.8,15.1,30.19,WNW,298,2.0,0.0,56,0.00,,OVC003,0.00,VWS V14.01,2013-04-03 00:52:00,
2013-04-02 20:53:00,28.8,15.1,30.19,WNW,298,2.0,0.0,56,0.00,,OVC003,0.00,VWS V14.01,2013-04-03 00:53:00,
2013-04-02 20:54:00,28.7,15.0,30.19,WNW,298,2.0,0.0,56,0.00,,OVC003,0.00,VWS V14.01,2013-04-03 00:54:00,
2013-04-02 20:55:00,28.7,15.0,30.19,WNW,298,2.0,0.0,56,0.00,,OVC003,0.00,VWS V14.01,2013-04-03 00:55:00,
2013-04-02 20:56:00,28.6,14.9,30.19,WNW,299,2.0,0.0,56,0.00,,OVC003,0.00,VWS V14.01,2013-04-03 00:56:00,
2013-04-02 20:57:00,28.6,14.9,30.19,WNW,299,2.0,0.0,56,0.00,,OVC003,0.00,VWS V14.01,2013-04-03 00:57:00,
2013-04-02 20:58:00,28.5,14.8,30.19,WNW,299,2.0,0.0,56,0.00,,OVC003,0.00,VWS V14.01,2013-04-03 00:58:00,
2013-04-02 20:59:00,28.5,14.8,30.19,WNW,298,2.0,0.0,56,0.00,,OVC003,0.00,VWS V14.01,2013-04-03 00:59:00,
2013-04-02 21:00:00,28.5,14.8,30.19,WNW,299,2.0,0.0,56,0.00,,OVC003,0.00,VWS V14.01,2013-04-03 01:00:00,
2013-04-02 21:01:00,28.4,14.3,30.19,WNW,299,2.0,0.0,55,0.00,,OVC003,0.00,VWS V14.01,2013-04-03 01:01:00,
2013-04-02 21:02:00,28.4,14.3,30.19,WNW,299,2.0,0.0,55,0.00,,OVC003,0.00,VWS V14.01,2013-04-03 01:02:00,
2013-04-02 21:03:00,28.3,14.2,30.19,WNW,299,2.0,0.0,55,0.00,,OVC003,0.00,VWS V14.01,2013-04-03 01:03:00,
2013-04-02 21:05:00,28.3,14.2,30.19,WNW,299,2.0,0.0,55,0.00,,OVC003,0.00,VWS V14.01,2013-04-03 01:05:00,
2013-04-02 21:06:00,28.2,13.7,30.19,WNW,299,2.0,0.0,54,0.00,,OVC003,0.00,VWS V14.01,2013-04-03 01:06:00,
2013-04-02 21:09:00,28.1,13.6,30.19,WNW,299,2.0,0.0,54,0.00,,OVC003,0.00,VWS V14.01,2013-04-03 01:09:00,
2013-04-02 21:10:00,28.1,13.6,30.19,WNW,299,2.0,0.0,54,0.00,,OVC003,0.00,VWS V14.01,2013-04-03 01:10:00,
2013-04-02 21:11:00,28.0,13.5,30.19,WNW,298,2.0,0.0,54,0.00,,OVC003,0.00,VWS V14.01,2013-04-03 01:11:00,
2013-04-02 21:12:00,28.0,13.9,30.19,WNW,298,2.0,0.0,55,0.00,,OVC003,0.00,VWS V14.01,2013-04-03 01:12:00,
2013-04-02 21:13:00,27.9,13.8,30.19,WNW,298,2.0,0.0,55,0.00,,OVC003,0.00,VWS V14.01,2013-04-03 01:13:00,
2013-04-02 21:14:00,27.9,13.8,30.19,WNW,298,2.0,0.0,55,0.00,,OVC003,0.00,VWS V14.01,2013-04-03 01:14:00,
2013-04-02 21:15:00,27.9,13.8,30.19,WNW,299,2.0,0.0,55,0.00,,OVC003,0.00,VWS V14.01,2013-04-03 01:15:00,
2013-04-02 21:16:00,27.8,14.2,30.19,WNW,299,2.0,0.0,56,0.00,,OVC003,0.00,VWS V14.01,2013-04-03 01:16:00,
2013-04-02 21:18:00,27.7,14.1,30.19,WNW,299,2.0,0.0,56,0.00,,OVC003,0.00,VWS V14.01,2013-04-03 01:18:00,
2013-04-02 21:19:00,27.7,14.1,30.19,WNW,299,2.0,0.0,56,0.00,,OVC003,0.00,VWS V14.01,2013-04-03 01:19:00,
2013-04-02 21:20:00,27.7,14.1,30.19,WNW,299,2.0,0.0,56,0.00,,OVC003,0.00,VWS V14.01,2013-04-03 01:20:00,
2013-04-02 21:21:00,27.7,13.6,30.19,WNW,299,2.0,0.0,55,0.00,,OVC003,0.00,VWS V14.01,2013-04-03 01:21:00,
2013-04-02 21:22:00,27.6,13.6,30.19,WNW,298,2.0,0.0,55,0.00,,OVC003,0.00,VWS V14.01,2013-04-03 01:22:00,
2013-04-02 21:23:00,27.6,14.0,30.19,WNW,299,2.0,0.0,56,0.00,,OVC003,0.00,VWS V14.01,2013-04-03 01:23:00,
2013-04-02 21:25:00,27.5,13.9,30.19,WNW,299,2.0,0.0,56,0.00,,OVC003,0.00,VWS V14.01,2013-04-03 01:25:00,
2013-04-02 21:26:00,27.5,13.9,30.19,WNW,299,2.0,0.0,56,0.00,,OVC003,0.00,VWS V14.01,2013-04-03 01:26:00,
2013-04-02 21:27:00,27.5,13.9,30.19,WNW,299,2.0,0.0,56,0.00,,OVC003,0.00,VWS V14.01,2013-04-03 01:27:00,
2013-04-02 21:28:00,27.5,15.8,30.19,WNW,299,2.0,0.0,61,0.00,,OVC003,0.00,VWS V14.01,2013-04-03 01:28:00,
2013-04-02 21:29:00,27.5,14.7,30.20,WNW,299,2.0,0.0,58,0.00,,OVC003,0.00,VWS V14.01,2013-04-03 01:29:00,
2013-04-02 21:30:00,27.5,14.7,30.20,WNW,298,2.0,0.0,58,0.00,,OVC003,0.00,VWS V14.01,2013-04-03 01:30:00,
2013-04-02 21:31:00,27.5,14.7,30.20,WNW,299,2.0,0.0,58,0.00,,OVC003,0.00,VWS V14.01,2013-04-03 01:31:00,
2013-04-02 21:32:00,27.5,15.1,30.20,WNW,299,2.0,0.0,59,0.00,,OVC003,0.00,VWS V14.01,2013-04-03 01:32:00,
2013-04-02 21:33:00,27.5,15.4,30.20,WNW,298,2.0,0.0,60,0.00,,OVC003,0.00,VWS V14.01,2013-04-03 01:33:00,
2013-04-02 21:34:00,27.4,15.4,30.20,WNW,299,2.0,0.0,60,0.00,,OVC003,0.00,VWS V14.01,2013-04-03 01:34:00,
2013-04-02 21:35:00,27.4,15.4,30.20,WNW,299,2.0,0.0,60,0.00,,OVC003,0.00,VWS V14.01,2013-04-03 01:35:00,
2013-04-02 21:36:00,27.4,15.4,30.20,WNW,298,2.0,0.0,60,0.00,,OVC003,0.00,VWS V14.01,2013-04-03 01:36:00,
2013-04-02 21:37:00,27.4,15.4,30.20,WNW,298,2.0,0.0,60,0.00,,OVC003,0.00,VWS V14.01,2013-04-03 01:37:00,
2013-04-02 21:38:00,27.4,15.0,30.20,WNW,298,2.0,0.0,59,0.00,,OVC003,0.00,VWS V14.01,2013-04-03 01:38:00,
2013-04-02 21:39:00,27.3,14.5,30.20,WNW,299,2.0,0.0,58,0.00,,OVC003,0.00,VWS V14.01,2013-04-03 01:39:00,
2013-04-02 21:40:00,27.3,14.5,30.20,WNW,299,2.0,0.0,58,0.00,,OVC003,0.00,VWS V14.01,2013-04-03 01:40:00,
2013-04-02 21:41:00,27.3,14.9,30.20,WNW,299,2.0,0.0,59,0.00,,OVC003,0.00,VWS V14.01,2013-04-03 01:41:00,
2013-04-02 21:42:00,27.3,14.9,30.20,WNW,299,2.0,0.0,59,0.00,,OVC003,0.00,VWS V14.01,2013-04-03 01:42:00,
2013-04-02 21:43:00,27.2,14.8,30.20,WNW,299,2.0,0.0,59,0.00,,OVC003,0.00,VWS V14.01,2013-04-03 01:43:00,
2013-04-02 21:44:00,27.2,14.4,30.20,WNW,299,2.0,0.0,58,0.00,,OVC003,0.00,VWS V14.01,2013-04-03 01:44:00,
2013-04-02 21:45:00,27.2,14.4,30.20,WNW,299,2.0,0.0,58,0.00,,OVC003,0.00,VWS V14.01,2013-04-03 01:45:00,
2013-04-02 21:46:00,27.2,14.4,30.20,WNW,299,2.0,0.0,58,0.00,,OVC003,0.00,VWS V14.01,2013-04-03 01:46:00,
2013-04-02 21:47:00,27.2,14.0,30.20,WNW,299,2.0,0.0,57,0.00,,OVC003,0.00,VWS V14.01,2013-04-03 01:47:00,
2013-04-02 21:48:00,27.1,13.9,30.20,WNW,298,2.0,0.0,57,0.00,,OVC003,0.00,VWS V14.01,2013-04-03 01:48:00,
2013-04-02 21:49:00,27.1,13.9,30.20,WNW,299,2.0,0.0,57,0.00,,OVC003,0.00,VWS V14.01,2013-04-03 01:49:00,
2013-04-02 21:50:00,27.1,13.9,30.20,WNW,298,2.0,0.0,57,0.00,,OVC003,0.00,VWS V14.01,2013-04-03 01:50:00,
2013-04-02 21:51:00,27.1,13.9,30.20,WNW,298,2.0,0.0,57,0.00,,OVC003,0.00,VWS V14.01,2013-04-03 01:51:00,
2013-04-02 21:52:00,27.1,13.5,30.20,WNW,298,2.0,0.0,56,0.00,,OVC003,0.00,VWS V14.01,2013-04-03 01:52:00,
2013-04-02 21:53:00,27.1,13.5,30.20,WNW,299,2.0,0.0,56,0.00,,OVC003,0.00,VWS V14.01,2013-04-03 01:53:00,
2013-04-02 21:54:00,27.1,13.5,30.20,WNW,299,2.0,0.0,56,0.00,,OVC003,0.00,VWS V14.01,2013-04-03 01:54:00,
2013-04-02 21:55:00,27.1,13.5,30.20,WNW,299,2.0,0.0,56,0.00,,OVC003,0.00,VWS V14.01,2013-04-03 01:55:00,
2013-04-02 21:56:00,27.1,13.5,30.20,WNW,298,2.0,0.0,56,0.00,,OVC003,0.00,VWS V14.01,2013-04-03 01:56:00,
2013-04-02 21:57:00,27.1,13.5,30.20,WNW,299,2.0,0.0,56,0.00,,OVC003,0.00,VWS V14.01,2013-04-03 01:57:00,
2013-04-02 21:58:00,27.1,13.5,30.20,WNW,298,2.0,0.0,56,0.00,,OVC003,0.00,VWS V14.01,2013-04-03 01:58:00,
2013-04-02 22:00:00,27.0,13.4,30.20,WNW,299,2.0,0.0,56,0.00,,OVC003,0.00,VWS V14.01,2013-04-03 02:00:00,
2013-04-02 22:01:00,27.0,14.2,30.20,WNW,299,2.0,0.0,58,0.00,,OVC003,0.00,VWS V14.01,2013-04-03 02:01:00,
2013-04-02 22:02:00,27.0,14.6,30.20,WNW,299,2.0,0.0,59,0.00,,OVC003,0.00,VWS V14.01,2013-04-03 02:02:00,
2013-04-02 22:04:00,27.0,15.4,30.20,WNW,298,2.0,0.0,61,0.00,,OVC003,0.00,VWS V14.01,2013-04-03 02:04:00,
2013-04-02 22:05:00,27.0,15.4,30.20,WNW,298,2.0,0.0,61,0.00,,OVC003,0.00,VWS V14.01,2013-04-03 02:05:00,
2013-04-02 22:06:00,27.0,15.7,30.20,WNW,299,2.0,0.0,62,0.00,,OVC003,0.00,VWS V14.01,2013-04-03 02:06:00,
2013-04-02 22:07:00,27.0,15.7,30.20,WNW,299,2.0,0.0,62,0.00,,OVC003,0.00,VWS V14.01,2013-04-03 02:07:00,
2013-04-02 22:08:00,27.0,16.1,30.20,WNW,299,2.0,0.0,63,0.00,,OVC003,0.00,VWS V14.01,2013-04-03 02:08:00,
2013-04-02 22:09:00,27.0,16.5,30.20,WNW,298,2.0,0.0,64,0.00,,OVC003,0.00,VWS V14.01,2013-04-03 02:09:00,
2013-04-02 22:10:00,27.0,16.5,30.20,WNW,299,2.0,0.0,64,0.00,,OVC003,0.00,VWS V14.01,2013-04-03 02:10:00,
2013-04-02 22:12:00,26.9,16.7,30.20,WNW,298,2.0,0.0,65,0.00,,OVC003,0.00,VWS V14.01,2013-04-03 02:12:00,
2013-04-02 22:13:00,26.9,16.7,30.20,WNW,299,2.0,0.0,65,0.00,,OVC003,0.00,VWS V14.01,2013-04-03 02:13:00,
2013-04-02 22:14:00,26.8,16.6,30.20,WNW,299,2.0,0.0,65,0.00,,OVC003,0.00,VWS V14.01,2013-04-03 02:14:00,
2013-04-02 22:15:00,26.8,16.3,30.20,WNW,299,2.0,0.0,64,0.00,,OVC003,0.00,VWS V14.01,2013-04-03 02:15:00,
2013-04-02 22:16:00,26.7,16.2,30.20,WNW,299,2.0,0.0,64,0.00,,OVC003,0.00,VWS V14.01,2013-04-03 02:16:00,
2013-04-02 22:17:00,26.6,16.1,30.20,WNW,299,2.0,0.0,64,0.00,,OVC003,0.00,VWS V14.01,2013-04-03 02:17:00,
2013-04-02 22:18:00,26.6,15.7,30.20,WNW,299,2.0,0.0,63,0.00,,OVC003,0.00,VWS V14.01,2013-04-03 02:18:00,
2013-04-02 22:19:00,26.5,15.6,30.20,WNW,299,2.0,0.0,63,0.00,,OVC003,0.00,VWS V14.01,2013-04-03 02:19:00,
2013-04-02 22:20:00,26.5,15.6,30.20,WNW,299,2.0,0.0,63,0.00,,OVC003,0.00,VWS V14.01,2013-04-03 02:20:00,
2013-04-02 22:21:00,26.5,15.3,30.20,WNW,299,2.0,0.0,62,0.00,,OVC003,0.00,VWS V14.01,2013-04-03 02:21:00,
2013-04-02 22:22:00,26.4,15.2,30.20,WNW,298,2.0,0.0,62,0.00,,OVC003,0.00,VWS V14.01,2013-04-03 02:22:00,
2013-04-02 22:23:00,26.4,15.2,30.20,WNW,299,2.0,0.0,62,0.00,,OVC003,0.00,VWS V14.01,2013-04-03 02:23:00,
2013-04-02 22:24:00,26.4,15.2,30.20,WNW,299,2.0,0.0,62,0.00,,OVC003,0.00,VWS V14.01,2013-04-03 02:24:00,
2013-04-02 22:25:00,26.3,15.4,30.20,WNW,299,2.0,0.0,63,0.00,,OVC003,0.00,VWS V14.01,2013-04-03 02:25:00,
2013-04-02 22:26:00,26.3,15.4,30.20,WNW,299,2.0,0.0,63,0.00,,OVC003,0.00,VWS V14.01,2013-04-03 02:26:00,
2013-04-02 22:27:00,26.3,15.4,30.20,WNW,299,2.0,0.0,63,0.00,,OVC003,0.00,VWS V14.01,2013-04-03 02:27:00,
2013-04-02 22:28:00,26.3,15.4,30.20,WNW,298,2.0,0.0,63,0.00,,OVC003,0.00,VWS V14.01,2013-04-03 02:28:00,
2013-04-02 22:30:00,26.3,15.8,30.20,WNW,298,2.0,0.0,64,0.00,,OVC003,0.00,VWS V14.01,2013-04-03 02:30:00,
2013-04-02 22:31:00,26.3,15.8,30.20,WNW,298,2.0,0.0,64,0.00,,OVC003,0.00,VWS V14.01,2013-04-03 02:31:00,
2013-04-02 22:32:00,26.3,15.8,30.20,WNW,299,2.0,0.0,64,0.00,,OVC003,0.00,VWS V14.01,2013-04-03 02:32:00,
2013-04-02 22:33:00,26.2,15.3,30.20,WNW,299,2.0,0.0,63,0.00,,OVC003,0.00,VWS V14.01,2013-04-03 02:33:00,
2013-04-02 22:34:00,26.2,15.3,30.20,WNW,299,2.0,0.0,63,0.00,,OVC003,0.00,VWS V14.01,2013-04-03 02:34:00,
2013-04-02 22:35:00,26.2,15.3,30.20,WNW,298,2.0,0.0,63,0.00,,OVC003,0.00,VWS V14.01,2013-04-03 02:35:00,
2013-04-02 22:36:00,26.2,15.3,30.20,WNW,299,2.0,0.0,63,0.00,,OVC003,0.00,VWS V14.01,2013-04-03 02:36:00,
2013-04-02 22:37:00,26.2,15.3,30.20,WNW,299,2.0,0.0,63,0.00,,OVC003,0.00,VWS V14.01,2013-04-03 02:37:00,
2013-04-02 22:38:00,26.2,15.3,30.20,WNW,298,2.0,0.0,63,0.00,,OVC003,0.00,VWS V14.01,2013-04-03 02:38:00,
2013-04-02 22:39:00,26.2,15.7,30.20,WNW,298,2.0,0.0,64,0.00,,OVC003,0.00,VWS V14.01,2013-04-03 02:39:00,
2013-04-02 22:40:00,26.2,16.1,30.20,WNW,298,2.0,0.0,65,0.00,,OVC003,0.00,VWS V14.01,2013-04-03 02:40:00,
2013-04-02 22:41:00,26.2,16.1,30.20,WNW,299,2.0,0.0,65,0.00,,OVC003,0.00,VWS V14.01,2013-04-03 02:41:00,
2013-04-02 22:42:00,26.2,16.1,30.20,WNW,298,2.0,0.0,65,0.00,,OVC003,0.00,VWS V14.01,2013-04-03 02:42:00,
2013-04-02 22:43:00,26.2,16.1,30.20,WNW,298,2.0,0.0,65,0.00,,OVC003,0.00,VWS V14.01,2013-04-03 02:43:00,
2013-04-02 22:44:00,26.2,16.1,30.20,WNW,298,2.0,0.0,65,0.00,,OVC003,0.00,VWS V14.01,2013-04-03 02:44:00,
2013-04-02 22:45:00,26.2,16.1,30.20,WNW,298,2.0,0.0,65,0.00,,OVC003,0.00,VWS V14.01,2013-04-03 02:45:00,
2013-04-02 22:46:00,26.2,16.4,30.20,WNW,299,2.0,0.0,66,0.00,,OVC003,0.00,VWS V14.01,2013-04-03 02:46:00,
2013-04-02 22:47:00,26.2,16.4,30.20,WNW,298,2.0,0.0,66,0.00,,OVC003,0.00,VWS V14.01,2013-04-03 02:47:00,
2013-04-02 22:48:00,26.2,16.1,30.20,WNW,299,2.0,0.0,65,0.00,,OVC003,0.00,VWS V14.01,2013-04-03 02:48:00,
2013-04-02 22:50:00,26.2,16.4,30.20,WNW,298,2.0,0.0,66,0.00,,OVC003,0.00,VWS V14.01,2013-04-03 02:50:00,
2013-04-02 22:51:00,26.2,16.4,30.20,WNW,299,2.0,0.0,66,0.00,,OVC003,0.00,VWS V14.01,2013-04-03 02:51:00,
2013-04-02 22:52:00,26.2,16.4,30.20,WNW,299,2.0,0.0,66,0.00,,OVC003,0.00,VWS V14.01,2013-04-03 02:52:00,
2013-04-02 22:53:00,26.2,16.4,30.20,WNW,298,2.0,0.0,66,0.00,,OVC003,0.00,VWS V14.01,2013-04-03 02:53:00,
2013-04-02 22:54:00,26.2,16.4,30.20,WNW,299,2.0,0.0,66,0.00,,OVC003,0.00,VWS V14.01,2013-04-03 02:54:00,
2013-04-02 22:55:00,26.1,16.3,30.20,WNW,299,2.0,0.0,66,0.00,,OVC003,0.00,VWS V14.01,2013-04-03 02:55:00,
2013-04-02 22:56:00,26.1,16.0,30.20,WNW,298,2.0,0.0,65,0.00,,OVC003,0.00,VWS V14.01,2013-04-03 02:56:00,
2013-04-02 22:57:00,26.1,16.0,30.20,WNW,298,2.0,0.0,65,0.00,,OVC003,0.00,VWS V14.01,2013-04-03 02:57:00,
2013-04-02 22:58:00,26.1,16.0,30.20,WNW,298,2.0,0.0,65,0.00,,OVC003,0.00,VWS V14.01,2013-04-03 02:58:00,
2013-04-02 22:59:00,26.1,16.0,30.20,WNW,299,2.0,0.0,65,0.00,,OVC003,0.00,VWS V14.01,2013-04-03 02:59:00,
2013-04-02 23:00:00,26.0,15.9,30.20,WNW,299,2.0,2.0,65,0.00,,OVC003,0.00,VWS V14.01,2013-04-03 03:00:00,
2013-04-02 23:01:00,26.1,15.6,30.20,WNW,299,2.0,0.0,64,0.00,,OVC003,0.00,VWS V14.01,2013-04-03 03:01:00,
2013-04-02 23:02:00,26.1,15.6,30.20,WNW,299,2.0,0.0,64,0.00,,OVC003,0.00,VWS V14.01,2013-04-03 03:02:00,
2013-04-02 23:03:00,26.1,15.6,30.20,WNW,299,2.0,0.0,64,0.00,,OVC003,0.00,VWS V14.01,2013-04-03 03:03:00,
2013-04-02 23:04:00,26.1,15.6,30.20,WNW,298,2.0,0.0,64,0.00,,OVC003,0.00,VWS V14.01,2013-04-03 03:04:00,
2013-04-02 23:05:00,26.1,15.6,30.20,WNW,298,2.0,0.0,64,0.00,,OVC003,0.00,VWS V14.01,2013-04-03 03:05:00,
2013-04-02 23:06:00,26.1,15.6,30.20,WNW,298,2.0,0.0,64,0.00,,OVC003,0.00,VWS V14.01,2013-04-03 03:06:00,
2013-04-02 23:07:00,27.0,13.8,30.20,WNW,298,2.0,0.0,57,0.00,,OVC003,0.00,VWS V14.01,2013-04-03 03:07:00,
2013-04-02 23:08:00,26.1,15.6,30.20,WNW,299,2.0,0.0,64,0.00,,OVC003,0.00,VWS V14.01,2013-04-03 03:08:00,
2013-04-02 23:09:00,26.1,15.6,30.20,WNW,298,2.0,0.0,64,0.00,,OVC003,0.00,VWS V14.01,2013-04-03 03:09:00,
2013-04-02 23:10:00,26.1,15.6,30.20,WNW,299,2.0,0.0,64,0.00,,OVC003,0.00,VWS V14.01,2013-04-03 03:10:00,
2013-04-02 23:11:00,26.1,15.2,30.20,WNW,299,2.0,0.0,63,0.00,,OVC003,0.00,VWS V14.01,2013-04-03 03:11:00,
2013-04-02 23:12:00,26.1,15.6,30.20,WNW,298,2.0,0.0,64,0.00,,OVC003,0.00,VWS V14.01,2013-04-03 03:12:00,
2013-04-02 23:13:00,26.1,15.6,30.20,WNW,298,2.0,0.0,64,0.00,,OVC003,0.00,VWS V14.01,2013-04-03 03:13:00,
2013-04-02 23:14:00,26.1,15.6,30.20,WNW,299,2.0,0.0,64,0.00,,OVC003,0.00,VWS V14.01,2013-04-03 03:14:00,
2013-04-02 23:15:00,26.1,15.6,30.20,WNW,299,2.0,0.0,64,0.00,,OVC003,0.00,VWS V14.01,2013-04-03 03:15:00,
2013-04-02 23:16:00,26.1,15.6,30.20,WNW,299,2.0,0.0,64,0.00,,OVC003,0.00,VWS V14.01,2013-04-03 03:16:00,
2013-04-02 23:17:00,26.1,15.6,30.20,WNW,298,2.0,0.0,64,0.00,,OVC003,0.00,VWS V14.01,2013-04-03 03:17:00,
2013-04-02 23:18:00,26.1,15.6,30.20,WNW,298,2.0,0.0,64,0.00,,OVC003,0.00,VWS V14.01,2013-04-03 03:18:00,
2013-04-02 23:20:00,26.0,15.1,30.20,WNW,298,2.0,0.0,63,0.00,,OVC003,0.00,VWS V14.01,2013-04-03 03:20:00,
2013-04-02 23:21:00,26.0,15.1,30.20,WNW,298,2.0,0.0,63,0.00,,OVC003,0.00,VWS V14.01,2013-04-03 03:21:00,
2013-04-02 23:22:00,26.0,15.1,30.20,WNW,298,2.0,0.0,63,0.00,,OVC003,0.00,VWS V14.01,2013-04-03 03:22:00,
2013-04-02 23:23:00,26.0,15.1,30.20,WNW,299,2.0,0.0,63,0.00,,OVC003,0.00,VWS V14.01,2013-04-03 03:23:00,
2013-04-02 23:24:00,26.0,15.1,30.20,WNW,299,2.0,0.0,63,0.00,,OVC003,0.00,VWS V14.01,2013-04-03 03:24:00,
2013-04-02 23:25:00,26.0,15.1,30.20,WNW,299,2.0,0.0,63,0.00,,OVC003,0.00,VWS V14.01,2013-04-03 03:25:00,
2013-04-02 23:26:00,25.9,15.1,30.20,WNW,299,2.0,0.0,63,0.00,,OVC003,0.00,VWS V14.01,2013-04-03 03:26:00,
2013-04-02 23:27:00,25.9,15.1,30.20,WNW,298,2.0,0.0,63,0.00,,OVC003,0.00,VWS V14.01,2013-04-03 03:27:00,
2013-04-02 23:28:00,25.9,15.1,30.20,WNW,298,2.0,0.0,63,0.00,,OVC003,0.00,VWS V14.01,2013-04-03 03:28:00,
2013-04-02 23:30:00,25.9,15.4,30.20,WNW,299,2.0,0.0,64,0.00,,OVC003,0.00,VWS V14.01,2013-04-03 03:30:00,
2013-04-02 23:31:00,25.9,15.4,30.20,WNW,299,2.0,0.0,64,0.00,,OVC003,0.00,VWS V14.01,2013-04-03 03:31:00,
2013-04-02 23:32:00,25.9,15.4,30.20,WNW,299,2.0,0.0,64,0.00,,OVC003,0.00,VWS V14.01,2013-04-03 03:32:00,
2013-04-02 23:33:00,25.8,15.3,30.20,WNW,298,2.0,0.0,64,0.00,,OVC003,0.00,VWS V14.01,2013-04-03 03:33:00,
2013-04-02 23:34:00,25.8,15.3,30.20,WNW,299,2.0,0.0,64,0.00,,OVC003,0.00,VWS V14.01,2013-04-03 03:34:00,
2013-04-02 23:35:00,25.8,15.3,30.20,WNW,299,2.0,0.0,64,0.00,,OVC003,0.00,VWS V14.01,2013-04-03 03:35:00,
2013-04-02 23:36:00,25.8,15.3,30.20,WNW,299,2.0,0.0,64,0.00,,OVC003,0.00,VWS V14.01,2013-04-03 03:36:00,
2013-04-02 23:37:00,25.8,15.3,30.20,WNW,299,2.0,0.0,64,0.00,,OVC003,0.00,VWS V14.01,2013-04-03 03:37:00,
2013-04-02 23:38:00,25.7,15.2,30.20,WNW,298,2.0,0.0,64,0.00,,OVC003,0.00,VWS V14.01,2013-04-03 03:38:00,
2013-04-02 23:39:00,25.7,15.6,30.20,WNW,299,2.0,0.0,65,0.00,,OVC003,0.00,VWS V14.01,2013-04-03 03:39:00,
2013-04-02 23:40:00,25.7,15.6,30.20,WNW,299,2.0,0.0,65,0.00,,OVC003,0.00,VWS V14.01,2013-04-03 03:40:00,
2013-04-02 23:41:00,25.7,15.6,30.20,WNW,299,2.0,0.0,65,0.00,,OVC003,0.00,VWS V14.01,2013-04-03 03:41:00,
2013-04-02 23:42:00,25.7,15.6,30.20,WNW,298,2.0,0.0,65,0.00,,OVC003,0.00,VWS V14.01,2013-04-03 03:42:00,
2013-04-02 23:43:00,25.7,15.6,30.20,WNW,299,2.0,0.0,65,0.00,,OVC003,0.00,VWS V14.01,2013-04-03 03:43:00,
2013-04-02 23:44:00,25.6,15.5,30.20,WNW,299,2.0,0.0,65,0.00,,OVC003,0.00,VWS V14.01,2013-04-03 03:44:00,
2013-04-02 23:45:00,25.6,15.1,30.20,WNW,299,2.0,0.0,64,0.00,,OVC003,0.00,VWS V14.01,2013-04-03 03:45:00,
2013-04-02 23:46:00,25.6,15.1,30.20,WNW,299,2.0,0.0,64,0.00,,OVC003,0.00,VWS V14.01,2013-04-03 03:46:00,
2013-04-02 23:47:00,25.6,15.5,30.20,WNW,298,2.0,0.0,65,0.00,,OVC003,0.00,VWS V14.01,2013-04-03 03:47:00,
2013-04-02 23:48:00,25.5,15.0,30.20,WNW,298,2.0,0.0,64,0.00,,OVC003,0.00,VWS V14.01,2013-04-03 03:48:00,
2013-04-02 23:49:00,25.5,15.4,30.20,WNW,298,2.0,0.0,65,0.00,,OVC003,0.00,VWS V14.01,2013-04-03 03:49:00,
2013-04-02 23:50:00,25.5,15.4,30.20,WNW,299,2.0,0.0,65,0.00,,OVC003,0.00,VWS V14.01,2013-04-03 03:50:00,
2013-04-02 23:51:00,25.5,15.4,30.20,WNW,299,2.0,0.0,65,0.00,,OVC003,0.00,VWS V14.01,2013-04-03 03:51:00,
2013-04-02 23:52:00,25.5,15.0,30.20,WNW,299,2.0,0.0,64,0.00,,OVC003,0.00,VWS V14.01,2013-04-03 03:52:00,
2013-04-02 23:53:00,25.4,14.9,30.20,WNW,299,2.0,0.0,64,0.00,,OVC003,0.00,VWS V14.01,2013-04-03 03:53:00,
2013-04-02 23:54:00,25.4,15.3,30.20,WNW,299,2.0,0.0,65,0.00,,OVC003,0.00,VWS V14.01,2013-04-03 03:54:00,
2013-04-02 23:55:00,25.4,15.3,30.20,WNW,298,2.0,0.0,65,0.00,,OVC003,0.00,VWS V14.01,2013-04-03 03:55:00,
2013-04-02 23:56:00,25.4,15.3,30.20,WNW,299,2.0,0.0,65,0.00,,OVC003,0.00,VWS V14.01,2013-04-03 03:56:00,
2013-04-02 23:57:00,25.4,15.3,30.20,WNW,299,2.0,0.0,65,0.00,,OVC003,0.00,VWS V14.01,2013-04-03 03:57:00,
2013-04-02 23:58:00,25.4,15.3,30.20,WNW,299,2.0,0.0,65,0.00,,OVC003,0.00,VWS V14.01,2013-04-03 03:58:00,
2013-04-02 23:59:00,25.4,15.3,30.20,WNW,299,2.0,0.0,65,0.00,,OVC003,0.00,VWS V14.01,2013-04-03 03:59:00,